[[{"header":{"parameterUnit":"m.s-1","parameterCategory":1,"la1":31.0,"la2":29.5877,"lo1":-88.7671,"lo2":-86.6584,"dx":0.0162,"dy":0.0185,"nx":115,"ny":88,"refTime":"2022-11-19T06:00:00:Z","depth":0,"parameterNumber":2,"parameterNumberName":"U-component_of_WINDS"},"data":[0.0,0.0,0.0,0.0,0.0,0.0,0.0,0.0,0.0,0.0,0.0,0.0,0.0,0.0,0.0,0.0,0.0,0.0,0.0,0.0,0.0,0.0,0.0,0.0,0.0,0.0,0.0,0.0,0.0,0.0,0.0,0.0,0.0,0.0,0.0,0.0,0.0,0.0,0.0,0.0,0.0,0.0,0.0,0.0,0.0,0.0,0.0,0.0,0.0,0.0,0.0,0.0,0.0,0.0,0.0,0.0,0.0,0.0,0.0,0.0,0.0,0.0,0.0,0.0,0.0,0.0,0.0,0.0,0.0,0.0,0.0,0.0,0.0,0.0,0.0,0.0,0.0,0.0,0.0,0.0,0.0,0.0,0.0,0.0,0.0,0.0,0.0,0.0,0.0,0.0,0.0,0.0,0.0,0.0,0.0,0.0,0.0,0.0,0.0,0.0,0.0,0.0,0.0,0.0,0.0,0.0,0.0,0.0,0.0,0.0,0.0,0.0,0.0,0.0,0.0,0.0,0.0,0.0,0.0,0.0,0.0,0.0,0.0,0.0,0.0,0.0,0.0,0.0,0.0,0.0,0.0,0.0,0.0,0.0,0.0,0.0,0.0,0.0,0.0,0.0,0.0,0.0,0.0,0.0,0.0,0.0,0.0,0.0,0.0,0.0,0.0,0.0,0.0,0.0,0.0,0.0,0.0,0.0,0.0,0.0,0.0,0.0,0.0,0.0,0.0,0.0,0.0,0.0,0.0,0.0,0.0,0.0,0.0,0.0,0.0,0.0,0.0,0.0,0.0,0.0,0.0,0.0,0.0,0.0,0.0,0.0,0.0,0.0,0.0,0.0,0.0,0.0,0.0,0.0,0.0,0.0,0.0,0.0,0.0,0.0,0.0,0.0,0.0,0.0,0.0,0.0,0.0,0.0,0.0,0.0,0.0,0.0,0.0,0.0,0.0,0.0,0.0,0.0,0.0,0.0,0.0,0.0,0.0,0.0,0.0,0.0,0.0,0.0,0.0,0.0,0.0,0.0,0.0,0.0,0.0,0.0,0.0,0.0,0.0,0.0,0.0,0.0,0.0,0.0,0.0,0.0,0.0,0.0,0.0,0.0,0.0,0.0,0.0,0.0,0.0,0.0,0.0,0.0,0.0,0.0,0.0,0.0,0.0,0.0,0.0,0.0,0.0,0.0,0.0,0.0,0.0,0.0,0.0,0.0,0.0,0.0,0.0,0.0,0.0,0.0,0.0,0.0,0.0,0.0,0.0,0.0,0.0,0.0,0.0,0.0,0.0,0.0,0.0,0.0,0.0,0.0,0.0,0.0,0.0,0.0,0.0,0.0,0.0,0.0,0.0,0.0,0.0,0.0,0.0,0.0,0.0,0.0,0.0,0.0,0.0,0.0,0.0,0.0,0.0,0.0,0.0,0.0,0.0,0.0,0.0,0.0,0.0,0.0,0.0,0.0,0.0,0.0,0.0,0.0,0.0,0.0,0.0,0.0,0.0,0.0,0.0,0.0,0.0,0.0,0.0,0.0,0.0,0.0,0.0,0.0,0.0,0.0,0.0,0.0,0.0,0.0,0.0,0.0,0.0,0.0,0.0,0.0,0.0,0.0,0.0,0.0,0.0,0.0,0.0,0.0,0.0,0.0,0.0,0.0,0.0,0.0,0.0,0.0,0.0,0.0,0.0,0.0,0.0,0.0,0.0,0.0,0.0,0.0,0.0,0.0,0.0,0.0,0.0,0.0,0.0,0.0,0.0,0.0,0.0,0.0,0.0,0.0,0.0,0.0,0.0,0.0,0.0,0.0,0.0,0.0,0.0,0.0,0.0,0.0,0.0,0.0,0.0,0.0,0.0,0.0,0.0,0.0,0.0,0.0,0.0,0.0,0.0,0.0,0.0,0.0,0.0,0.0,0.0,0.0,0.0,0.0,0.0,0.0,0.0,0.0,0.0,0.0,0.0,0.0,0.0,0.0,0.0,0.0,0.0,0.0,0.0,0.0,0.0,0.0,0.0,0.0,0.0,0.0,0.0,0.0,0.0,0.0,0.0,0.0,0.0,0.0,0.0,0.0,0.0,0.0,0.0,0.0,0.0,0.0,0.0,0.0,0.0,0.0,0.0,0.0,0.0,0.0,0.0,0.0,0.0,0.0,0.0,0.0,0.0,0.0,0.0,0.0,0.0,0.0,0.0,0.0,0.0,0.0,0.0,0.0,0.0,0.0,0.0,0.0,0.0,0.0,0.0,0.0,0.0,0.0,0.0,0.0,0.0,0.0,0.0,0.0,0.0,0.0,0.0,0.0,0.0,0.0,0.0,0.0,0.0,0.0,0.0,0.0,0.0,0.0,0.0,0.0,0.0,0.0,0.0,0.0,0.0,0.0,0.0,0.0,0.0,0.0,0.0,0.0,0.0,0.0,0.0,0.0,0.0,0.0,0.0,0.0,0.0,0.0,0.0,0.0,0.0,0.0,0.0,0.0,0.0,0.0,0.0,0.0,0.0,0.0,0.0,0.0,0.0,0.0,0.0,0.0,0.0,0.0,0.0,0.0,0.0,0.0,0.0,0.0,0.0,0.0,0.0,0.0,0.0,0.0,0.0,0.0,0.0,0.0,0.0,0.0,0.0,0.0,0.0,0.0,0.0,0.0,0.0,0.0,0.0,0.0,0.0,0.0,0.0,0.0,0.0,0.0,0.0,0.0,0.0,0.0,0.0,0.0,0.0,0.0,0.0,0.0,0.0,0.0,0.0,0.0,0.0,0.0,0.0,0.0,0.0,0.0,0.0,0.0,0.0,0.0,0.0,0.0,0.0,0.0,0.0,0.0,0.0,0.0,0.0,0.0,0.0,0.0,0.0,0.0,0.0,0.0,0.0,0.0,0.0,0.0,0.0,0.0,0.0,0.0,0.0,0.0,0.0,0.0,0.0,0.0,0.0,0.0,0.0,0.0,0.0,0.0,0.0,0.0,0.0,0.0,0.0,0.0,0.0,0.0,0.0,0.0,0.0,0.0,0.0,0.0,0.0,0.0,0.0,0.0,0.0,0.0,0.0,0.0,0.0,0.0,0.0,0.0,0.0,0.0,0.0,0.0,0.0,0.0,0.0,0.0,0.0,0.0,0.0,0.0,0.0,0.0,0.0,0.0,0.0,0.0,0.0,0.0,0.0,0.0,0.0,0.0,0.0,0.0,0.0,0.0,0.0,0.0,0.0,0.0,0.0,0.0,0.0,0.0,0.0,0.0,0.0,0.0,0.0,0.0,0.0,0.0,0.0,0.0,0.0,0.0,0.0,0.0,0.0,0.0,0.0,0.0,0.0,0.0,0.0,0.0,0.0,0.0,0.0,0.0,0.0,0.0,0.0,0.0,0.0,0.0,0.0,0.0,0.0,0.0,0.0,0.0,0.0,0.0,0.0,0.0,0.0,0.0,0.0,0.0,0.0,0.0,0.0,0.0,0.0,0.0,0.0,0.0,0.0,0.0,0.0,0.0,0.0,0.0,0.0,0.0,0.0,0.0,0.0,0.0,0.0,0.0,0.0,0.0,0.0,0.0,0.0,0.0,0.0,0.0,0.0,0.0,0.0,0.0,0.0,0.0,0.0,0.0,0.0,0.0,0.0,0.0,0.0,0.0,0.0,0.0,0.0,0.0,0.0,0.0,0.0,0.0,0.0,0.0,0.0,0.0,0.0,0.0,0.0,0.0,0.0,0.0,0.0,0.0,0.0,0.0,0.0,0.0,0.0,0.0,0.0,0.0,0.0,0.0,0.0,0.0,0.0,0.0,0.0,0.0,0.0,0.0,0.0,0.0,0.0,0.0,0.0,0.0,0.0,0.0,0.0,0.0,0.0,0.0,0.0,0.0,0.0,0.0,0.0,0.0,0.0,0.0,0.0,0.0,0.0,0.0,0.0,0.0,0.0,0.0,0.0,0.0,0.0,0.0,0.0,0.0,0.0,0.0,0.0,0.0,0.0,0.0,0.0,0.0,0.0,0.0,0.0,0.0,0.0,0.0,0.0,0.0,0.0,0.0,0.0,0.0,0.0,0.0,0.0,0.0,0.0,0.0,0.0,0.0,0.0,0.0,0.0,0.0,0.0,0.0,0.0,0.0,0.0,0.0,0.0,0.0,0.0,0.0,0.0,0.0,0.0,0.0,0.0,0.0,0.0,0.0,0.0,0.0,0.0,0.0,0.0,0.0,0.0,0.0,0.0,0.0,0.0,0.0,0.0,0.0,0.0,0.0,0.0,0.0,0.0,0.0,2.6691,0.0,0.0,0.0,2.5634,0.0,0.0,0.0,0.0,0.0,0.0,0.0,0.0,0.0,0.0,0.0,0.0,0.0,0.0,0.0,0.0,0.0,0.0,0.0,0.0,0.0,0.0,0.0,0.0,0.0,0.0,0.0,0.0,0.0,0.0,0.0,0.0,0.0,0.0,0.0,0.0,0.0,0.0,0.0,0.0,0.0,0.0,0.0,0.0,0.0,0.0,0.0,0.0,0.0,0.0,0.0,0.0,0.0,0.0,0.0,0.0,0.0,0.0,0.0,0.0,0.0,0.0,0.0,0.0,0.0,0.0,0.0,0.0,0.0,0.0,0.0,0.0,0.0,0.0,0.0,0.0,0.0,0.0,0.0,0.0,0.0,0.0,0.0,0.0,0.0,0.0,0.0,0.0,0.0,0.0,0.0,0.0,0.0,0.0,0.0,0.0,0.0,0.0,0.0,0.0,0.0,0.0,0.0,0.0,0.0,0.0,0.0,0.0,0.0,0.0,2.6691,2.6691,2.6691,2.6564,2.6184,0.0,0.0,0.0,0.0,0.0,0.0,0.0,0.0,0.0,0.0,0.0,0.0,0.0,0.0,0.0,0.0,0.0,0.0,0.0,0.0,0.0,0.0,0.0,0.0,0.0,0.0,0.0,0.0,0.0,0.0,0.0,0.0,0.0,0.0,0.0,0.0,0.0,0.0,0.0,0.0,0.0,0.0,0.0,0.0,0.0,0.0,0.0,0.0,0.0,0.0,0.0,0.0,0.0,0.0,0.0,0.0,0.0,0.0,0.0,0.0,0.0,0.0,0.0,0.0,0.0,0.0,0.0,0.0,0.0,0.0,0.0,0.0,0.0,0.0,0.0,0.0,0.0,0.0,0.0,0.0,0.0,0.0,0.0,0.0,0.0,0.0,0.0,0.0,0.0,0.0,0.0,0.0,0.0,0.0,0.0,0.0,0.0,0.0,0.0,0.0,0.0,0.0,0.0,0.0,0.0,0.0,0.0,0.0,0.0,0.0,0.0,0.0,2.6691,2.6623,2.642,0.0,0.0,0.0,0.0,0.0,0.0,0.0,0.0,0.0,0.0,0.0,0.0,0.0,0.0,0.0,0.0,0.0,0.0,0.0,0.0,0.0,0.0,0.0,0.0,0.0,0.0,0.0,0.0,0.0,0.0,0.0,0.0,0.0,0.0,0.0,0.0,0.0,0.0,0.0,0.0,0.0,0.0,0.0,0.0,0.0,0.0,0.0,0.0,0.0,0.0,0.0,0.0,0.0,0.0,0.0,0.0,0.0,0.0,0.0,0.0,0.0,0.0,0.0,0.0,0.0,0.0,0.0,0.0,0.0,0.0,0.0,0.0,0.0,0.0,0.0,0.0,0.0,0.0,0.0,0.0,0.0,0.0,0.0,0.0,0.0,0.0,0.0,0.0,0.0,0.0,0.0,0.0,0.0,0.0,0.0,0.0,0.0,0.0,0.0,0.0,0.0,0.0,0.0,0.0,0.0,0.0,0.0,0.0,0.0,0.0,2.6691,2.6691,2.6691,0.0,2.5702,0.0,0.0,0.0,0.0,0.0,0.0,0.0,0.0,0.0,0.0,0.0,0.0,0.0,0.0,0.0,0.0,0.0,0.0,0.0,0.0,0.0,0.0,0.0,0.0,0.0,0.0,0.0,0.0,0.0,0.0,0.0,0.0,0.0,0.0,0.0,0.0,0.0,0.0,0.0,0.0,0.0,0.0,0.0,0.0,0.0,0.0,0.0,0.0,0.0,0.0,0.0,0.0,0.0,0.0,0.0,0.0,0.0,0.0,0.0,0.0,0.0,0.0,0.0,0.0,0.0,0.0,0.0,0.0,0.0,0.0,0.0,0.0,0.0,0.0,0.0,0.0,0.0,0.0,0.0,0.0,0.0,0.0,0.0,0.0,0.0,0.0,0.0,0.0,0.0,0.0,0.0,0.0,0.0,0.0,0.0,0.0,0.0,0.0,0.0,0.0,0.0,0.0,0.0,0.0,0.0,0.0,0.0,0.0,0.0,0.0,2.6691,2.6691,2.6691,2.6564,0.0,0.0,0.0,0.0,0.0,0.0,0.0,0.0,0.0,0.0,0.0,0.0,0.0,0.0,0.0,0.0,0.0,0.0,0.0,0.0,0.0,0.0,0.0,0.0,0.0,0.0,0.0,0.0,0.0,0.0,0.0,0.0,0.0,0.0,0.0,0.0,0.0,0.0,0.0,0.0,0.0,0.0,0.0,0.0,0.0,0.0,0.0,0.0,0.0,0.0,0.0,0.0,0.0,0.0,0.0,0.0,0.0,0.0,0.0,0.0,0.0,0.0,0.0,0.0,0.0,0.0,0.0,0.0,0.0,0.0,0.0,0.0,0.0,0.0,0.0,0.0,0.0,0.0,0.0,0.0,0.0,0.0,0.0,0.0,0.0,0.0,0.0,0.0,0.0,0.0,0.0,0.0,0.0,0.0,0.0,0.0,0.0,0.0,0.0,0.0,0.0,0.0,0.0,0.0,0.0,0.0,0.0,0.0,0.0,0.0,2.6894,2.6996,2.6996,2.6996,2.6928,2.67,0.0,0.0,0.0,0.0,0.0,0.0,0.0,0.0,0.0,0.0,0.0,0.0,0.0,0.0,0.0,0.0,0.0,0.0,0.0,0.0,0.0,0.0,0.0,0.0,0.0,0.0,0.0,0.0,0.0,0.0,0.0,0.0,0.0,0.0,0.0,0.0,0.0,0.0,0.0,0.0,0.0,0.0,0.0,0.0,0.0,0.0,0.0,0.0,0.0,0.0,0.0,0.0,0.0,0.0,0.0,0.0,0.0,0.0,0.0,0.0,0.0,0.0,0.0,0.0,0.0,0.0,0.0,0.0,0.0,0.0,0.0,0.0,0.0,0.0,0.0,0.0,0.0,0.0,0.0,0.0,0.0,0.0,0.0,0.0,0.0,0.0,0.0,0.0,0.0,0.0,0.0,0.0,0.0,0.0,0.0,0.0,0.0,0.0,0.0,0.0,0.0,0.0,0.0,0.0,0.0,0.0,0.0,0.0,2.6725,2.7418,2.7756,2.7781,2.7756,2.7427,0.0,0.0,0.0,0.0,0.0,0.0,0.0,0.0,0.0,0.0,0.0,0.0,0.0,0.0,0.0,0.0,0.0,0.0,0.0,0.0,0.0,0.0,0.0,0.0,0.0,0.0,0.0,0.0,0.0,0.0,0.0,0.0,0.0,0.0,0.0,0.0,0.0,0.0,0.0,0.0,0.0,0.0,0.0,0.0,0.0,0.0,0.0,0.0,0.0,0.0,0.0,0.0,0.0,0.0,0.0,0.0,0.0,0.0,0.0,0.0,0.0,0.0,0.0,0.0,0.0,0.0,0.0,0.0,0.0,0.0,0.0,0.0,0.0,0.0,0.0,0.0,0.0,0.0,0.0,0.0,0.0,0.0,0.0,0.0,0.0,0.0,0.0,0.0,0.0,0.0,0.0,0.0,0.0,0.0,0.0,0.0,0.0,0.0,0.0,0.0,0.0,0.0,0.0,0.0,0.0,0.0,0.0,0.0,0.0,2.7427,2.8644,2.9287,2.9244,2.8813,2.8213,0.0,0.0,0.0,0.0,0.0,0.0,0.0,0.0,0.0,0.0,0.0,0.0,0.0,0.0,0.0,0.0,0.0,0.0,0.0,0.0,0.0,0.0,0.0,0.0,0.0,0.0,0.0,0.0,0.0,0.0,0.0,0.0,0.0,0.0,0.0,0.0,0.0,0.0,0.0,0.0,0.0,0.0,0.0,0.0,0.0,0.0,0.0,0.0,0.0,0.0,0.0,0.0,0.0,0.0,0.0,0.0,0.0,0.0,0.0,0.0,0.0,0.0,0.0,0.0,0.0,0.0,0.0,0.0,0.0,0.0,0.0,0.0,0.0,0.0,0.0,0.0,0.0,0.0,0.0,0.0,0.0,0.0,0.0,0.0,0.0,0.0,0.0,0.0,0.0,0.0,0.0,0.0,0.0,0.0,0.0,0.0,0.0,0.0,0.0,0.0,0.0,0.0,0.0,0.0,0.0,0.0,0.0,0.0,0.0,2.9582,3.136,3.2127,3.1857,3.1166,3.0083,0.0,0.0,0.0,0.0,0.0,0.0,0.0,0.0,0.0,0.0,0.0,0.0,0.0,0.0,0.0,0.0,0.0,0.0,0.0,0.0,0.0,0.0,0.0,0.0,0.0,0.0,0.0,0.0,0.0,0.0,0.0,0.0,0.0,0.0,0.0,0.0,0.0,0.0,0.0,0.0,0.0,0.0,0.0,0.0,0.0,0.0,0.0,0.0,0.0,0.0,0.0,0.0,0.0,0.0,0.0,0.0,0.0,0.0,0.0,0.0,0.0,0.0,0.0,0.0,0.0,0.0,0.0,0.0,0.0,0.0,0.0,0.0,0.0,0.0,0.0,0.0,0.0,0.0,0.0,0.0,0.0,0.0,0.0,0.0,0.0,0.0,0.0,0.0,0.0,0.0,0.0,0.0,0.0,0.0,0.0,0.0,0.0,0.0,0.0,0.0,0.0,0.0,0.0,0.0,0.0,0.0,0.0,0.0,2.9751,3.3355,3.5667,3.6445,3.5712,3.4945,3.3119,0.0,0.0,0.0,0.0,0.0,0.0,0.0,0.0,0.0,0.0,0.0,0.0,0.0,0.0,0.0,0.0,0.0,0.0,0.0,0.0,0.0,0.0,0.0,0.0,0.0,0.0,0.0,0.0,0.0,0.0,0.0,0.0,0.0,0.0,0.0,0.0,0.0,0.0,0.0,0.0,0.0,0.0,0.0,0.0,0.0,0.0,0.0,0.0,0.0,0.0,0.0,0.0,0.0,0.0,0.0,0.0,0.0,0.0,0.0,0.0,0.0,0.0,0.0,0.0,0.0,0.0,0.0,0.0,0.0,0.0,0.0,0.0,0.0,0.0,0.0,0.0,0.0,0.0,0.0,0.0,0.0,0.0,0.0,0.0,0.0,0.0,0.0,0.0,0.0,0.0,0.0,0.0,0.0,0.0,0.0,0.0,0.0,0.0,0.0,0.0,0.0,0.0,0.0,0.0,0.0,0.0,0.0,0.0,0.0,3.7212,3.9457,4.0696,4.092,3.8802,3.596,0.0,0.0,0.0,0.0,0.0,0.0,0.0,0.0,0.0,0.0,0.0,0.0,0.0,0.0,0.0,0.0,0.0,0.0,0.0,0.0,0.0,0.0,0.0,0.0,0.0,0.0,0.0,0.0,0.0,0.0,0.0,0.0,0.0,0.0,0.0,0.0,0.0,0.0,0.0,0.0,0.0,0.0,0.0,0.0,0.0,0.0,0.0,0.0,0.0,0.0,0.0,0.0,0.0,0.0,0.0,0.0,0.0,0.0,0.0,0.0,0.0,0.0,0.0,0.0,0.0,0.0,0.0,0.0,0.0,0.0,0.0,0.0,0.0,0.0,0.0,0.0,0.0,0.0,0.0,0.0,0.0,0.0,0.0,0.0,0.0,0.0,0.0,0.0,0.0,0.0,0.0,0.0,0.0,0.0,0.0,0.0,0.0,0.0,0.0,0.0,0.0,0.0,0.0,0.0,0.0,0.0,0.0,0.0,0.0,4.3044,4.4499,4.5297,4.5486,4.2895,3.9343,3.481,0.0,0.0,0.0,0.0,0.0,0.0,0.0,0.0,0.0,0.0,0.0,0.0,0.0,0.0,0.0,0.0,0.0,0.0,0.0,0.0,0.0,0.0,0.0,0.0,0.0,0.0,0.0,0.0,0.0,0.0,0.0,0.0,0.0,0.0,0.0,0.0,0.0,0.0,0.0,0.0,0.0,0.0,0.0,0.0,0.0,0.0,0.0,0.0,0.0,0.0,0.0,0.0,0.0,0.0,0.0,0.0,0.0,0.0,0.0,0.0,0.0,0.0,0.0,0.0,0.0,0.0,0.0,0.0,0.0,0.0,0.0,0.0,0.0,0.0,0.0,0.0,0.0,0.0,0.0,0.0,0.0,0.0,0.0,0.0,0.0,0.0,0.0,0.0,0.0,0.0,0.0,0.0,0.0,0.0,0.0,0.0,0.0,0.0,0.0,0.0,0.0,0.0,0.0,0.0,0.0,0.0,0.0,0.0,5.015,5.0405,5.0168,4.939,4.7143,4.3132,0.0,0.0,0.0,0.0,0.0,0.0,0.0,0.0,0.0,0.0,0.0,0.0,0.0,0.0,0.0,0.0,0.0,0.0,0.0,0.0,0.0,0.0,0.0,0.0,0.0,0.0,0.0,0.0,0.0,0.0,0.0,0.0,0.0,0.0,0.0,0.0,0.0,0.0,0.0,0.0,0.0,0.0,0.0,0.0,0.0,0.0,0.0,0.0,0.0,0.0,0.0,0.0,0.0,0.0,0.0,0.0,0.0,0.0,0.0,0.0,0.0,0.0,0.0,0.0,0.0,0.0,0.0,0.0,0.0,0.0,0.0,0.0,0.0,0.0,0.0,0.0,0.0,0.0,0.0,0.0,0.0,0.0,0.0,0.0,0.0,0.0,0.0,0.0,0.0,0.0,0.0,0.0,0.0,0.0,0.0,0.0,0.0,0.0,0.0,0.0,0.0,0.0,0.0,0.0,0.0,0.0,0.0,0.0,0.0,5.1555,5.4414,5.5243,5.3906,5.071,4.5887,0.0,0.0,0.0,0.0,0.0,0.0,0.0,0.0,0.0,0.0,0.0,0.0,0.0,0.0,0.0,0.0,0.0,0.0,0.0,0.0,0.0,0.0,0.0,0.0,0.0,0.0,0.0,0.0,0.0,0.0,0.0,0.0,0.0,0.0,0.0,0.0,0.0,0.0,0.0,0.0,0.0,0.0,0.0,0.0,0.0,0.0,0.0,0.0,0.0,0.0,0.0,0.0,0.0,0.0,0.0,0.0,0.0,0.0,0.0,0.0,0.0,0.0,0.0,0.0,0.0,0.0,0.0,0.0,0.0,0.0,0.0,0.0,0.0,0.0,0.0,0.0,0.0,0.0,0.0,0.0,0.0,0.0,0.0,0.0,0.0,0.0,0.0,0.0,0.0,0.0,0.0,0.0,0.0,0.0,0.0,0.0,0.0,0.0,0.0,0.0,0.0,0.0,0.0,0.0,0.0,0.0,0.0,0.0,4.9135,5.3687,5.7408,5.8457,5.6664,5.301,4.7748,0.0,0.0,0.0,0.0,0.0,0.0,0.0,0.0,0.0,0.0,0.0,0.0,0.0,0.0,0.0,0.0,0.0,0.0,0.0,0.0,0.0,0.0,0.0,0.0,0.0,0.0,0.0,0.0,0.0,0.0,0.0,0.0,0.0,0.0,0.0,0.0,0.0,0.0,0.0,0.0,0.0,0.0,0.0,0.0,0.0,0.0,0.0,0.0,0.0,0.0,0.0,0.0,0.0,0.0,0.0,0.0,0.0,0.0,0.0,0.0,0.0,0.0,0.0,0.0,0.0,0.0,0.0,0.0,0.0,0.0,0.0,0.0,0.0,0.0,0.0,0.0,0.0,0.0,0.0,0.0,0.0,0.0,0.0,0.0,0.0,0.0,0.0,0.0,0.0,0.0,0.0,0.0,0.0,0.0,0.0,0.0,0.0,0.0,0.0,0.0,0.0,0.0,0.0,0.0,0.0,0.0,0.0,0.0,5.2029,5.5767,5.9404,6.025,5.8035,5.4448,4.9034,0.0,0.0,0.0,0.0,0.0,0.0,0.0,0.0,0.0,0.0,0.0,0.0,0.0,0.0,0.0,0.0,0.0,0.0,0.0,0.0,0.0,0.0,0.0,0.0,0.0,0.0,0.0,0.0,0.0,0.0,0.0,0.0,0.0,0.0,0.0,0.0,0.0,0.0,0.0,0.0,0.0,0.0,0.0,0.0,0.0,0.0,0.0,0.0,0.0,0.0,0.0,0.0,0.0,0.0,0.0,0.0,0.0,0.0,0.0,0.0,0.0,0.0,0.0,0.0,0.0,0.0,0.0,0.0,0.0,0.0,0.0,0.0,0.0,0.0,0.0,0.0,0.0,0.0,0.0,0.0,0.0,0.0,0.0,0.0,0.0,0.0,0.0,0.0,0.0,0.0,0.0,0.0,0.0,0.0,0.0,0.0,0.0,0.0,0.0,0.0,0.0,0.0,0.0,0.0,0.0,0.0,0.0,0.0,5.279,5.6477,5.9674,6.0467,5.8776,5.5192,5.0033,0.0,0.0,0.0,0.0,0.0,0.0,0.0,0.0,0.0,0.0,0.0,0.0,0.0,0.0,0.0,0.0,0.0,0.0,0.0,0.0,0.0,0.0,0.0,0.0,0.0,0.0,0.0,0.0,0.0,0.0,0.0,0.0,0.0,0.0,0.0,0.0,0.0,0.0,0.0,0.0,0.0,0.0,0.0,0.0,0.0,0.0,0.0,0.0,2.8158,0.0,0.0,0.0,0.0,0.0,0.0,0.0,0.0,0.0,0.0,0.0,0.0,0.0,0.0,0.0,0.0,0.0,0.0,0.0,0.0,0.0,0.0,0.0,0.0,0.0,0.0,0.0,0.0,0.0,0.0,0.0,0.0,0.0,0.0,0.0,0.0,0.0,0.0,0.0,0.0,0.0,0.0,0.0,0.0,0.0,0.0,0.0,0.0,0.0,0.0,0.0,0.0,0.0,0.0,0.0,0.0,0.0,0.0,0.0,5.4431,5.7762,6.0452,6.0926,5.8979,5.5784,5.0845,0.0,0.0,0.0,0.0,0.0,0.0,0.0,0.0,0.0,0.0,0.0,0.0,0.0,0.0,0.0,0.0,0.0,0.0,0.0,0.0,0.0,0.0,0.0,0.0,0.0,0.0,0.0,0.0,0.0,0.0,0.0,0.0,0.0,0.0,0.0,0.0,0.0,0.0,0.0,0.0,0.0,0.0,0.0,0.0,0.0,0.0,0.0,0.0,0.0,0.0,0.0,0.0,0.0,0.0,0.0,0.0,0.0,0.0,0.0,0.0,0.0,0.0,0.0,0.0,0.0,0.0,0.0,0.0,0.0,0.0,0.0,0.0,0.0,0.0,0.0,0.0,0.0,0.0,0.0,0.0,0.0,0.0,0.0,0.0,0.0,0.0,0.0,0.0,0.0,0.0,0.0,0.0,0.0,0.0,0.0,0.0,0.0,0.0,0.0,0.0,0.0,0.0,0.0,0.0,0.0,0.0,0.0,5.1436,5.6122,5.8912,6.1231,6.1366,5.9216,5.6292,5.1657,4.5094,0.0,0.0,0.0,0.0,0.0,0.0,0.0,0.0,0.0,0.0,0.0,0.0,0.0,0.0,0.0,0.0,0.0,0.0,0.0,0.0,0.0,0.0,0.0,0.0,0.0,0.0,0.0,0.0,0.0,0.0,0.0,0.0,0.0,0.0,0.0,0.0,0.0,0.0,2.7418,2.8923,0.0,0.0,0.0,0.0,0.0,0.0,0.0,0.0,2.9967,0.0,0.0,0.0,0.0,0.0,0.0,0.0,0.0,0.0,0.0,0.0,0.0,0.0,0.0,0.0,0.0,0.0,0.0,0.0,0.0,0.0,0.0,0.0,0.0,0.0,0.0,0.0,0.0,0.0,0.0,0.0,0.0,0.0,0.0,0.0,0.0,0.0,0.0,0.0,0.0,0.0,0.0,0.0,0.0,0.0,0.0,0.0,0.0,0.0,0.0,0.0,0.0,0.0,0.0,0.0,0.0,4.6428,5.2435,5.6646,5.8979,6.1231,6.1603,5.9911,5.7052,5.2672,4.665,0.0,0.0,0.0,0.0,0.0,0.0,0.0,0.0,0.0,0.0,0.0,0.0,0.0,0.0,0.0,0.0,0.0,0.0,0.0,0.0,0.0,0.0,0.0,0.0,0.0,0.0,0.0,0.0,0.0,0.0,0.0,0.0,0.0,0.0,0.0,0.0,0.0,0.0,0.0,3.0117,3.1182,0.0,0.0,0.0,0.0,0.0,0.0,0.0,0.0,3.1152,0.0,0.0,0.0,0.0,0.0,0.0,0.0,0.0,0.0,0.0,0.0,0.0,0.0,0.0,0.0,0.0,0.0,0.0,0.0,0.0,0.0,0.0,0.0,0.0,0.0,0.0,0.0,0.0,0.0,0.0,0.0,0.0,0.0,0.0,0.0,0.0,0.0,0.0,0.0,0.0,0.0,0.0,0.0,0.0,0.0,0.0,0.0,0.0,0.0,0.0,0.0,0.0,0.0,0.0,0.0,4.8443,5.3619,5.7543,6.0095,6.1637,6.167,6.0114,5.7221,5.2909,0.0,0.0,0.0,0.0,0.0,0.0,0.0,0.0,0.0,0.0,0.0,0.0,0.0,0.0,0.0,0.0,0.0,0.0,0.0,0.0,0.0,0.0,0.0,0.0,0.0,0.0,0.0,0.0,0.0,0.0,0.0,0.0,0.0,0.0,0.0,0.0,0.0,0.0,0.0,0.0,3.1427,3.2677,3.3006,0.0,0.0,0.0,0.0,0.0,0.0,3.3238,3.2524,0.0,0.0,0.0,0.0,0.0,0.0,0.0,0.0,0.0,0.0,0.0,0.0,0.0,0.0,0.0,0.0,0.0,0.0,0.0,0.0,0.0,0.0,0.0,0.0,0.0,0.0,0.0,0.0,0.0,0.0,0.0,0.0,0.0,0.0,0.0,0.0,0.0,0.0,0.0,0.0,0.0,0.0,0.0,0.0,0.0,0.0,0.0,0.0,0.0,0.0,0.0,0.0,0.0,0.0,0.0,5.0202,5.4735,5.8423,6.1197,6.2009,6.167,6.0114,5.7239,5.296,0.0,0.0,0.0,0.0,0.0,0.0,0.0,0.0,0.0,0.0,0.0,0.0,0.0,0.0,0.0,0.0,0.0,0.0,0.0,0.0,0.0,0.0,0.0,0.0,0.0,0.0,0.0,0.0,0.0,0.0,0.0,0.0,0.0,0.0,0.0,0.0,0.0,0.0,0.0,0.0,0.0,3.4039,3.4937,3.5639,0.0,0.0,0.0,0.0,3.5866,3.5019,0.0,0.0,0.0,0.0,0.0,0.0,0.0,0.0,0.0,0.0,0.0,0.0,0.0,0.0,0.0,0.0,0.0,0.0,0.0,0.0,0.0,0.0,0.0,0.0,0.0,0.0,0.0,0.0,0.0,0.0,0.0,0.0,0.0,0.0,0.0,0.0,0.0,0.0,0.0,0.0,0.0,0.0,0.0,0.0,0.0,0.0,0.0,0.0,0.0,0.0,0.0,0.0,0.0,0.0,0.0,0.0,5.0964,5.5513,5.8896,6.1197,6.2009,6.1656,6.0114,5.7255,5.3196,0.0,0.0,0.0,0.0,0.0,0.0,0.0,0.0,0.0,0.0,0.0,0.0,0.0,0.0,0.0,0.0,0.0,0.0,0.0,0.0,0.0,0.0,0.0,0.0,0.0,0.0,0.0,0.0,0.0,0.0,0.0,0.0,0.0,0.0,0.0,0.0,0.0,0.0,0.0,0.0,0.0,3.5027,3.6806,3.7614,3.822,0.0,0.0,0.0,3.808,3.6996,0.0,0.0,0.0,0.0,0.0,0.0,0.0,0.0,0.0,0.0,0.0,0.0,0.0,0.0,0.0,0.0,0.0,0.0,0.0,0.0,0.0,0.0,0.0,0.0,0.0,0.0,0.0,0.0,0.0,0.0,0.0,0.0,0.0,0.0,0.0,0.0,0.0,0.0,0.0,0.0,0.0,0.0,0.0,0.0,0.0,0.0,0.0,0.0,0.0,0.0,0.0,0.0,0.0,0.0,0.0,4.6109,5.2351,5.6055,5.9201,6.1806,6.2212,6.167,6.0148,5.7679,5.367,0.0,0.0,0.0,0.0,0.0,0.0,0.0,0.0,0.0,0.0,0.0,0.0,0.0,0.0,0.0,0.0,0.0,0.0,0.0,0.0,0.0,0.0,0.0,0.0,0.0,0.0,0.0,0.0,0.0,0.0,0.0,0.0,0.0,0.0,0.0,0.0,0.0,0.0,0.0,0.0,0.0,0.0,3.8162,3.9556,0.0,0.0,0.0,4.0419,4.0032,0.0,0.0,0.0,0.0,0.0,0.0,0.0,0.0,0.0,0.0,0.0,0.0,0.0,0.0,0.0,0.0,0.0,0.0,0.0,0.0,0.0,0.0,0.0,0.0,0.0,0.0,0.0,0.0,0.0,0.0,0.0,0.0,0.0,0.0,0.0,0.0,0.0,0.0,0.0,0.0,0.0,0.0,0.0,0.0,0.0,0.0,0.0,0.0,0.0,0.0,0.0,0.0,0.0,0.0,0.0,0.0,0.0,5.3382,5.634,5.9363,6.2437,6.231,6.1649,6.0502,5.8005,0.0,0.0,0.0,0.0,0.0,0.0,0.0,0.0,0.0,0.0,0.0,0.0,0.0,0.0,0.0,0.0,0.0,0.0,0.0,0.0,0.0,0.0,0.0,0.0,0.0,0.0,0.0,0.0,0.0,0.0,0.0,0.0,0.0,0.0,0.0,0.0,0.0,0.0,0.0,0.0,0.0,0.0,3.8026,3.9428,4.1213,4.2195,0.0,0.0,4.176,4.1396,3.9992,3.8546,0.0,0.0,0.0,0.0,0.0,0.0,0.0,0.0,0.0,0.0,0.0,0.0,0.0,0.0,0.0,0.0,0.0,0.0,0.0,0.0,0.0,0.0,0.0,0.0,0.0,0.0,0.0,0.0,0.0,0.0,0.0,0.0,0.0,0.0,0.0,0.0,0.0,0.0,0.0,0.0,0.0,0.0,0.0,0.0,0.0,0.0,0.0,0.0,0.0,0.0,0.0,0.0,0.0,0.0,0.0,5.3298,5.623,5.9405,6.2872,6.2186,6.1716,6.1528,5.8112,5.4461,0.0,0.0,0.0,0.0,0.0,0.0,0.0,0.0,0.0,0.0,0.0,0.0,0.0,0.0,0.0,0.0,0.0,0.0,0.0,0.0,0.0,0.0,0.0,0.0,0.0,0.0,0.0,0.0,0.0,0.0,0.0,0.0,0.0,0.0,0.0,0.0,0.0,0.0,0.0,0.0,0.0,3.8598,4.0822,4.2342,4.3164,0.0,0.0,4.2469,4.1771,4.0458,3.9251,3.8363,0.0,0.0,0.0,0.0,0.0,0.0,0.0,0.0,0.0,0.0,0.0,0.0,0.0,0.0,0.0,0.0,0.0,0.0,0.0,0.0,0.0,0.0,0.0,0.0,0.0,0.0,0.0,0.0,0.0,0.0,0.0,0.0,0.0,0.0,0.0,0.0,0.0,0.0,0.0,0.0,0.0,0.0,0.0,0.0,0.0,0.0,0.0,0.0,0.0,0.0,0.0,0.0,0.0,4.772,5.3921,5.714,6.0021,6.2544,6.2762,6.2262,6.1061,5.882,5.5686,0.0,0.0,0.0,0.0,0.0,0.0,0.0,0.0,0.0,0.0,0.0,0.0,0.0,0.0,0.0,0.0,0.0,0.0,0.0,0.0,0.0,0.0,0.0,0.0,0.0,0.0,0.0,0.0,2.8606,2.9013,2.8705,0.0,0.0,0.0,0.0,0.0,0.0,0.0,0.0,0.0,0.0,3.9944,4.2092,4.34,0.0,0.0,4.4042,4.375,4.262,4.1579,4.0351,3.8819,3.7496,0.0,0.0,0.0,0.0,0.0,0.0,0.0,0.0,0.0,0.0,0.0,0.0,0.0,0.0,0.0,0.0,0.0,0.0,0.0,0.0,0.0,0.0,0.0,0.0,0.0,0.0,0.0,0.0,0.0,0.0,0.0,0.0,0.0,0.0,0.0,0.0,0.0,0.0,0.0,0.0,0.0,0.0,0.0,0.0,0.0,0.0,0.0,0.0,0.0,0.0,0.0,0.0,4.8444,5.408,5.7396,6.0189,6.2399,6.2692,6.23,6.1153,5.927,5.6511,0.0,0.0,0.0,0.0,0.0,0.0,0.0,0.0,0.0,0.0,0.0,0.0,0.0,0.0,0.0,0.0,0.0,0.0,0.0,0.0,0.0,0.0,0.0,0.0,0.0,0.0,0.0,0.0,2.98,2.9986,2.9716,0.0,0.0,0.0,0.0,0.0,0.0,0.0,0.0,0.0,0.0,4.1013,4.2969,4.4069,4.4614,4.4376,4.4441,4.4094,4.29,4.1915,4.0803,3.9227,0.0,0.0,0.0,0.0,0.0,0.0,0.0,0.0,0.0,0.0,0.0,0.0,0.0,0.0,0.0,0.0,0.0,0.0,0.0,0.0,0.0,0.0,0.0,0.0,0.0,0.0,0.0,0.0,0.0,0.0,0.0,0.0,0.0,0.0,0.0,0.0,0.0,0.0,0.0,0.0,0.0,0.0,0.0,0.0,0.0,0.0,0.0,0.0,0.0,0.0,0.0,0.0,0.0,0.0,5.3687,5.6705,5.957,6.2354,6.1757,6.169,6.2181,5.936,5.672,5.4484,0.0,0.0,0.0,0.0,0.0,0.0,0.0,0.0,0.0,0.0,0.0,0.0,0.0,0.0,0.0,0.0,0.0,0.0,0.0,0.0,0.0,0.0,0.0,0.0,0.0,0.0,3.025,3.0701,3.0937,0.0,0.0,0.0,0.0,0.0,0.0,0.0,0.0,0.0,0.0,3.995,4.1673,4.3263,4.4291,4.4709,4.4284,4.3799,4.315,4.2368,4.131,4.0337,0.0,0.0,0.0,0.0,0.0,0.0,0.0,0.0,0.0,0.0,0.0,0.0,0.0,0.0,0.0,0.0,0.0,0.0,0.0,0.0,0.0,0.0,0.0,0.0,0.0,0.0,0.0,3.5645,3.5554,0.0,0.0,0.0,0.0,0.0,0.0,0.0,0.0,0.0,0.0,0.0,4.5996,4.5881,0.0,0.0,0.0,0.0,0.0,0.0,0.0,0.0,0.0,0.0,0.0,0.0,4.9646,5.4737,5.7521,5.9905,6.1904,6.1958,6.1692,6.1131,5.9519,5.6831,5.3034,0.0,0.0,0.0,0.0,0.0,0.0,0.0,0.0,0.0,0.0,0.0,0.0,0.0,0.0,0.0,0.0,0.0,0.0,0.0,0.0,0.0,0.0,0.0,0.0,0.0,3.196,0.0,0.0,0.0,0.0,0.0,0.0,0.0,0.0,0.0,0.0,0.0,3.7563,4.0189,4.0959,4.1998,4.4012,4.4246,4.4177,0.0,0.0,0.0,0.0,0.0,0.0,0.0,0.0,0.0,0.0,0.0,0.0,0.0,0.0,3.9116,3.6902,3.6488,3.651,3.6592,0.0,0.0,0.0,0.0,0.0,0.0,0.0,0.0,0.0,0.0,0.0,0.0,0.0,0.0,0.0,0.0,3.8415,0.0,0.0,0.0,0.0,0.0,0.0,0.0,0.0,4.6924,4.8742,5.0333,5.0215,5.0224,0.0,4.9559,4.723,0.0,0.0,0.0,0.0,0.0,0.0,0.0,0.0,5.0946,5.5451,5.784,5.9733,6.1228,6.1508,6.1257,6.0493,5.9325,5.697,5.3287,5.0703,4.768,0.0,0.0,0.0,0.0,0.0,0.0,0.0,0.0,0.0,0.0,0.0,0.0,0.0,0.0,0.0,0.0,0.0,0.0,0.0,0.0,0.0,0.0,0.0,3.3804,0.0,0.0,0.0,0.0,0.0,0.0,0.0,0.0,0.0,3.5854,3.7486,3.9382,4.1171,4.1721,4.2507,4.4019,0.0,0.0,0.0,0.0,0.0,0.0,0.0,4.2654,4.1532,4.1942,4.2379,4.22,4.2641,4.303,4.3233,0.0,0.0,4.0173,3.9779,3.9933,4.0005,4.086,4.1537,4.1537,4.2164,4.2995,0.0,0.0,0.0,0.0,0.0,0.0,0.0,0.0,4.4292,4.4326,0.0,4.2745,0.0,0.0,0.0,0.0,0.0,0.0,0.0,0.0,5.1616,5.3316,5.4305,5.555,5.5787,5.4958,5.4181,5.3195,5.1621,4.7261,0.0,0.0,0.0,0.0,0.0,0.0,5.252,5.5665,5.7534,5.9058,6.0428,6.0399,6.0377,6.032,5.8784,5.7092,5.5304,5.3668,5.1395,4.825,4.5865,0.0,0.0,0.0,0.0,0.0,0.0,0.0,0.0,0.0,0.0,0.0,0.0,0.0,0.0,0.0,0.0,0.0,0.0,0.0,0.0,3.5146,0.0,0.0,0.0,0.0,0.0,0.0,0.0,0.0,0.0,0.0,3.7827,3.9229,4.0541,4.1063,0.0,0.0,0.0,0.0,4.4715,4.474,4.4973,4.4929,4.4421,4.4118,4.3714,4.3215,0.0,0.0,4.4665,4.474,4.4995,4.5522,4.608,4.572,4.36,4.353,4.3785,4.3811,4.4273,4.4709,4.4761,4.517,4.5911,5.0994,0.0,0.0,0.0,0.0,4.8203,4.8838,4.9508,4.9893,5.0075,4.9959,4.815,0.0,0.0,0.0,0.0,0.0,0.0,5.1061,5.2446,5.436,5.5564,5.6116,5.638,5.6355,5.6099,5.5913,5.5387,5.449,5.3144,5.0398,4.645,0.0,0.0,0.0,0.0,5.3528,5.6497,5.7733,5.8929,6.0097,5.9891,5.9663,5.9476,5.8557,5.7647,5.6849,5.5467,5.3584,5.1102,4.895,0.0,0.0,0.0,0.0,0.0,0.0,0.0,0.0,0.0,0.0,0.0,0.0,0.0,0.0,0.0,0.0,0.0,0.0,0.0,3.7425,3.834,3.8222,0.0,0.0,0.0,0.0,0.0,0.0,0.0,0.0,0.0,4.1656,4.1697,4.2194,0.0,0.0,4.3583,4.4497,4.4621,4.4774,4.5207,0.0,0.0,0.0,4.5657,4.5547,4.5372,4.6125,4.7054,4.8008,4.8159,4.8209,4.8385,4.883,4.8969,4.8391,4.7369,4.6763,4.6738,4.7197,4.7576,4.7626,4.803,4.8611,5.6464,5.3778,5.1775,5.1408,5.2199,5.2664,5.3407,5.4309,5.4515,5.4618,5.4481,5.2845,5.2002,5.1778,5.0487,0.0,0.0,0.0,5.4402,5.5268,5.7043,5.8079,5.8475,5.8629,5.8701,5.8701,5.84,5.8089,5.7692,5.7173,5.5345,5.2268,0.0,0.0,5.1504,5.2909,5.4792,5.7045,5.7958,5.8867,5.977,5.9476,5.9261,5.9099,5.871,5.8255,5.7753,5.7075,5.5595,5.3199,5.1782,4.9226,0.0,0.0,0.0,0.0,0.0,0.0,0.0,0.0,0.0,0.0,0.0,2.9559,0.0,0.0,0.0,0.0,3.7409,3.9259,4.092,4.1449,0.0,0.0,0.0,0.0,0.0,0.0,0.0,4.1737,4.2886,4.3756,4.409,4.3929,4.3946,4.4442,4.4438,4.4694,4.5464,0.0,4.5794,4.6376,4.6657,4.6979,4.7531,4.7606,4.7682,4.7877,4.846,4.9188,5.0067,5.0419,5.0594,5.067,5.1197,5.1724,5.1724,5.1046,5.0293,4.9741,5.0017,5.0393,5.0419,5.0695,5.1071,6.1228,6.0696,5.7077,5.6007,5.6685,5.6764,5.7465,5.857,5.8341,5.8246,5.8139,5.6841,5.6102,5.58,5.518,0.0,0.0,5.6493,5.7389,5.7812,5.9565,6.0578,6.094,6.1516,6.1849,6.1789,6.1213,6.091,6.0819,5.9668,5.8889,5.841,5.5695,5.4051,5.3641,5.503,5.6292,5.7409,5.8205,5.8934,5.9536,5.9324,5.9159,5.9099,5.9099,5.883,5.8205,5.8414,5.7342,5.4868,5.4286,5.2281,4.8373,0.0,0.0,0.0,0.0,0.0,0.0,0.0,0.0,0.0,0.0,0.0,0.0,0.0,0.0,0.0,4.1573,0.0,4.4134,4.4371,0.0,0.0,0.0,4.2562,4.1886,4.2403,4.3068,4.3753,0.0,0.0,0.0,0.0,4.5956,4.5501,4.5779,4.6176,4.6456,4.6979,4.7475,4.8033,4.856,4.9145,4.9615,4.9816,5.0042,5.0519,5.0637,5.0921,5.1532,5.195,5.2277,5.2302,5.3105,5.3733,5.3758,5.4059,5.4245,5.2678,5.2703,5.297,5.2895,5.3005,5.3196,6.3809,6.3666,6.2484,6.1273,6.0247,6.0576,6.1217,6.2008,6.1888,6.1833,6.1699,6.0075,5.8799,5.7903,5.8035,5.8076,5.8143,5.9387,5.9887,5.986,6.0775,6.1185,6.1059,6.1209,6.1299,6.1269,6.1149,6.1059,6.1059,6.0759,6.0385,5.9932,5.8557,5.736,5.6396,5.6818,5.7418,5.8209,5.9218,5.9807,5.9956,5.9874,5.9608,5.9129,5.9099,5.9039,5.886,5.8913,5.8191,5.6543,5.596,5.4065,5.0589,4.7919,0.0,0.0,0.0,0.0,0.0,0.0,0.0,0.0,0.0,3.4686,3.7066,0.0,3.9547,0.0,4.4739,4.6189,4.5805,4.6442,0.0,0.0,4.4759,4.4761,4.4431,4.4916,4.5506,4.5931,4.6502,4.7061,4.7597,4.7935,4.8385,4.8982,4.8127,4.7624,4.814,4.8661,4.9213,4.9715,4.9967,5.0368,5.1322,5.1875,5.2277,5.2829,5.2904,5.313,5.3718,5.3919,5.4019,5.4019,5.4195,5.4396,5.4446,5.5139,5.5641,5.5265,5.4687,5.422,5.422,5.4511,5.4963,6.5497,6.5552,6.5231,6.4787,6.4263,6.3391,6.3353,6.3918,6.3521,6.3299,6.328,6.2193,6.1269,6.0573,6.092,6.1119,6.118,6.1959,6.2216,6.2136,6.2767,6.2983,6.2841,6.2841,6.2841,6.2811,6.2811,6.2811,6.2811,6.2512,6.2147,6.1655,6.0828,5.9945,5.8991,5.8185,5.8113,5.8744,5.9959,6.0386,6.0114,6.0114,5.9787,5.9129,5.9099,5.9099,5.9099,5.8803,5.8201,5.7154,5.6521,5.5114,5.2641,5.0308,4.7848,0.0,0.0,0.0,0.0,0.0,0.0,0.0,0.0,0.0,0.0,0.0,4.3797,0.0,4.7838,0.0,4.804,4.8672,4.8566,4.7157,4.6921,4.694,4.7088,4.7134,4.7419,4.8119,4.8384,4.8686,4.921,4.941,4.9916,5.1021,5.0569,5.0067,4.9999,5.0368,5.0896,5.1389,5.1716,5.2176,5.308,5.3457,5.3758,5.4009,5.4084,5.4245,5.4547,5.5024,5.529,5.5351,5.5691,5.6079,5.6104,5.6495,5.6947,5.6872,5.6495,5.6093,5.6043,5.6294,5.662,6.6773,6.6901,6.6537,6.7011,6.7806,6.544,6.4717,6.5185,6.4329,6.3933,6.3831,6.366,6.3406,6.3187,6.3537,6.3693,6.3695,6.4004,6.4126,6.4186,6.4725,6.4994,6.4994,6.4994,6.4994,6.4994,6.4994,6.4994,6.4964,6.4425,6.3857,6.3347,6.266,6.2061,6.1405,5.964,5.8979,5.9488,6.0655,6.0954,6.0383,6.0326,5.9997,5.9279,5.9249,5.9189,5.9099,5.8534,5.7905,5.7274,5.6761,5.5837,5.4521,5.2611,5.078,0.0,4.6381,0.0,0.0,0.0,0.0,0.0,0.0,0.0,0.0,4.6373,4.8401,4.9633,5.0633,5.0953,5.038,5.0685,5.0561,4.9674,4.9171,4.9024,4.944,4.9059,4.9172,5.0166,5.001,5.0042,5.0645,5.0712,5.1147,5.2251,5.2754,5.2628,5.1975,5.2126,5.2578,5.308,5.3582,5.4009,5.4587,5.4838,5.4999,5.5024,5.515,5.5024,5.515,5.5817,5.642,5.6495,5.7148,5.7775,5.7901,5.7901,5.7976,5.7951,5.7976,5.7951,5.7775,5.7826,5.8027,6.8208,6.8201,6.7629,6.7571,6.7617,6.6483,6.6412,6.7117,6.6229,6.5609,6.515,6.5097,6.4896,6.4633,6.4694,6.4724,6.4724,6.4784,6.4815,6.4815,6.4934,6.4994,6.4994,6.4994,6.4994,6.4994,6.4994,6.4994,6.4994,6.4874,6.4755,6.4605,6.3977,6.3588,6.3408,0.0,0.0,0.0,6.1792,6.1852,6.1702,6.1702,6.1134,5.9994,5.9907,0.0,5.9129,5.8979,5.862,5.7935,5.7786,0.0,0.0,0.0,0.0,0.0,0.0,0.0,0.0,0.0,0.0,0.0,5.0311,4.9836,4.8001,4.9769,5.1157,5.1504,5.1957,5.21,5.1757,5.1544,5.1356,5.1163,5.0981,5.0799,5.062,5.067,5.0869,5.102,5.1004,5.1348,5.2218,5.2418,5.2854,5.3893,5.422,5.422,5.4019,5.4019,5.417,5.4321,5.4762,5.5265,5.5817,5.6244,5.662,5.7097,5.7273,5.7198,5.7173,5.7323,5.7575,5.7575,5.775,5.7926,5.7926,5.8252,5.8554,5.8554,5.888,5.893,5.8102,5.8278,5.8704,6.7999,0.0,6.7722,6.7736,0.0,6.7262,6.7203,6.7491,6.6444,6.5703,6.5291,6.5622,6.5652,6.5533,6.5862,6.6011,6.5981,6.5981,6.6011,6.5981,6.5981,6.5981,6.5951,6.5981,6.5981,6.6011,6.6011,6.6011,6.6011,6.6011,6.5832,6.5473,6.5473,6.5323,6.4994,6.4994,6.4366,6.3049,6.3378,6.3378,6.3049,6.275,6.2091,6.1134,0.0,0.0,0.0,0.0,0.0,0.0,0.0,0.0,0.0,0.0,0.0,5.5149,5.3593,5.2767,5.2919,5.2656,5.2818,5.3638,5.422,5.3879,5.2297,5.2794,5.3263,5.3607,5.3494,5.3166,5.2564,5.2297,5.205,5.1756,5.1651,5.1649,5.1841,5.2001,5.2302,5.2838,5.2939,5.3165,5.3658,5.3733,5.4059,5.4848,5.5024,5.5225,5.5616,5.5351,5.5175,5.5691,5.6269,5.6721,5.6997,5.7248,5.7487,5.7826,5.7901,5.7901,5.7901,5.8127,5.8303,5.8328,5.8504,5.8679,5.8704,5.893,5.9106,5.9156,5.9533,5.9759,5.9182,5.9307,5.9583,6.7504,6.7825,6.7563,6.7751,6.8209,6.7638,6.7426,6.7336,0.0,0.0,0.0,6.5951,6.6191,6.6221,6.6759,6.6999,6.6999,6.6999,6.7089,6.7148,6.7148,6.7238,6.7358,6.7358,6.7268,6.7178,6.7298,6.7268,6.7178,6.7268,6.7089,6.664,6.7089,6.7089,6.661,6.7089,6.652,6.4994,6.5174,6.5024,6.4366,6.3857,6.3257,6.245,6.1912,6.1583,6.1463,6.0924,6.0623,6.0623,6.0086,5.9787,5.9787,5.9162,5.8803,5.8743,5.764,5.709,5.736,5.6752,5.6525,5.6837,5.6509,5.6137,5.583,5.5022,5.4741,5.5164,5.4603,5.3931,5.3223,5.3023,5.2763,5.2403,5.2328,5.2565,5.3115,5.3206,5.3532,5.4421,5.4496,5.4647,5.4697,5.4723,5.4999,5.5516,5.5717,5.6018,5.6759,5.642,5.6219,5.691,5.7399,5.7851,5.8027,5.8027,5.8077,5.8252,5.8227,5.8177,5.8252,5.8554,5.883,5.8817,5.9232,5.9408,5.9483,5.9458,5.9533,5.9633,5.9985,6.0322,6.0462,6.0537,6.0613,6.7906,6.7938,6.7608,6.7548,6.7578,6.7243,6.706,6.7091,6.6881,6.673,6.6729,6.6819,6.6849,6.6849,6.6939,6.6999,6.6999,6.6999,6.7298,0.0,6.7868,6.8136,6.8704,6.8734,6.8405,6.7958,6.8435,6.8405,6.7987,6.8435,6.8675,6.8585,6.8675,6.8645,6.8585,6.8675,6.8585,6.8286,6.7238,6.64,6.5742,6.5652,6.4994,6.3797,6.3647,6.3348,6.2838,6.2748,6.2689,6.2689,6.2599,6.251,6.2539,6.1882,6.1523,6.1493,6.0553,5.9999,6.0032,5.9437,5.861,5.7616,5.6775,5.6222,5.6146,5.5559,5.5086,5.482,5.4277,5.4024,5.4185,5.3715,5.3682,5.4407,5.434,5.423,5.4346,5.4371,5.4471,5.4697,5.4597,5.4873,5.529,5.5376,5.5742,5.6545,5.6759,5.701,5.7549,5.765,5.76,5.775,5.7851,5.8102,5.8478,5.8604,5.8755,5.9207,5.9207,5.9156,5.9131,5.9232,5.9332,5.9357,5.9433,5.9483,5.9508,5.9508,5.9709,6.006,6.0286,6.0537,6.0964,6.1391,6.1718,6.7457,6.7457,6.7304,6.7243,6.7213,6.706,6.6999,6.6999,6.6999,6.6999,6.6999,6.6999,6.6999,6.6999,6.6999,6.7178,6.7538,6.7538,6.7897,6.8495,6.8525,6.8675,6.8974,6.9004,6.8824,6.8555,6.8824,6.8854,6.8585,6.8854,6.9004,6.9034,6.9333,6.9692,7.0021,7.0021,7.0021,6.9991,6.8734,6.7926,6.7657,6.7268,6.6759,6.6161,6.5832,6.5503,6.5233,6.5233,6.5203,6.5233,6.4874,6.4665,6.4635,6.4036,6.359,6.3384,6.2824,6.2204,6.1669,6.0492,5.9258,5.8122,5.7476,5.685,5.6229,5.59,5.5676,5.5743,5.5177,5.4746,5.4799,5.4366,5.4254,5.4759,5.4703,5.4723,5.4988,5.529,5.5591,5.5867,5.6194,5.647,5.6721,5.6746,5.6872,5.7449,5.7725,5.8014,5.8303,5.8579,5.8629,5.8428,5.8579,5.8855,5.9081,5.9131,5.9257,5.9458,5.9483,5.9508,5.9508,5.9508,5.9508,5.9508,5.9508,5.9508,5.9508,5.9759,6.0035,6.0222,6.0849,6.1316,6.1642,6.2069,6.2421,6.6999,6.6999,6.6999,6.7119,6.7269,6.7388,6.7448,6.7448,6.7448,6.7448,6.7418,6.7268,6.7239,6.7269,6.7358,6.7748,6.8197,6.8227,6.8555,6.9183,6.9213,6.9273,6.9423,6.9423,6.9363,6.9273,6.9363,6.9363,6.9243,6.9363,6.9423,6.9482,6.9931,7.044,7.0889,7.0919,7.0919,7.0859,7.0081,6.9512,6.9213,6.8736,6.8377,6.8197,6.7717,6.7448,6.7448,6.7448,6.7448,6.7418,6.6969,6.67,6.667,6.61,6.565,6.5376,6.4826,6.3929,6.2583,6.0928,5.947,5.8328,5.7773,5.7064,5.6253,5.6042,5.6052,5.6228,5.5734,5.5347,5.5148,5.495,5.4873,5.5099,5.515,5.544,5.5892,5.6344,5.6746,5.7161,5.7625,5.7851,5.7901,5.7901,5.7926,5.8077,5.8554,5.888,5.8956,5.9257,5.9282,5.9106,5.9232,5.9433,5.9508,5.9483,5.9483,5.9508,5.9508,5.9508,5.9508,5.9583,5.9684,5.9734,5.9859,5.996,5.996,6.0211,6.0563,6.0814,6.1416,6.1969,6.2169,6.2374,6.2634,6.7029,6.6999,6.7059,6.7328,6.7958,6.8525,6.8764,6.8764,6.8794,6.8824,6.8675,6.8197,6.7928,6.8017,6.8525,6.8794,6.8914,6.8914,6.9273,6.9842,6.9901,7.0171,7.062,7.0709,7.044,7.0053,7.041,7.035,6.9963,7.044,7.0709,7.0739,7.0799,7.0889,7.0919,7.0949,7.0919,7.0919,7.1368,7.1101,6.9993,6.9812,6.9544,6.8914,6.8854,6.8824,6.8914,6.8824,6.8824,6.8824,6.8764,6.8734,6.8673,6.83,6.805,6.7925,6.674,6.5094,6.2758,6.1015,5.9506,5.8215,5.7129,5.6346,5.6015,5.5964,5.572,5.5496,5.5273,5.5315,5.5347,5.5401,5.5792,5.657,5.6659,5.7022,5.7449,5.77,5.7775,5.7801,5.7926,5.7901,5.8027,5.8027,5.8177,5.8604,5.9031,5.9332,5.9357,5.9408,5.9483,5.9408,5.9508,5.9508,5.9508,5.9508,5.9583,5.9558,5.9533,5.9633,5.9759,5.9985,6.0236,6.0286,6.0613,6.0839,6.0889,6.1115,6.1266,6.1517,6.1893,6.2129,6.2515,6.2511,6.2331,6.8166,6.8196,6.8166,6.8315,6.8615,6.8884,6.9004,6.9004,6.9004,6.9004,6.9034,6.9093,6.8975,6.8615,6.8884,6.9213,6.9572,6.9572,6.9931,7.05,7.053,7.0679,7.0889,7.0919,7.0739,7.056,7.0799,7.0769,7.0679,7.1188,7.1697,7.2056,7.2086,7.2086,7.2116,7.2086,7.2086,7.2116,7.2355,7.2235,7.1787,7.1727,7.1607,7.1368,7.1308,7.1308,7.1308,7.1308,7.1308,7.1278,7.0919,7.0612,7.0417,6.9511,6.8711,6.7998,6.5931,6.3853,6.1972,6.0776,5.9601,5.8383,5.7789,5.739,5.7116,5.7068,5.6967,5.6765,5.6463,5.639,5.6783,5.6872,5.7072,5.7474,5.7549,5.765,5.7851,5.8202,5.8378,5.8403,5.8654,5.883,5.8855,5.883,5.893,5.9156,5.9382,5.9483,5.9508,5.9508,5.9508,5.9494,5.9565,5.9576,5.9556,5.9784,5.9896,5.9996,6.0286,6.0487,6.0448,6.0613,6.0839,6.0799,6.105,6.1201,6.1115,6.1492,6.1768,6.2029,6.2305,6.249,6.247,6.229,6.2043,6.9004,6.9034,6.9183,6.9273,6.9273,6.9453,6.9512,6.9512,6.9542,6.9542,6.9572,7.0021,6.9991,6.9572,6.9512,6.9782,7.0201,7.0231,7.047,7.0889,7.0919,7.0919,7.0919,7.0919,7.0919,7.0919,7.0889,7.1009,7.1218,7.1846,7.2415,7.2864,7.2924,7.2924,7.2924,7.2924,7.2924,7.2924,7.3073,7.3193,7.3193,7.3373,7.3283,7.2984,7.2924,7.2924,7.2924,7.2924,7.2924,7.2894,7.2315,7.1911,7.1615,7.0426,6.9099,6.765,6.5425,6.3442,6.203,6.0849,5.9805,5.8957,5.8528,5.8139,5.7939,5.7901,5.7976,5.8052,5.7713,5.7625,5.7801,5.7901,5.7951,5.8077,5.8127,5.8202,5.8579,5.8917,5.9182,5.9168,5.9483,5.9633,5.9533,5.9458,5.9433,5.9458,5.9483,5.9508,5.9533,5.9556,5.9565,5.9565,5.9543,5.9563,5.9598,5.9794,6.0133,6.0218,6.0452,6.0627,6.0856,6.0906,6.1056,6.0815,6.1116,6.1266,6.1319,6.1674,6.183,6.193,6.2154,6.2347,6.2043,6.1919,6.1621,6.9004,6.9123,6.9692,6.9931,6.9991,7.053,7.0769,7.0679,7.0739,7.0769,7.0709,7.0799,7.0829,7.0739,7.0679,7.0799,7.0829,7.0829,7.0829,7.0919,7.0919,7.0919,7.0919,7.0919,7.0919,7.0979,7.1009,7.1308,7.1909,7.2535,7.283,7.2954,7.3013,7.2984,7.3013,7.3043,7.292,7.3103,7.3582,7.3851,7.3911,7.4484,7.4121,7.3133,7.2954,7.3013,7.2984,7.2954,7.2954,7.2954,7.2589,7.2328,7.2163,7.1185,6.9476,6.7374,6.5988,6.4716,6.3316,6.1364,6.0125,5.987,5.8921,5.8014,5.8127,5.8152,5.8303,5.8629,5.8616,5.8504,5.8127,5.8127,5.8252,5.8679,5.873,5.9156,6.0021,6.0046,6.0236,6.0211,6.0236,6.0136,5.9633,5.9508,5.957,5.9595,5.9519,5.957,5.954,5.9605,5.9657,5.9544,5.9441,5.9324,5.9603,5.985,5.9866,5.9989,6.0103,6.0047,6.0105,6.0252,6.0539,6.0785,6.1113,6.131,6.1466,6.1474,6.149,6.1532,6.1606,6.1672,6.1423,6.1091,6.0903,7.0231,7.0231,7.047,7.056,7.059,7.0829,7.0919,7.0919,7.0919,7.0919,7.0919,7.0919,7.0919,7.0919,7.0919,7.0919,7.0919,7.0919,7.0919,7.0919,7.0919,7.0919,7.0919,7.0919,7.1158,7.1487,7.1547,7.2116,7.3103,7.3432,7.3762,7.4121,7.418,7.418,7.4151,7.4151,7.418,7.421,7.442,7.4544,7.451,7.4783,7.4629,7.424,7.418,7.418,7.418,7.418,7.4079,7.3806,7.3639,7.3231,7.2403,7.0543,6.8561,6.6594,6.5297,6.4107,6.2936,6.181,6.1059,6.0798,6.0314,5.9759,5.9533,5.9433,5.9408,5.9332,5.9583,5.9608,5.9458,5.9131,5.9131,5.957,5.9759,6.001,6.0638,6.0864,6.0864,6.0864,6.0864,6.0788,6.0588,6.0563,6.0444,6.0207,6.0143,5.996,5.9692,5.953,5.9348,5.926,5.8827,5.848,5.856,5.9454,5.9976,6.0073,6.0171,6.0308,6.0454,6.0009,6.012,6.0054,6.0535,6.0584,6.05,6.0584,6.0674,6.0841,6.09,6.0799,6.0757,6.0574,6.0501,7.0919,7.0919,7.0919,7.0919,7.0919,7.0919,7.0919,7.0919,7.0919,7.0919,7.0919,7.0919,7.0919,7.0919,7.0919,7.0919,7.0919,7.0919,7.0919,7.0919,7.0919,7.0919,7.0949,7.1128,7.1457,7.1939,7.2388,7.3043,7.3821,7.4121,7.445,7.4873,7.4903,7.4903,7.4903,7.4903,7.4903,7.4903,7.4903,7.4903,7.4903,7.4903,7.4903,7.4869,7.4766,7.4766,7.4869,7.4766,7.4594,7.4318,7.397,7.3099,7.1646,6.9596,6.7664,6.6104,6.4853,6.3766,6.2861,6.2219,6.172,6.1481,6.1266,6.0989,6.0638,6.0613,6.0412,6.0211,6.0337,6.0588,6.0537,6.0261,6.0211,6.0537,6.0613,6.0839,6.1366,6.1441,6.1441,6.1416,6.1266,6.115,6.1031,6.0966,6.0637,6.0181,6.006,5.9859,5.9455,5.9056,5.8824,5.8749,5.805,5.7677,5.7611,5.8165,5.8609,5.8788,5.9016,5.9583,5.9768,5.9407,5.928,5.9322,5.9365,5.9407,5.9491,5.9576,5.966,5.9745,5.9792,5.9647,5.9838,6.019,6.0095,7.0919,7.0919,7.0919,7.0919,7.0919,7.0919,7.0919,7.0919,7.0919,7.0919,7.0919,7.0919,7.0919,7.0919,7.0919,7.0919,7.0919,7.0919,7.0919,7.0919,7.0919,7.0919,7.0949,7.1517,7.1906,7.2146,7.3283,7.3851,7.4001,7.451,7.4873,7.4903,7.4903,7.4903,7.4903,7.4903,7.4903,7.4903,7.4903,7.4903,7.4903,7.4903,7.4869,7.4834,7.4525,7.449,7.4766,7.4456,7.4214,7.404,7.3169,7.1704,6.9942,6.8442,6.718,6.5922,6.4751,6.3962,6.3387,6.2553,6.2059,6.1969,6.1542,6.1341,6.1215,6.1165,6.114,6.1014,6.1115,6.1165,6.119,6.119,6.119,6.119,6.119,6.1416,6.1868,6.2019,6.2019,6.1903,6.1587,6.1041,6.0672,6.062,6.0332,5.9577,5.9308,5.9128,5.8602,5.8201,5.8014,5.7794,5.7135,5.6505,5.6575,5.6709,5.6946,5.7182,5.7438,5.7788,5.7702,5.7507,5.7378,5.7378,5.7378,5.7464,5.7679,5.7745,5.7679,5.7788,5.8049,5.8337,5.8533,5.8814,5.9611,7.0919,7.0919,7.0919,7.0919,7.0919,7.0919,7.0919,7.0919,7.0919,7.0919,7.0919,7.0919,7.0919,7.0919,7.0919,7.0919,7.0919,7.0919,7.0919,7.0919,7.0919,7.0919,7.1038,7.1577,7.2355,7.3283,7.4151,7.4604,7.4599,7.4813,7.4903,7.4903,7.4903,7.4903,7.4903,7.4903,7.4903,7.4903,7.4903,7.4903,7.4903,7.4903,7.4766,7.449,7.4352,7.4144,7.3731,7.3591,7.3275,7.278,7.2107,7.0736,6.8686,6.7234,6.6015,6.4828,6.4094,6.3473,6.3067,6.2778,6.2546,6.2505,6.2395,6.2119,6.1818,6.1743,6.1592,6.1341,6.1517,6.1743,6.1793,6.2119,6.2119,6.1793,6.1768,6.1969,6.2355,6.2505,6.2408,6.2204,6.2014,6.1547,6.0883,6.0677,6.0158,5.9099,5.8914,5.8638,5.7878,5.731,5.6933,5.6635,5.586,5.5225,5.5181,5.5049,5.5005,5.5401,5.5751,5.6057,5.597,5.5707,5.562,5.5488,5.5488,5.5576,5.5795,5.5839,5.5773,5.5947,5.6318,5.6589,5.6839,5.7444,5.8184,7.0919,7.0919,7.0919,7.0919,7.0919,7.0919,7.0919,7.0919,7.0919,7.0919,7.0919,7.0919,7.0919,7.0919,7.0919,7.0919,7.0919,7.0919,7.0919,7.0919,7.0919,7.1009,7.1368,7.2235,7.3163,7.4151,7.4723,7.4903,7.4903,7.4903,7.4903,7.4903,7.4903,7.4903,7.4903,7.4903,7.4903,7.4903,7.4903,7.4903,7.4869,7.4731,7.4559,7.4283,7.3901,7.3381,7.278,7.2244,7.1855,7.1602,7.091,6.9289,6.7311,6.6093,6.4988,6.4054,6.3473,6.3108,6.2822,6.2822,6.2781,6.2781,6.2781,6.2656,6.233,6.232,6.2119,6.1943,6.2094,6.232,6.237,6.2596,6.2606,6.233,6.232,6.2471,6.2731,6.2659,6.2495,6.2183,6.1829,6.1355,6.0808,6.0351,5.9853,5.8858,5.8409,5.7967,5.7072,5.6326,5.5842,5.5292,5.463,5.4143,5.3744,5.3498,5.3185,5.3566,5.4033,5.4409,5.4542,5.4166,5.39,5.3633,5.3589,5.3589,5.3745,5.379,5.379,5.4189,5.4476,5.467,5.4952,5.5881,5.6636,7.0919,7.0919,7.0919,7.0919,7.0919,7.0919,7.0919,7.0919,7.0919,7.0919,7.0919,7.0919,7.0919,7.0919,7.0919,7.0949,7.0979,7.1038,7.1158,7.1188,7.1218,7.1517,7.2206,7.3193,7.4031,7.4723,7.4873,7.4903,7.4903,7.4903,7.4903,7.4903,7.4903,7.4903,7.4903,7.4903,7.4903,7.4903,7.4903,7.4869,7.4834,7.4525,7.4214,7.4075,7.3199,7.2387,7.1776,7.0571,7.0165,7.0764,6.9204,6.7569,6.6132,6.5133,6.428,6.3514,6.3026,6.2863,6.2822,6.2781,6.2781,6.2781,6.2781,6.2781,6.2747,6.2722,6.2697,6.2647,6.2722,6.2756,6.2807,6.2882,6.2882,6.2841,6.27,6.2675,6.275,6.2472,6.2159,6.1993,6.138,6.0604,6.0129,5.9637,5.8892,5.8134,5.7491,5.6822,5.6175,5.5374,5.4573,5.4064,5.369,5.3338,5.3046,5.2581,5.2333,5.2333,5.2581,5.2671,5.294,5.2626,5.2357,5.2086,5.1885,5.184,5.1885,5.2066,5.2111,5.2291,5.2485,5.2608,5.3215,5.4069,5.4881,7.0919,7.0919,7.0919,7.0919,7.0919,7.0919,7.0919,7.0919,7.0919,7.0979,7.0949,7.0919,7.0979,7.0919,7.0949,7.1158,7.1517,7.1637,7.1966,7.2325,7.2385,7.2744,7.3283,7.3702,7.424,7.4809,7.4903,7.4903,7.4903,7.4903,7.4903,7.4903,7.4903,7.4903,7.4903,7.4869,7.4903,7.4903,7.4903,7.4731,7.4456,7.4318,7.3866,7.3028,7.2459,7.1667,7.0719,6.9194,6.8312,6.8247,6.7029,6.5923,6.5093,6.4295,6.3635,6.3108,6.2904,6.2781,6.2781,6.2781,6.2781,6.2781,6.2781,6.2781,6.2781,6.2781,6.2781,6.2781,6.2781,6.2982,6.335,6.3434,6.346,6.3419,6.2796,6.2473,6.2663,6.2221,6.1781,6.1723,6.0978,6.0033,5.9278,5.849,5.7692,5.6863,5.6296,5.5776,5.5282,5.4856,5.4272,5.366,5.3243,5.2806,5.2343,5.1878,5.152,5.1338,5.1248,5.0975,5.1136,5.1091,5.0909,5.0727,5.0773,5.0773,5.0727,5.0839,5.0747,5.0727,5.0879,5.1163,5.1545,5.2205,5.2941,7.0919,7.0919,7.0919,7.0919,7.0919,7.0919,7.1068,7.1278,7.1308,7.1487,7.1697,7.1757,7.1757,7.1757,7.1757,7.1936,7.2265,7.2325,7.2535,7.2864,7.3163,7.3522,7.3881,7.4121,7.451,7.4809,7.4933,7.4903,7.4903,7.4903,7.4903,7.4903,7.4903,7.4903,7.4869,7.4697,7.4658,7.4594,7.4525,7.4248,7.3866,7.3656,7.3063,7.2172,7.1595,7.0645,6.9081,6.7596,6.6706,6.6394,6.5766,6.5014,6.4254,6.3797,6.327,6.2863,6.2781,6.2781,6.2781,6.2781,6.2781,6.2781,6.2781,6.2781,6.2781,6.2822,6.2873,6.3174,6.3174,6.3475,6.3835,6.3861,6.3567,6.3101,6.2479,6.2191,6.2679,6.1875,6.1336,6.0861,5.9952,5.8942,5.8299,5.74,5.6715,5.6135,5.5732,5.5258,5.4743,5.447,5.4137,5.355,5.3011,5.2554,5.2077,5.1569,5.0859,5.0631,5.0291,4.9925,4.9971,5.0017,4.9925,4.9879,4.9787,4.9742,4.9833,4.9833,4.9742,4.9742,4.9696,4.9841,5.0225,5.0856,5.1511,7.1009,7.1009,7.1068,7.1128,7.1158,7.1128,7.1547,7.1906,7.1996,7.2295,7.2714,7.2864,7.2714,7.2924,7.2654,7.286,7.3013,7.3013,7.3103,7.3432,7.3851,7.427,7.436,7.4809,7.5053,7.5108,7.5083,7.5198,7.5288,7.5228,7.5138,7.5288,7.5193,7.5069,7.5051,7.4625,7.4298,7.4223,7.3855,7.341,7.2992,7.2637,7.2064,7.1057,7.0202,6.8968,6.7442,6.612,6.545,6.5212,6.5173,6.4535,6.3635,6.3473,6.323,6.2904,6.2781,6.2781,6.2781,6.2781,6.2781,6.2781,6.2781,6.2781,6.2807,6.2907,6.3174,6.355,6.3726,6.3986,6.4245,6.41,6.346,6.2762,6.208,6.197,6.1792,6.1335,6.0702,6.0136,5.8522,5.7624,5.7141,5.6604,5.5947,5.5799,5.5391,5.4957,5.4623,5.444,5.4002,5.3509,5.2992,5.241,5.1888,5.1321,5.0478,4.9853,4.9512,4.9282,4.9466,4.9466,4.9328,4.9236,4.9328,4.9262,4.917,4.9098,4.9052,4.9052,4.9282,4.9124,4.9084,4.9907,5.0669,7.1667,7.1727,7.2265,7.2475,7.2475,7.2475,7.2535,7.2684,7.2684,7.2804,7.2924,7.2954,7.2954,7.2954,7.3073,7.3163,7.3672,7.3762,7.3941,7.454,7.5168,7.5437,7.5467,7.5677,7.5677,7.5796,7.6185,7.6365,7.6365,7.621,7.636,7.6265,7.586,7.5968,7.5743,7.4633,7.4144,7.3985,7.3284,7.2517,7.1949,7.1639,7.0947,6.9718,6.8551,6.7288,6.6146,6.5555,6.4894,6.42,6.3918,6.3797,6.3473,6.3148,6.2945,6.2863,6.2781,6.2781,6.2781,6.2781,6.2781,6.2781,6.2781,6.2822,6.2873,6.3274,6.35,6.3776,6.4053,6.432,6.4396,6.418,6.3385,6.2553,6.1915,6.1139,6.0153,5.9877,5.9742,5.9114,5.8178,5.7322,5.6921,5.6013,5.5555,5.5378,5.5094,5.472,5.4515,5.4385,5.3974,5.3529,5.298,5.2372,5.1701,5.1053,5.0092,4.9479,4.9098,4.8894,4.9078,4.9124,4.9052,4.9006,4.894,4.8894,4.8894,4.8894,4.894,4.8894,4.8894,4.8894,4.9038,4.9529,4.9831,7.2385,7.2415,7.2774,7.2924,7.2924,7.2924,7.3103,7.3313,7.3373,7.3552,7.3791,7.3851,7.3821,7.3821,7.3851,7.4061,7.436,7.4719,7.5018,7.5437,7.6006,7.6335,7.6455,7.6569,7.6694,7.645,7.6599,7.6779,7.6808,7.6697,7.6467,7.6491,7.6052,7.5618,7.5563,7.4387,7.3711,7.3413,7.2522,7.1622,7.1114,7.0499,6.9691,6.8323,6.7121,6.6028,6.5516,6.4775,6.42,6.3635,6.327,6.3189,6.3148,6.2945,6.2822,6.2781,6.2781,6.2781,6.2781,6.2781,6.2781,6.2781,6.2781,6.2998,6.3174,6.355,6.3977,6.4312,6.4478,6.4445,6.4018,6.3584,6.2855,6.1784,6.0975,5.9886,5.8764,5.8701,5.8703,5.8004,5.7051,5.6465,5.5897,5.5399,5.5114,5.4925,5.4925,5.4571,5.4408,5.4251,5.4067,5.363,5.3026,5.2391,5.1611,5.0769,4.9742,4.9274,4.9006,4.8894,4.894,4.894,4.8894,4.8894,4.8894,4.8894,4.8894,4.8894,4.8894,4.8894,4.8894,4.8894,4.8952,4.9221,4.9476,7.3073,7.3073,7.3163,7.3223,7.3223,7.3253,7.3582,7.4001,7.4061,7.43,7.4779,7.4903,7.4689,7.4843,7.4813,7.4903,7.5198,7.5677,7.6006,7.6096,7.6694,7.6928,7.7078,7.7472,7.7652,7.7137,7.7227,7.7227,7.705,7.6712,7.6699,7.6342,7.5553,7.5297,7.4895,7.3813,7.3009,7.2773,7.1728,7.0816,7.0304,6.9536,6.8618,6.7231,6.6094,6.5278,6.484,6.416,6.3473,6.3392,6.3026,6.2822,6.2781,6.2781,6.2781,6.2781,6.2781,6.2781,6.2781,6.2781,6.2781,6.2781,6.2948,6.3174,6.355,6.3927,6.4345,6.4551,6.4608,6.3994,6.3274,6.241,6.147,6.0341,5.9246,5.828,5.7514,5.7538,5.7259,5.6767,5.6179,5.5729,5.5304,5.4877,5.4687,5.4497,5.4497,5.4449,5.4306,5.4095,5.3863,5.3487,5.2834,5.2123,5.1384,5.0826,4.975,4.9324,4.907,4.9011,4.8972,4.8894,4.8894,4.8894,4.8894,4.8894,4.8894,4.8894,4.8894,4.8894,4.8894,4.8894,4.8894,4.8894,4.9141,7.3732,7.3791,7.433,7.4574,7.454,7.454,7.454,7.4723,7.4693,7.4783,7.4903,7.4903,7.4903,7.4963,7.4933,7.5202,7.5766,7.6365,7.6629,7.6749,7.7287,7.7652,7.7771,7.819,7.846,7.8519,7.8298,7.8029,7.7799,7.7591,7.688,7.6592,7.5595,7.5067,7.4516,7.3516,7.2322,7.1967,7.0953,7.0068,6.9505,6.9028,6.8115,6.6622,6.5589,6.4781,6.4141,6.3727,6.3311,6.2945,6.2863,6.2873,6.2948,6.2948,6.2923,6.2781,6.2781,6.2781,6.2781,6.2873,6.2847,6.2882,6.3274,6.355,6.3902,6.4412,6.4661,6.4388,6.3986,6.3314,6.2722,6.1245,5.9818,5.8741,5.7771,5.6861,5.6085,5.5897,5.597,5.5661,5.5351,5.5162,5.4877,5.4687,5.4592,5.4449,5.4401,5.4258,5.4047,5.3808,5.35,5.3117,5.2595,5.1836,5.104,5.0628,5.0008,4.9648,4.9394,4.9199,4.9121,4.8972,4.8894,4.8913,4.8913,4.8894,4.8894,4.8894,4.8894,4.8894,4.8894,4.8894,4.8894,4.8913,4.907,7.4424,7.445,7.4783,7.4903,7.4903,7.4903,7.4903,7.4903,7.4903,7.4903,7.4903,7.4933,7.5108,7.5318,7.5407,7.5766,7.6395,7.7018,7.7257,7.7437,7.7981,7.831,7.828,7.8669,7.8614,7.847,7.8252,7.8099,7.7807,7.7002,7.6479,7.5848,7.4847,7.4151,7.3706,7.262,7.1771,7.1129,7.0283,6.956,6.9094,6.8706,6.7519,6.6516,6.57,6.5016,6.4459,6.4089,6.3924,6.3743,6.3701,6.3676,6.3651,6.3601,6.34,6.2998,6.2873,6.2847,6.2923,6.3048,6.3274,6.335,6.3776,6.4228,6.4446,6.4728,6.4597,6.3986,6.3365,6.2434,6.1155,5.9726,5.8603,5.7607,5.6649,5.5897,5.5399,5.5067,5.4972,5.4972,5.483,5.4735,5.4687,5.4544,5.4497,5.4401,5.4285,5.3999,5.3712,5.3377,5.3041,5.2635,5.2181,5.1714,5.1044,5.077,5.0351,5.0019,4.9805,4.9629,4.9414,4.9258,4.907,4.8933,4.8913,4.8972,4.8894,4.8894,4.8894,4.8894,4.8894,4.8894,4.8894,4.8952,4.9089,7.4903,7.4903,7.4903,7.4903,7.4903,7.4903,7.4903,7.4903,7.4903,7.4903,7.4933,7.5083,7.5407,7.5856,7.6215,7.6574,7.7048,7.7711,7.7981,7.81,7.846,7.8759,7.868,7.8608,7.8397,7.785,7.7372,7.7254,7.6957,7.6132,7.5307,7.45,7.3516,7.2767,7.2194,7.1566,7.1001,7.046,6.9867,6.9356,6.8953,6.819,6.7279,6.649,6.5945,6.5362,6.4829,6.4554,6.4412,6.4396,6.4379,6.4404,6.4454,6.4454,6.4053,6.3324,6.3174,6.3149,6.3299,6.355,6.3827,6.3852,6.4329,6.4764,6.4775,6.4462,6.398,6.3225,6.2255,6.129,5.9726,5.8396,5.7445,5.6627,5.5755,5.5114,5.4999,5.483,5.4639,5.4592,5.4449,5.4381,5.4401,5.4258,5.419,5.4067,5.3904,5.3404,5.3117,5.278,5.2442,5.2104,5.1774,5.1463,5.1152,5.1074,5.0723,5.041,5.0254,5.0117,4.9883,4.9668,4.9414,4.918,4.9082,4.9121,4.905,4.8913,4.8894,4.8894,4.8894,4.8894,4.8894,4.8894,4.8972,7.4903,7.4903,7.4903,7.4903,7.4903,7.4903,7.4903,7.4903,7.4963,7.4903,7.5018,7.5527,7.5856,7.6215,7.7173,7.7562,7.7891,7.825,7.8579,7.8579,7.8663,7.8572,7.8318,7.8282,7.774,7.7113,7.6367,7.6057,7.5649,7.4962,7.4113,7.3095,7.2289,7.1514,7.1123,7.0676,7.0103,6.9707,6.9504,6.9229,6.8778,6.7893,6.723,6.6576,6.5862,6.5216,6.4932,6.4764,6.4672,6.4605,6.4572,6.4505,6.4479,6.4479,6.4471,6.4346,6.432,6.432,6.4245,6.4346,6.4379,6.4479,6.4839,6.497,6.4579,6.3899,6.3265,6.2698,6.12,5.9703,5.8396,5.7119,5.6158,5.5614,5.5094,5.4735,5.4639,5.4714,5.4544,5.4285,5.419,5.4238,5.4238,5.4047,5.3856,5.3664,5.3425,5.2972,5.2587,5.2249,5.2008,5.1717,5.162,5.1376,5.1289,5.123,5.1074,5.0762,5.0683,5.0586,5.0312,5.0058,4.9844,4.9648,4.9531,4.9355,4.9285,4.9148,4.8991,4.8894,4.8894,4.8894,4.8894,4.8894,4.8913,7.4903,7.4903,7.4903,7.4903,7.4903,7.4903,7.4903,7.4993,7.5322,7.5467,7.5587,7.6155,7.6569,7.7113,7.7981,7.834,7.843,7.8669,7.8789,7.8717,7.8572,7.8354,7.8136,7.7704,7.7113,7.6254,7.5421,7.4423,7.3957,7.3409,7.2699,7.2009,7.1204,7.0554,7.0144,6.9898,6.9568,6.9237,6.9071,6.8889,6.8461,6.7986,6.748,6.678,6.6247,6.5807,6.5486,6.5383,6.5409,6.5409,6.5383,6.5383,6.5409,6.5409,6.5383,6.5409,6.5409,6.5107,6.4605,6.4823,6.4906,6.4972,6.5085,6.4901,6.4084,6.3241,6.2211,6.102,5.9681,5.835,5.7213,5.6158,5.5519,5.4972,5.4687,5.4592,5.4497,5.4497,5.4449,5.419,5.3904,5.3808,5.3712,5.3425,5.3233,5.3233,5.2992,5.2539,5.2201,5.1911,5.1717,5.1523,5.1426,5.1358,5.1338,5.1319,5.1299,5.1084,5.1084,5.0996,5.0683,5.0449,5.0273,5.0098,4.9941,4.9813,4.9597,4.9324,4.9089,4.8991,4.8894,4.9011,4.9109,4.8972,4.9089,7.4903,7.4903,7.4903,7.4903,7.4903,7.4903,7.5023,7.5228,7.5647,7.5976,7.6275,7.6814,7.7442,7.8011,7.8489,7.8729,7.8759,7.8789,7.8717,7.8572,7.8354,7.8026,7.752,7.6965,7.6217,7.5335,7.4268,7.3331,7.2342,7.1621,7.1258,7.0988,7.039,6.9816,6.9444,6.932,6.9154,6.893,6.8722,6.8513,6.8219,6.7925,6.7409,6.6942,6.6669,6.6455,6.6155,6.6061,6.6061,6.6036,6.6011,6.5961,6.5961,6.5936,6.5936,6.5961,6.5936,6.5685,6.5308,6.5308,6.5374,6.5293,6.4815,6.4173,6.3097,6.2345,6.129,5.9544,5.8326,5.7119,5.6111,5.5425,5.502,5.4735,5.4544,5.4497,5.4449,5.4354,5.419,5.3904,5.3569,5.3068,5.2944,5.2704,5.2607,5.2704,5.2442,5.2104,5.1862,5.162,5.1523,5.1377,5.1377,5.1397,5.1397,5.1397,5.1397,5.1397,5.1397,5.1299,5.1035,5.0879,5.0762,5.0586,5.0371,5.0184,4.9969,4.9578,4.9246,4.9402,4.95,4.9382,4.9324,4.9206,4.9382,7.4903,7.4903,7.4903,7.4903,7.4903,7.4903,7.5258,7.5736,7.5916,7.6335,7.6898,7.7442,7.81,7.8549,7.8699,7.8789,7.8789,7.8789,7.8572,7.8354,7.8136,7.7483,7.6778,7.599,7.5154,7.4063,7.3044,7.2169,7.1366,7.0472,6.998,6.9609,6.9609,6.9278,6.9029,6.8972,6.893,6.8722,6.8513,6.8287,6.795,6.7502,6.6924,6.6754,6.6412,6.6112,6.6112,6.6112,6.6112,6.6112,6.6112,6.6112,6.6112,6.6112,6.6112,6.6112,6.6112,6.5918,6.575,6.5639,6.5642,6.5155,6.4197,6.3032,6.1829,6.059,5.9452,5.835,5.7119,5.6158,5.5425,5.4925,5.4639,5.4592,5.4497,5.4401,5.4306,5.4047,5.3856,5.3616,5.3233,5.2684,5.2298,5.2104,5.2104,5.2153,5.2076,5.1717,5.1668,5.1474,5.1426,5.1377,5.1377,5.1397,5.1397,5.1397,5.1397,5.1397,5.1397,5.1397,5.1299,5.1201,5.1113,5.0976,5.0742,5.0527,5.0351,5.0176,5.0078,5.0078,5.0019,4.9832,4.9793,4.9773,5.0,7.4903,7.4903,7.4903,7.4903,7.4933,7.5318,7.5647,7.6036,7.6724,7.7442,7.8011,7.831,7.8549,7.8729,7.8789,7.8789,7.8753,7.8536,7.8354,7.7953,7.7446,7.6704,7.5839,7.4809,7.3723,7.2806,7.1809,7.092,7.0185,6.9692,6.9361,6.918,6.9112,6.9014,6.8847,6.8805,6.8805,6.868,6.8345,6.8119,6.7671,6.718,6.6669,6.6326,6.6283,6.6112,6.6112,6.6112,6.6112,6.6112,6.6112,6.6112,6.6112,6.6112,6.6112,6.6069,6.6069,6.594,6.5681,6.5551,6.5118,6.3763,6.281,6.1784,6.0409,5.9223,5.8141,5.7073,5.6111,5.5378,5.4877,5.4639,5.4544,5.4497,5.4449,5.4354,5.4047,5.376,5.3357,5.3068,5.2635,5.2201,5.1862,5.1571,5.162,5.1668,5.1474,5.1397,5.1397,5.1397,5.1397,5.1397,5.1397,5.1397,5.1397,5.1397,5.1397,5.1397,5.1397,5.1397,5.1397,5.1377,5.124,5.1211,5.1152,5.0996,5.0918,5.0957,5.0801,5.0508,5.0293,5.0164,5.0184,5.0301,5.0508,7.4903,7.4933,7.5078,7.5168,7.5258,7.5707,7.6155,7.6604,7.7382,7.816,7.8789,7.8789,7.8789,7.8789,7.8789,7.868,7.8572,7.8318,7.796,7.7409,7.6704,7.5801,7.4809,7.3762,7.262,7.1701,7.0853,7.0021,6.9651,6.9403,6.9112,6.893,6.8805,6.8805,6.8805,6.8805,6.8764,6.8555,6.8177,6.7756,6.7307,6.6839,6.6498,6.6155,6.6112,6.6112,6.6112,6.6112,6.6112,6.6112,6.6112,6.6112,6.6112,6.6112,6.6112,6.6069,6.594,6.5724,6.5421,6.4639,6.387,6.2499,6.138,6.0204,5.8925,5.7956,5.6933,5.6064,5.5378,5.4925,5.4497,5.4497,5.4354,5.4306,5.419,5.4047,5.3616,5.3213,5.2828,5.2442,5.2104,5.1765,5.1668,5.1426,5.1474,5.1523,5.1474,5.1397,5.1397,5.1397,5.1397,5.1397,5.1397,5.1397,5.1397,5.1397,5.1397,5.1397,5.1397,5.1397,5.1397,5.1397,5.1397,5.1299,5.1299,5.1358,5.1299,5.1182,5.0996,5.0723,5.0625,5.0605,5.0703,5.082,5.084,7.4933,7.4993,7.5587,7.5856,7.5946,7.5916,7.6604,7.7502,7.7801,7.822,7.8759,7.8789,7.8753,7.8717,7.8644,7.8427,7.8106,7.7997,7.752,7.6554,7.5763,7.477,7.3605,7.2501,7.1581,7.0771,7.0062,6.9568,6.9403,6.9112,6.8889,6.8847,6.8805,6.8805,6.8805,6.8805,6.8597,6.8245,6.7798,6.7307,6.6924,6.6455,6.6197,6.6112,6.6112,6.6112,6.6112,6.6112,6.6112,6.6112,6.6112,6.6112,6.6112,6.6112,6.6069,6.6026,6.5638,6.5421,6.5205,6.3631,6.2187,6.1155,6.0068,5.8741,5.7607,5.6674,5.6017,5.533,5.4904,5.4639,5.4497,5.4449,5.419,5.3999,5.3951,5.3616,5.3117,5.2828,5.2442,5.2056,5.1717,5.1426,5.1426,5.1377,5.1377,5.1426,5.1397,5.1397,5.1397,5.1397,5.1397,5.1397,5.1397,5.1397,5.1397,5.1397,5.1397,5.1397,5.1397,5.1397,5.1397,5.1397,5.1397,5.1397,5.1397,5.1397,5.1397,5.1358,5.1143,5.1035,5.1143,5.1182,5.128,5.126,5.1182,7.5172,7.5587,7.5826,7.6395,7.7113,7.7173,7.7442,7.7831,7.825,7.8579,7.8723,7.8536,7.8391,7.8354,7.8063,7.7777,7.7409,7.7039,7.6442,7.5573,7.4693,7.3605,7.2461,7.1419,7.0527,6.9939,6.932,6.9071,6.8988,6.8847,6.8805,6.8805,6.8764,6.8805,6.8722,6.8597,6.8287,6.8077,6.7502,6.6924,6.6754,6.6369,6.6112,6.6112,6.6112,6.6112,6.6112,6.6112,6.6112,6.6112,6.6112,6.6112,6.6112,6.6112,6.594,6.5724,6.536,6.4552,6.3209,6.1425,6.0204,5.9429,5.8649,5.7421,5.6226,5.5803,5.5283,5.4925,5.4687,5.4497,5.4497,5.4142,5.3904,5.376,5.3569,5.3068,5.2635,5.2442,5.2153,5.1765,5.1426,5.1377,5.1397,5.1397,5.1397,5.1397,5.1397,5.1397,5.1397,5.1397,5.1397,5.1397,5.1397,5.1397,5.1397,5.1397,5.1397,5.1397,5.1397,5.1397,5.1397,5.1397,5.1397,5.1397,5.1397,5.1397,5.1397,5.1397,5.1397,5.1377,5.1397,5.1397,5.1358,5.1338,5.1319,7.5497,7.5946,7.6395,7.7023,7.7741,7.7801,7.7921,7.8154,7.8465,7.8608,7.8463,7.8063,7.774,7.763,7.7335,7.6816,7.6375,7.6141,7.5202,7.4356,7.3409,7.2381,7.1312,7.0445,6.983,6.9278,6.8988,6.8805,6.8847,6.8805,6.8805,6.8764,6.868,6.8555,6.8497,6.8329,6.7993,6.7671,6.7052,6.6711,6.6498,6.6283,6.6112,6.6112,6.6112,6.6112,6.6112,6.6112,6.6112,6.6112,6.6112,6.6112,6.6112,6.6026,6.5853,6.5533,6.4552,6.3386,6.138,5.9863,5.8764,5.791,5.7141,5.632,5.5446,5.5188,5.4925,5.4639,5.4497,5.4401,5.4258,5.3856,5.3616,5.3473,5.2972,5.2442,5.2153,5.1959,5.1862,5.1523,5.1426,5.1377,5.1397,5.1397,5.1397,5.1397,5.1397,5.1397,5.1397,5.1397,5.1397,5.1397,5.1397,5.1397,5.1397,5.1397,5.1397,5.1397,5.1397,5.1397,5.1397,5.1397,5.1397,5.1397,5.1397,5.1397,5.1397,5.1397,5.1397,5.1397,5.1397,5.1397,5.1397,5.1397,5.1397,7.5946,7.6155,7.7293,7.7801,7.7861,7.785,7.8148,7.8687,7.8288,7.8136,7.8099,7.7261,7.6861,7.6816,7.6479,7.5839,7.523,7.5049,7.4084,7.3016,7.2222,7.1217,7.0445,6.9707,6.9278,6.8972,6.8805,6.8805,6.8805,6.8805,6.8805,6.868,6.8455,6.8287,6.8203,6.7925,6.7587,6.7163,6.6797,6.6498,6.624,6.6155,6.6112,6.6112,6.6112,6.6112,6.6112,6.6112,6.6112,6.6112,6.6112,6.6112,6.6112,6.6069,6.5767,6.4944,6.3498,6.1695,6.0023,5.8672,5.7538,5.658,5.5803,5.5399,5.5162,5.4877,5.4639,5.4497,5.4401,5.4142,5.3904,5.3521,5.3165,5.2828,5.2346,5.1959,5.162,5.1474,5.1474,5.1377,5.1377,5.1397,5.1397,5.1397,5.1397,5.1397,5.1397,5.1397,5.1397,5.1397,5.1397,5.1397,5.1397,5.1397,5.1397,5.1397,5.1397,5.1397,5.1397,5.1397,5.1397,5.1397,5.1397,5.1397,5.1397,5.1397,5.1397,5.1397,5.1397,5.1397,5.1397,5.1397,5.1397,5.1397,5.1397,7.6844,7.7293,7.7652,7.8071,7.8454,7.8201,7.8176,7.8282,7.7667,7.7335,7.7269,7.6188,7.5697,7.5649,7.5001,7.4423,7.3957,7.3488,7.2779,7.1929,7.1137,7.0363,6.9748,6.9237,6.8972,6.8847,6.8805,6.8805,6.8805,6.8805,6.8805,6.8722,6.8329,6.8077,6.7714,6.7375,6.7052,6.6797,6.6498,6.6283,6.6155,6.6112,6.6112,6.6112,6.6112,6.6112,6.6112,6.6112,6.6112,6.6112,6.6112,6.6112,6.6112,6.5724,6.5161,6.3386,6.1919,6.0386,5.8856,5.7724,5.6742,5.5708,5.5067,5.483,5.4687,5.4639,5.4497,5.4401,5.419,5.3904,5.35,5.3068,5.2732,5.2346,5.1959,5.1668,5.1397,5.1397,5.1397,5.1397,5.1397,5.1397,5.1397,5.1397,5.1397,5.1397,5.1397,5.1397,5.1397,5.1397,5.1397,5.1397,5.1397,5.1397,5.1397,5.1397,5.1397,5.1397,5.1397,5.1397,5.1397,5.1397,5.1397,5.1397,5.1397,5.1397,5.1397,5.1397,5.1397,5.1397,5.1397,5.1397,5.1397,5.1397,5.1397,7.7407,7.7831,7.81,7.8358,7.8404,7.7777,7.7409,7.715,7.6741,7.6479,7.6179,7.5039,7.4384,7.4084,7.3527,7.2925,7.2329,7.2062,7.146,7.069,7.0118,6.9692,6.9237,6.8972,6.8847,6.8805,6.8805,6.8805,6.8805,6.8805,6.8805,6.8722,6.8261,6.784,6.7434,6.6967,6.6583,6.6412,6.6283,6.6155,6.6112,6.6112,6.6112,6.6112,6.6112,6.6112,6.6112,6.6112,6.6112,6.6112,6.6112,6.5983,6.5681,6.5031,6.4046,6.2365,6.0794,5.9292,5.7817,5.6767,5.585,5.5209,5.4687,5.4592,5.4544,5.4544,5.4354,5.419,5.3951,5.3616,5.3117,5.2635,5.2249,5.1911,5.1668,5.1426,5.1397,5.1397,5.1397,5.1397,5.1397,5.1397,5.1397,5.1397,5.1397,5.1397,5.1397,5.1397,5.1397,5.1397,5.1397,5.1397,5.1397,5.1397,5.1397,5.1397,5.1397,5.1397,5.1397,5.1397,5.1397,5.1397,5.1397,5.1397,5.1397,5.1397,5.1397,5.1397,5.1397,5.1397,5.1397,5.1397,5.1397,5.1397,5.1397,7.7891,7.7951,7.8483,7.8397,7.7917,7.6853,7.6103,7.564,7.5421,7.5307,7.477,7.379,7.3004,7.262,7.2129,7.1608,7.1164,7.088,7.0486,6.9527,6.9527,6.9237,6.9014,6.8805,6.8805,6.8805,6.8805,6.8805,6.8805,6.8764,6.8764,6.8722,6.7941,6.7477,6.7222,6.6583,6.624,6.6197,6.6155,6.6112,6.6112,6.6112,6.6112,6.6112,6.6112,6.6112,6.6112,6.6112,6.6112,6.6112,6.5983,6.5767,6.4901,6.3983,6.2834,6.1425,5.9749,5.828,5.6954,5.5944,5.533,5.483,5.4497,5.4497,5.4497,5.4497,5.4354,5.3951,5.3712,5.3213,5.2684,5.2249,5.1862,5.1668,5.1474,5.1397,5.1397,5.1397,5.1397,5.1397,5.1397,5.1397,5.1397,5.1397,5.1397,5.1397,5.1397,5.1397,5.1397,5.1397,5.1397,5.1397,5.1397,5.1397,5.1397,5.1397,5.1397,5.1397,5.1397,5.1397,5.1397,5.1397,5.1397,5.1397,5.1397,5.1397,5.1397,5.1397,5.1397,5.1397,5.1397,5.1397,5.1397,5.1397,5.1397,7.8549,7.8543,7.8404,7.7777,7.6816,7.6179,7.5116,7.3879,7.3252,7.3134,7.3095,7.2369,7.1728,7.1285,7.092,7.054,7.0308,6.998,6.9733,6.9403,6.9195,6.9055,6.8847,6.8805,6.8805,6.8805,6.8805,6.8805,6.8805,6.8764,6.8597,6.8303,6.7688,6.7307,6.701,6.6326,6.6112,6.6112,6.6112,6.6112,6.6112,6.6112,6.6112,6.6112,6.6112,6.6112,6.6112,6.6112,6.6112,6.6069,6.5724,6.4988,6.3875,6.279,6.1425,5.9886,5.8603,5.7234,5.6226,5.5425,5.502,5.4687,5.4497,5.4497,5.4497,5.4497,5.4306,5.3876,5.3377,5.2828,5.2346,5.1911,5.162,5.1474,5.1397,5.1397,5.1397,5.1397,5.1397,5.1397,5.1397,5.1397,5.1397,5.1397,5.1397,5.1397,5.1397,5.1397,5.1397,5.1397,5.1397,5.1397,5.1397,5.1397,5.1397,5.1397,5.1397,5.1397,5.1397,5.1397,5.1397,5.1397,5.1397,5.1397,5.1397,5.1397,5.1397,5.1397,5.1397,5.1397,5.1397,5.1397,5.1397,5.1397,5.1397,7.868,7.8463,7.7704,7.6927,7.6066,7.5116,7.3957,7.2779,7.1862,7.1419,7.1298,7.1001,7.0635,7.0267,6.998,6.976,6.9609,6.932,6.9195,6.9071,6.9014,6.8889,6.8805,6.8805,6.8805,6.8805,6.8805,6.8805,6.8805,6.8555,6.8371,6.8077,6.7603,6.7052,6.6754,6.6369,6.6112,6.6112,6.6112,6.6112,6.6112,6.6112,6.6112,6.6112,6.6112,6.6112,6.6112,6.6069,6.594,6.5551,6.4901,6.4114,6.2923,6.165,6.0227,5.8856,5.7585,5.6393,5.5567,5.5067,5.4877,5.4592,5.4497,5.4497,5.4449,5.4354,5.3856,5.3425,5.2876,5.2346,5.1959,5.1523,5.1474,5.1426,5.1397,5.1397,5.1397,5.1397,5.1397,5.1397,5.1397,5.1397,5.1397,5.1397,5.1397,5.1397,5.1397,5.1397,5.1397,5.1397,5.1397,5.1397,5.1397,5.1397,5.1397,5.1397,5.1397,5.1397,5.1397,5.1397,5.1397,5.1397,5.1397,5.1397,5.1397,5.1397,5.1397,5.1397,5.1397,5.1397,5.1397,5.1397,5.1397,5.1397,5.1397,7.8427,7.7814,7.6778,7.599,7.5269,7.384,7.266,7.1782,7.1001,7.0185,6.9692,6.9898,6.9733,6.9527,6.9403,6.9112,6.8972,6.8972,6.8847,6.8847,6.8805,6.8805,6.8805,6.8805,6.8805,6.8805,6.8805,6.8805,6.8805,6.8471,6.8203,6.795,6.7417,6.6797,6.6626,6.6369,6.6112,6.6112,6.6112,6.6112,6.6112,6.6112,6.6112,6.6112,6.6112,6.6112,6.6112,6.5983,6.5767,6.5075,6.4114,6.2923,6.1784,6.0477,5.9132,5.7771,5.6721,5.5803,5.5188,5.4782,5.4639,5.4497,5.4497,5.4449,5.4333,5.3951,5.3473,5.2972,5.2442,5.2056,5.1668,5.1426,5.1377,5.1397,5.1397,5.1397,5.1397,5.1397,5.1397,5.1397,5.1397,5.1397,5.1397,5.1397,5.1397,5.1397,5.1397,5.1397,5.1397,5.1397,5.1397,5.1397,5.1397,5.1397,5.1397,5.1397,5.1397,5.1397,5.1397,5.1397,5.1397,5.1397,5.1397,5.1397,5.1397,5.1397,5.1397,5.1397,5.1397,5.1397,5.1397,5.1397,5.1397,5.1397,5.1397,7.7704,7.6704,7.6132,7.5116,7.3762,7.2739,7.1621,7.0527,6.9995,6.9444,6.9071,6.9014,6.9014,6.893,6.893,6.8847,6.8847,6.8805,6.8805,6.8805,6.8805,6.8805,6.8805,6.8805,6.8805,6.8805,6.8805,6.8805,6.868,6.8371,6.7993,6.7629,6.7137,6.6626,6.624,6.6112,6.6112,6.6112,6.6112,6.6112,6.6112,6.6112,6.6112,6.6112,6.6112,6.6112,6.6026,6.5724,6.5551,6.4901,6.3606,6.1963,6.0499,5.9178,5.791,5.6886,5.5803,5.533,5.483,5.4639,5.4497,5.4497,5.4449,5.4306,5.4047,5.3521,5.3041,5.2587,5.2153,5.1911,5.1571,5.1426,5.1397,5.1397,5.1397,5.1397,5.1397,5.1397,5.1397,5.1397,5.1397,5.1397,5.1397,5.1397,5.1397,5.1397,5.1397,5.1397,5.1397,5.1397,5.1397,5.1397,5.1397,5.1397,5.1397,5.1397,5.1397,5.1397,5.1397,5.1397,5.1397,5.1397,5.1397,5.1397,5.1397,5.1397,5.1397,5.1397,5.1397,5.1397,5.1397,5.1397,5.1397,5.1397,5.1397]},{"header":{"parameterUnit":"m.s-1","parameterCategory":1,"la1":31.0,"la2":29.5877,"lo1":-88.7671,"lo2":-86.6584,"dx":0.0162,"dy":0.0185,"nx":115,"ny":88,"refTime":"2022-11-19T06:00:00:Z","depth":0,"parameterNumber":3,"parameterNumberName":"V-component_of_WINDS"},"data":[0.0,0.0,0.0,0.0,0.0,0.0,0.0,0.0,0.0,0.0,0.0,0.0,0.0,0.0,0.0,0.0,0.0,0.0,0.0,0.0,0.0,0.0,0.0,0.0,0.0,0.0,0.0,0.0,0.0,0.0,0.0,0.0,0.0,0.0,0.0,0.0,0.0,0.0,0.0,0.0,0.0,0.0,0.0,0.0,0.0,0.0,0.0,0.0,0.0,0.0,0.0,0.0,0.0,0.0,0.0,0.0,0.0,0.0,0.0,0.0,0.0,0.0,0.0,0.0,0.0,0.0,0.0,0.0,0.0,0.0,0.0,0.0,0.0,0.0,0.0,0.0,0.0,0.0,0.0,0.0,0.0,0.0,0.0,0.0,0.0,0.0,0.0,0.0,0.0,0.0,0.0,0.0,0.0,0.0,0.0,0.0,0.0,0.0,0.0,0.0,0.0,0.0,0.0,0.0,0.0,0.0,0.0,0.0,0.0,0.0,0.0,0.0,0.0,0.0,0.0,0.0,0.0,0.0,0.0,0.0,0.0,0.0,0.0,0.0,0.0,0.0,0.0,0.0,0.0,0.0,0.0,0.0,0.0,0.0,0.0,0.0,0.0,0.0,0.0,0.0,0.0,0.0,0.0,0.0,0.0,0.0,0.0,0.0,0.0,0.0,0.0,0.0,0.0,0.0,0.0,0.0,0.0,0.0,0.0,0.0,0.0,0.0,0.0,0.0,0.0,0.0,0.0,0.0,0.0,0.0,0.0,0.0,0.0,0.0,0.0,0.0,0.0,0.0,0.0,0.0,0.0,0.0,0.0,0.0,0.0,0.0,0.0,0.0,0.0,0.0,0.0,0.0,0.0,0.0,0.0,0.0,0.0,0.0,0.0,0.0,0.0,0.0,0.0,0.0,0.0,0.0,0.0,0.0,0.0,0.0,0.0,0.0,0.0,0.0,0.0,0.0,0.0,0.0,0.0,0.0,0.0,0.0,0.0,0.0,0.0,0.0,0.0,0.0,0.0,0.0,0.0,0.0,0.0,0.0,0.0,0.0,0.0,0.0,0.0,0.0,0.0,0.0,0.0,0.0,0.0,0.0,0.0,0.0,0.0,0.0,0.0,0.0,0.0,0.0,0.0,0.0,0.0,0.0,0.0,0.0,0.0,0.0,0.0,0.0,0.0,0.0,0.0,0.0,0.0,0.0,0.0,0.0,0.0,0.0,0.0,0.0,0.0,0.0,0.0,0.0,0.0,0.0,0.0,0.0,0.0,0.0,0.0,0.0,0.0,0.0,0.0,0.0,0.0,0.0,0.0,0.0,0.0,0.0,0.0,0.0,0.0,0.0,0.0,0.0,0.0,0.0,0.0,0.0,0.0,0.0,0.0,0.0,0.0,0.0,0.0,0.0,0.0,0.0,0.0,0.0,0.0,0.0,0.0,0.0,0.0,0.0,0.0,0.0,0.0,0.0,0.0,0.0,0.0,0.0,0.0,0.0,0.0,0.0,0.0,0.0,0.0,0.0,0.0,0.0,0.0,0.0,0.0,0.0,0.0,0.0,0.0,0.0,0.0,0.0,0.0,0.0,0.0,0.0,0.0,0.0,0.0,0.0,0.0,0.0,0.0,0.0,0.0,0.0,0.0,0.0,0.0,0.0,0.0,0.0,0.0,0.0,0.0,0.0,0.0,0.0,0.0,0.0,0.0,0.0,0.0,0.0,0.0,0.0,0.0,0.0,0.0,0.0,0.0,0.0,0.0,0.0,0.0,0.0,0.0,0.0,0.0,0.0,0.0,0.0,0.0,0.0,0.0,0.0,0.0,0.0,0.0,0.0,0.0,0.0,0.0,0.0,0.0,0.0,0.0,0.0,0.0,0.0,0.0,0.0,0.0,0.0,0.0,0.0,0.0,0.0,0.0,0.0,0.0,0.0,0.0,0.0,0.0,0.0,0.0,0.0,0.0,0.0,0.0,0.0,0.0,0.0,0.0,0.0,0.0,0.0,0.0,0.0,0.0,0.0,0.0,0.0,0.0,0.0,0.0,0.0,0.0,0.0,0.0,0.0,0.0,0.0,0.0,0.0,0.0,0.0,0.0,0.0,0.0,0.0,0.0,0.0,0.0,0.0,0.0,0.0,0.0,0.0,0.0,0.0,0.0,0.0,0.0,0.0,0.0,0.0,0.0,0.0,0.0,0.0,0.0,0.0,0.0,0.0,0.0,0.0,0.0,0.0,0.0,0.0,0.0,0.0,0.0,0.0,0.0,0.0,0.0,0.0,0.0,0.0,0.0,0.0,0.0,0.0,0.0,0.0,0.0,0.0,0.0,0.0,0.0,0.0,0.0,0.0,0.0,0.0,0.0,0.0,0.0,0.0,0.0,0.0,0.0,0.0,0.0,0.0,0.0,0.0,0.0,0.0,0.0,0.0,0.0,0.0,0.0,0.0,0.0,0.0,0.0,0.0,0.0,0.0,0.0,0.0,0.0,0.0,0.0,0.0,0.0,0.0,0.0,0.0,0.0,0.0,0.0,0.0,0.0,0.0,0.0,0.0,0.0,0.0,0.0,0.0,0.0,0.0,0.0,0.0,0.0,0.0,0.0,0.0,0.0,0.0,0.0,0.0,0.0,0.0,0.0,0.0,0.0,0.0,0.0,0.0,0.0,0.0,0.0,0.0,0.0,0.0,0.0,0.0,0.0,0.0,0.0,0.0,0.0,0.0,0.0,0.0,0.0,0.0,0.0,0.0,0.0,0.0,0.0,0.0,0.0,0.0,0.0,0.0,0.0,0.0,0.0,0.0,0.0,0.0,0.0,0.0,0.0,0.0,0.0,0.0,0.0,0.0,0.0,0.0,0.0,0.0,0.0,0.0,0.0,0.0,0.0,0.0,0.0,0.0,0.0,0.0,0.0,0.0,0.0,0.0,0.0,0.0,0.0,0.0,0.0,0.0,0.0,0.0,0.0,0.0,0.0,0.0,0.0,0.0,0.0,0.0,0.0,0.0,0.0,0.0,0.0,0.0,0.0,0.0,0.0,0.0,0.0,0.0,0.0,0.0,0.0,0.0,0.0,0.0,0.0,0.0,0.0,0.0,0.0,0.0,0.0,0.0,0.0,0.0,0.0,0.0,0.0,0.0,0.0,0.0,0.0,0.0,0.0,0.0,0.0,0.0,0.0,0.0,0.0,0.0,0.0,0.0,0.0,0.0,0.0,0.0,0.0,0.0,0.0,0.0,0.0,0.0,0.0,0.0,0.0,0.0,0.0,0.0,0.0,0.0,0.0,0.0,0.0,0.0,0.0,0.0,0.0,0.0,0.0,0.0,0.0,0.0,0.0,0.0,0.0,0.0,0.0,0.0,0.0,0.0,0.0,0.0,0.0,0.0,0.0,0.0,0.0,0.0,0.0,0.0,0.0,0.0,0.0,0.0,0.0,0.0,0.0,0.0,0.0,0.0,0.0,0.0,0.0,0.0,0.0,0.0,0.0,0.0,0.0,0.0,0.0,0.0,0.0,0.0,0.0,0.0,0.0,0.0,0.0,0.0,0.0,0.0,0.0,0.0,0.0,0.0,0.0,0.0,0.0,0.0,0.0,0.0,0.0,0.0,0.0,0.0,0.0,0.0,0.0,0.0,0.0,0.0,0.0,0.0,0.0,0.0,0.0,0.0,0.0,0.0,0.0,0.0,0.0,0.0,0.0,0.0,0.0,0.0,0.0,0.0,0.0,0.0,0.0,0.0,0.0,0.0,0.0,0.0,0.0,0.0,0.0,0.0,0.0,0.0,0.0,0.0,0.0,0.0,0.0,0.0,0.0,0.0,0.0,0.0,0.0,0.0,0.0,0.0,0.0,0.0,0.0,0.0,0.0,0.0,0.0,0.0,0.0,0.0,0.0,0.0,0.0,0.0,0.0,0.0,0.0,0.0,0.0,0.0,0.0,0.0,0.0,0.0,0.0,0.0,0.0,0.0,0.0,0.0,0.0,0.0,0.0,0.0,0.0,0.0,0.0,0.0,0.0,0.0,0.0,0.0,0.0,0.0,0.0,0.0,0.0,0.0,0.0,0.0,0.0,0.0,0.0,0.0,0.0,0.0,0.0,0.0,0.0,0.0,0.0,0.0,0.0,0.0,0.0,0.0,0.0,0.0,0.0,0.0,0.0,0.0,0.0,0.0,0.0,0.0,0.0,0.0,0.0,0.0,0.0,0.0,0.0,0.0,0.0,0.0,0.0,0.0,0.0,0.0,0.0,0.0,0.0,0.0,0.0,0.0,1.541,0.0,0.0,0.0,1.4819,0.0,0.0,0.0,0.0,0.0,0.0,0.0,0.0,0.0,0.0,0.0,0.0,0.0,0.0,0.0,0.0,0.0,0.0,0.0,0.0,0.0,0.0,0.0,0.0,0.0,0.0,0.0,0.0,0.0,0.0,0.0,0.0,0.0,0.0,0.0,0.0,0.0,0.0,0.0,0.0,0.0,0.0,0.0,0.0,0.0,0.0,0.0,0.0,0.0,0.0,0.0,0.0,0.0,0.0,0.0,0.0,0.0,0.0,0.0,0.0,0.0,0.0,0.0,0.0,0.0,0.0,0.0,0.0,0.0,0.0,0.0,0.0,0.0,0.0,0.0,0.0,0.0,0.0,0.0,0.0,0.0,0.0,0.0,0.0,0.0,0.0,0.0,0.0,0.0,0.0,0.0,0.0,0.0,0.0,0.0,0.0,0.0,0.0,0.0,0.0,0.0,0.0,0.0,0.0,0.0,0.0,0.0,0.0,0.0,0.0,1.541,1.541,1.541,1.5318,1.5117,0.0,0.0,0.0,0.0,0.0,0.0,0.0,0.0,0.0,0.0,0.0,0.0,0.0,0.0,0.0,0.0,0.0,0.0,0.0,0.0,0.0,0.0,0.0,0.0,0.0,0.0,0.0,0.0,0.0,0.0,0.0,0.0,0.0,0.0,0.0,0.0,0.0,0.0,0.0,0.0,0.0,0.0,0.0,0.0,0.0,0.0,0.0,0.0,0.0,0.0,0.0,0.0,0.0,0.0,0.0,0.0,0.0,0.0,0.0,0.0,0.0,0.0,0.0,0.0,0.0,0.0,0.0,0.0,0.0,0.0,0.0,0.0,0.0,0.0,0.0,0.0,0.0,0.0,0.0,0.0,0.0,0.0,0.0,0.0,0.0,0.0,0.0,0.0,0.0,0.0,0.0,0.0,0.0,0.0,0.0,0.0,0.0,0.0,0.0,0.0,0.0,0.0,0.0,0.0,0.0,0.0,0.0,0.0,0.0,0.0,0.0,0.0,1.541,1.5371,1.5254,0.0,0.0,0.0,0.0,0.0,0.0,0.0,0.0,0.0,0.0,0.0,0.0,0.0,0.0,0.0,0.0,0.0,0.0,0.0,0.0,0.0,0.0,0.0,0.0,0.0,0.0,0.0,0.0,0.0,0.0,0.0,0.0,0.0,0.0,0.0,0.0,0.0,0.0,0.0,0.0,0.0,0.0,0.0,0.0,0.0,0.0,0.0,0.0,0.0,0.0,0.0,0.0,0.0,0.0,0.0,0.0,0.0,0.0,0.0,0.0,0.0,0.0,0.0,0.0,0.0,0.0,0.0,0.0,0.0,0.0,0.0,0.0,0.0,0.0,0.0,0.0,0.0,0.0,0.0,0.0,0.0,0.0,0.0,0.0,0.0,0.0,0.0,0.0,0.0,0.0,0.0,0.0,0.0,0.0,0.0,0.0,0.0,0.0,0.0,0.0,0.0,0.0,0.0,0.0,0.0,0.0,0.0,0.0,0.0,0.0,1.541,1.541,1.541,0.0,1.4858,0.0,0.0,0.0,0.0,0.0,0.0,0.0,0.0,0.0,0.0,0.0,0.0,0.0,0.0,0.0,0.0,0.0,0.0,0.0,0.0,0.0,0.0,0.0,0.0,0.0,0.0,0.0,0.0,0.0,0.0,0.0,0.0,0.0,0.0,0.0,0.0,0.0,0.0,0.0,0.0,0.0,0.0,0.0,0.0,0.0,0.0,0.0,0.0,0.0,0.0,0.0,0.0,0.0,0.0,0.0,0.0,0.0,0.0,0.0,0.0,0.0,0.0,0.0,0.0,0.0,0.0,0.0,0.0,0.0,0.0,0.0,0.0,0.0,0.0,0.0,0.0,0.0,0.0,0.0,0.0,0.0,0.0,0.0,0.0,0.0,0.0,0.0,0.0,0.0,0.0,0.0,0.0,0.0,0.0,0.0,0.0,0.0,0.0,0.0,0.0,0.0,0.0,0.0,0.0,0.0,0.0,0.0,0.0,0.0,0.0,1.541,1.541,1.541,1.5318,0.0,0.0,0.0,0.0,0.0,0.0,0.0,0.0,0.0,0.0,0.0,0.0,0.0,0.0,0.0,0.0,0.0,0.0,0.0,0.0,0.0,0.0,0.0,0.0,0.0,0.0,0.0,0.0,0.0,0.0,0.0,0.0,0.0,0.0,0.0,0.0,0.0,0.0,0.0,0.0,0.0,0.0,0.0,0.0,0.0,0.0,0.0,0.0,0.0,0.0,0.0,0.0,0.0,0.0,0.0,0.0,0.0,0.0,0.0,0.0,0.0,0.0,0.0,0.0,0.0,0.0,0.0,0.0,0.0,0.0,0.0,0.0,0.0,0.0,0.0,0.0,0.0,0.0,0.0,0.0,0.0,0.0,0.0,0.0,0.0,0.0,0.0,0.0,0.0,0.0,0.0,0.0,0.0,0.0,0.0,0.0,0.0,0.0,0.0,0.0,0.0,0.0,0.0,0.0,0.0,0.0,0.0,0.0,0.0,0.0,1.5527,1.5586,1.5586,1.5586,1.5547,1.5396,0.0,0.0,0.0,0.0,0.0,0.0,0.0,0.0,0.0,0.0,0.0,0.0,0.0,0.0,0.0,0.0,0.0,0.0,0.0,0.0,0.0,0.0,0.0,0.0,0.0,0.0,0.0,0.0,0.0,0.0,0.0,0.0,0.0,0.0,0.0,0.0,0.0,0.0,0.0,0.0,0.0,0.0,0.0,0.0,0.0,0.0,0.0,0.0,0.0,0.0,0.0,0.0,0.0,0.0,0.0,0.0,0.0,0.0,0.0,0.0,0.0,0.0,0.0,0.0,0.0,0.0,0.0,0.0,0.0,0.0,0.0,0.0,0.0,0.0,0.0,0.0,0.0,0.0,0.0,0.0,0.0,0.0,0.0,0.0,0.0,0.0,0.0,0.0,0.0,0.0,0.0,0.0,0.0,0.0,0.0,0.0,0.0,0.0,0.0,0.0,0.0,0.0,0.0,0.0,0.0,0.0,0.0,0.0,1.543,1.587,1.6065,1.61,1.6065,1.5855,0.0,0.0,0.0,0.0,0.0,0.0,0.0,0.0,0.0,0.0,0.0,0.0,0.0,0.0,0.0,0.0,0.0,0.0,0.0,0.0,0.0,0.0,0.0,0.0,0.0,0.0,0.0,0.0,0.0,0.0,0.0,0.0,0.0,0.0,0.0,0.0,0.0,0.0,0.0,0.0,0.0,0.0,0.0,0.0,0.0,0.0,0.0,0.0,0.0,0.0,0.0,0.0,0.0,0.0,0.0,0.0,0.0,0.0,0.0,0.0,0.0,0.0,0.0,0.0,0.0,0.0,0.0,0.0,0.0,0.0,0.0,0.0,0.0,0.0,0.0,0.0,0.0,0.0,0.0,0.0,0.0,0.0,0.0,0.0,0.0,0.0,0.0,0.0,0.0,0.0,0.0,0.0,0.0,0.0,0.0,0.0,0.0,0.0,0.0,0.0,0.0,0.0,0.0,0.0,0.0,0.0,0.0,0.0,0.0,1.5855,1.6559,1.693,1.6926,1.6656,1.6289,0.0,0.0,0.0,0.0,0.0,0.0,0.0,0.0,0.0,0.0,0.0,0.0,0.0,0.0,0.0,0.0,0.0,0.0,0.0,0.0,0.0,0.0,0.0,0.0,0.0,0.0,0.0,0.0,0.0,0.0,0.0,0.0,0.0,0.0,0.0,0.0,0.0,0.0,0.0,0.0,0.0,0.0,0.0,0.0,0.0,0.0,0.0,0.0,0.0,0.0,0.0,0.0,0.0,0.0,0.0,0.0,0.0,0.0,0.0,0.0,0.0,0.0,0.0,0.0,0.0,0.0,0.0,0.0,0.0,0.0,0.0,0.0,0.0,0.0,0.0,0.0,0.0,0.0,0.0,0.0,0.0,0.0,0.0,0.0,0.0,0.0,0.0,0.0,0.0,0.0,0.0,0.0,0.0,0.0,0.0,0.0,0.0,0.0,0.0,0.0,0.0,0.0,0.0,0.0,0.0,0.0,0.0,0.0,0.0,1.7122,1.8105,1.8572,1.8416,1.7971,1.7347,0.0,0.0,0.0,0.0,0.0,0.0,0.0,0.0,0.0,0.0,0.0,0.0,0.0,0.0,0.0,0.0,0.0,0.0,0.0,0.0,0.0,0.0,0.0,0.0,0.0,0.0,0.0,0.0,0.0,0.0,0.0,0.0,0.0,0.0,0.0,0.0,0.0,0.0,0.0,0.0,0.0,0.0,0.0,0.0,0.0,0.0,0.0,0.0,0.0,0.0,0.0,0.0,0.0,0.0,0.0,0.0,0.0,0.0,0.0,0.0,0.0,0.0,0.0,0.0,0.0,0.0,0.0,0.0,0.0,0.0,0.0,0.0,0.0,0.0,0.0,0.0,0.0,0.0,0.0,0.0,0.0,0.0,0.0,0.0,0.0,0.0,0.0,0.0,0.0,0.0,0.0,0.0,0.0,0.0,0.0,0.0,0.0,0.0,0.0,0.0,0.0,0.0,0.0,0.0,0.0,0.0,0.0,0.0,1.722,1.9258,2.0566,2.1015,2.0644,2.0176,1.9121,0.0,0.0,0.0,0.0,0.0,0.0,0.0,0.0,0.0,0.0,0.0,0.0,0.0,0.0,0.0,0.0,0.0,0.0,0.0,0.0,0.0,0.0,0.0,0.0,0.0,0.0,0.0,0.0,0.0,0.0,0.0,0.0,0.0,0.0,0.0,0.0,0.0,0.0,0.0,0.0,0.0,0.0,0.0,0.0,0.0,0.0,0.0,0.0,0.0,0.0,0.0,0.0,0.0,0.0,0.0,0.0,0.0,0.0,0.0,0.0,0.0,0.0,0.0,0.0,0.0,0.0,0.0,0.0,0.0,0.0,0.0,0.0,0.0,0.0,0.0,0.0,0.0,0.0,0.0,0.0,0.0,0.0,0.0,0.0,0.0,0.0,0.0,0.0,0.0,0.0,0.0,0.0,0.0,0.0,0.0,0.0,0.0,0.0,0.0,0.0,0.0,0.0,0.0,0.0,0.0,0.0,0.0,0.0,0.0,2.1484,2.2752,2.3496,2.3655,2.2402,2.0762,0.0,0.0,0.0,0.0,0.0,0.0,0.0,0.0,0.0,0.0,0.0,0.0,0.0,0.0,0.0,0.0,0.0,0.0,0.0,0.0,0.0,0.0,0.0,0.0,0.0,0.0,0.0,0.0,0.0,0.0,0.0,0.0,0.0,0.0,0.0,0.0,0.0,0.0,0.0,0.0,0.0,0.0,0.0,0.0,0.0,0.0,0.0,0.0,0.0,0.0,0.0,0.0,0.0,0.0,0.0,0.0,0.0,0.0,0.0,0.0,0.0,0.0,0.0,0.0,0.0,0.0,0.0,0.0,0.0,0.0,0.0,0.0,0.0,0.0,0.0,0.0,0.0,0.0,0.0,0.0,0.0,0.0,0.0,0.0,0.0,0.0,0.0,0.0,0.0,0.0,0.0,0.0,0.0,0.0,0.0,0.0,0.0,0.0,0.0,0.0,0.0,0.0,0.0,0.0,0.0,0.0,0.0,0.0,0.0,2.482,2.5659,2.6152,2.6294,2.4766,2.2715,2.0098,0.0,0.0,0.0,0.0,0.0,0.0,0.0,0.0,0.0,0.0,0.0,0.0,0.0,0.0,0.0,0.0,0.0,0.0,0.0,0.0,0.0,0.0,0.0,0.0,0.0,0.0,0.0,0.0,0.0,0.0,0.0,0.0,0.0,0.0,0.0,0.0,0.0,0.0,0.0,0.0,0.0,0.0,0.0,0.0,0.0,0.0,0.0,0.0,0.0,0.0,0.0,0.0,0.0,0.0,0.0,0.0,0.0,0.0,0.0,0.0,0.0,0.0,0.0,0.0,0.0,0.0,0.0,0.0,0.0,0.0,0.0,0.0,0.0,0.0,0.0,0.0,0.0,0.0,0.0,0.0,0.0,0.0,0.0,0.0,0.0,0.0,0.0,0.0,0.0,0.0,0.0,0.0,0.0,0.0,0.0,0.0,0.0,0.0,0.0,0.0,0.0,0.0,0.0,0.0,0.0,0.0,0.0,0.0,2.8918,2.9101,2.8965,2.8516,2.7252,2.4902,0.0,0.0,0.0,0.0,0.0,0.0,0.0,0.0,0.0,0.0,0.0,0.0,0.0,0.0,0.0,0.0,0.0,0.0,0.0,0.0,0.0,0.0,0.0,0.0,0.0,0.0,0.0,0.0,0.0,0.0,0.0,0.0,0.0,0.0,0.0,0.0,0.0,0.0,0.0,0.0,0.0,0.0,0.0,0.0,0.0,0.0,0.0,0.0,0.0,0.0,0.0,0.0,0.0,0.0,0.0,0.0,0.0,0.0,0.0,0.0,0.0,0.0,0.0,0.0,0.0,0.0,0.0,0.0,0.0,0.0,0.0,0.0,0.0,0.0,0.0,0.0,0.0,0.0,0.0,0.0,0.0,0.0,0.0,0.0,0.0,0.0,0.0,0.0,0.0,0.0,0.0,0.0,0.0,0.0,0.0,0.0,0.0,0.0,0.0,0.0,0.0,0.0,0.0,0.0,0.0,0.0,0.0,0.0,0.0,2.9766,3.1377,3.1894,3.1162,2.9277,2.6459,0.0,0.0,0.0,0.0,0.0,0.0,0.0,0.0,0.0,0.0,0.0,0.0,0.0,0.0,0.0,0.0,0.0,0.0,0.0,0.0,0.0,0.0,0.0,0.0,0.0,0.0,0.0,0.0,0.0,0.0,0.0,0.0,0.0,0.0,0.0,0.0,0.0,0.0,0.0,0.0,0.0,0.0,0.0,0.0,0.0,0.0,0.0,0.0,0.0,0.0,0.0,0.0,0.0,0.0,0.0,0.0,0.0,0.0,0.0,0.0,0.0,0.0,0.0,0.0,0.0,0.0,0.0,0.0,0.0,0.0,0.0,0.0,0.0,0.0,0.0,0.0,0.0,0.0,0.0,0.0,0.0,0.0,0.0,0.0,0.0,0.0,0.0,0.0,0.0,0.0,0.0,0.0,0.0,0.0,0.0,0.0,0.0,0.0,0.0,0.0,0.0,0.0,0.0,0.0,0.0,0.0,0.0,0.0,2.8333,3.0996,3.3144,3.375,3.2715,3.0605,2.7532,0.0,0.0,0.0,0.0,0.0,0.0,0.0,0.0,0.0,0.0,0.0,0.0,0.0,0.0,0.0,0.0,0.0,0.0,0.0,0.0,0.0,0.0,0.0,0.0,0.0,0.0,0.0,0.0,0.0,0.0,0.0,0.0,0.0,0.0,0.0,0.0,0.0,0.0,0.0,0.0,0.0,0.0,0.0,0.0,0.0,0.0,0.0,0.0,0.0,0.0,0.0,0.0,0.0,0.0,0.0,0.0,0.0,0.0,0.0,0.0,0.0,0.0,0.0,0.0,0.0,0.0,0.0,0.0,0.0,0.0,0.0,0.0,0.0,0.0,0.0,0.0,0.0,0.0,0.0,0.0,0.0,0.0,0.0,0.0,0.0,0.0,0.0,0.0,0.0,0.0,0.0,0.0,0.0,0.0,0.0,0.0,0.0,0.0,0.0,0.0,0.0,0.0,0.0,0.0,0.0,0.0,0.0,0.0,3.0039,3.2237,3.4297,3.4785,3.3464,3.1396,2.8274,0.0,0.0,0.0,0.0,0.0,0.0,0.0,0.0,0.0,0.0,0.0,0.0,0.0,0.0,0.0,0.0,0.0,0.0,0.0,0.0,0.0,0.0,0.0,0.0,0.0,0.0,0.0,0.0,0.0,0.0,0.0,0.0,0.0,0.0,0.0,0.0,0.0,0.0,0.0,0.0,0.0,0.0,0.0,0.0,0.0,0.0,0.0,0.0,0.0,0.0,0.0,0.0,0.0,0.0,0.0,0.0,0.0,0.0,0.0,0.0,0.0,0.0,0.0,0.0,0.0,0.0,0.0,0.0,0.0,0.0,0.0,0.0,0.0,0.0,0.0,0.0,0.0,0.0,0.0,0.0,0.0,0.0,0.0,0.0,0.0,0.0,0.0,0.0,0.0,0.0,0.0,0.0,0.0,0.0,0.0,0.0,0.0,0.0,0.0,0.0,0.0,0.0,0.0,0.0,0.0,0.0,0.0,0.0,3.0517,3.2648,3.4453,3.4955,3.3977,3.1905,2.8887,0.0,0.0,0.0,0.0,0.0,0.0,0.0,0.0,0.0,0.0,0.0,0.0,0.0,0.0,0.0,0.0,0.0,0.0,0.0,0.0,0.0,0.0,0.0,0.0,0.0,0.0,0.0,0.0,0.0,0.0,0.0,0.0,0.0,0.0,0.0,0.0,0.0,0.0,0.0,0.0,0.0,0.0,0.0,0.0,0.0,0.0,0.0,0.0,2.3627,0.0,0.0,0.0,0.0,0.0,0.0,0.0,0.0,0.0,0.0,0.0,0.0,0.0,0.0,0.0,0.0,0.0,0.0,0.0,0.0,0.0,0.0,0.0,0.0,0.0,0.0,0.0,0.0,0.0,0.0,0.0,0.0,0.0,0.0,0.0,0.0,0.0,0.0,0.0,0.0,0.0,0.0,0.0,0.0,0.0,0.0,0.0,0.0,0.0,0.0,0.0,0.0,0.0,0.0,0.0,0.0,0.0,0.0,0.0,3.1426,3.3391,3.4902,3.5176,3.4095,3.2207,2.9355,0.0,0.0,0.0,0.0,0.0,0.0,0.0,0.0,0.0,0.0,0.0,0.0,0.0,0.0,0.0,0.0,0.0,0.0,0.0,0.0,0.0,0.0,0.0,0.0,0.0,0.0,0.0,0.0,0.0,0.0,0.0,0.0,0.0,0.0,0.0,0.0,0.0,0.0,0.0,0.0,0.0,0.0,0.0,0.0,0.0,0.0,0.0,0.0,0.0,0.0,0.0,0.0,0.0,0.0,0.0,0.0,0.0,0.0,0.0,0.0,0.0,0.0,0.0,0.0,0.0,0.0,0.0,0.0,0.0,0.0,0.0,0.0,0.0,0.0,0.0,0.0,0.0,0.0,0.0,0.0,0.0,0.0,0.0,0.0,0.0,0.0,0.0,0.0,0.0,0.0,0.0,0.0,0.0,0.0,0.0,0.0,0.0,0.0,0.0,0.0,0.0,0.0,0.0,0.0,0.0,0.0,0.0,2.9659,3.2402,3.4055,3.5351,3.543,3.4231,3.25,2.9824,2.6035,0.0,0.0,0.0,0.0,0.0,0.0,0.0,0.0,0.0,0.0,0.0,0.0,0.0,0.0,0.0,0.0,0.0,0.0,0.0,0.0,0.0,0.0,0.0,0.0,0.0,0.0,0.0,0.0,0.0,0.0,0.0,0.0,0.0,0.0,0.0,0.0,0.0,0.0,2.1566,2.3684,0.0,0.0,0.0,0.0,0.0,0.0,0.0,0.0,2.5118,0.0,0.0,0.0,0.0,0.0,0.0,0.0,0.0,0.0,0.0,0.0,0.0,0.0,0.0,0.0,0.0,0.0,0.0,0.0,0.0,0.0,0.0,0.0,0.0,0.0,0.0,0.0,0.0,0.0,0.0,0.0,0.0,0.0,0.0,0.0,0.0,0.0,0.0,0.0,0.0,0.0,0.0,0.0,0.0,0.0,0.0,0.0,0.0,0.0,0.0,0.0,0.0,0.0,0.0,0.0,0.0,2.6771,3.0273,3.2746,3.4095,3.5351,3.5566,3.459,3.298,3.041,2.6934,0.0,0.0,0.0,0.0,0.0,0.0,0.0,0.0,0.0,0.0,0.0,0.0,0.0,0.0,0.0,0.0,0.0,0.0,0.0,0.0,0.0,0.0,0.0,0.0,0.0,0.0,0.0,0.0,0.0,0.0,0.0,0.0,0.0,0.0,0.0,0.0,0.0,0.0,0.0,2.4937,2.6223,0.0,0.0,0.0,0.0,0.0,0.0,0.0,0.0,2.6197,0.0,0.0,0.0,0.0,0.0,0.0,0.0,0.0,0.0,0.0,0.0,0.0,0.0,0.0,0.0,0.0,0.0,0.0,0.0,0.0,0.0,0.0,0.0,0.0,0.0,0.0,0.0,0.0,0.0,0.0,0.0,0.0,0.0,0.0,0.0,0.0,0.0,0.0,0.0,0.0,0.0,0.0,0.0,0.0,0.0,0.0,0.0,0.0,0.0,0.0,0.0,0.0,0.0,0.0,0.0,2.7969,3.0957,3.3223,3.474,3.5586,3.5605,3.4707,3.3078,3.0547,0.0,0.0,0.0,0.0,0.0,0.0,0.0,0.0,0.0,0.0,0.0,0.0,0.0,0.0,0.0,0.0,0.0,0.0,0.0,0.0,0.0,0.0,0.0,0.0,0.0,0.0,0.0,0.0,0.0,0.0,0.0,0.0,0.0,0.0,0.0,0.0,0.0,0.0,0.0,0.0,2.6051,2.7419,2.7695,0.0,0.0,0.0,0.0,0.0,0.0,2.8388,2.7901,0.0,0.0,0.0,0.0,0.0,0.0,0.0,0.0,0.0,0.0,0.0,0.0,0.0,0.0,0.0,0.0,0.0,0.0,0.0,0.0,0.0,0.0,0.0,0.0,0.0,0.0,0.0,0.0,0.0,0.0,0.0,0.0,0.0,0.0,0.0,0.0,0.0,0.0,0.0,0.0,0.0,0.0,0.0,0.0,0.0,0.0,0.0,0.0,0.0,0.0,0.0,0.0,0.0,0.0,0.0,2.8984,3.1601,3.373,3.5332,3.5801,3.5605,3.4707,3.3047,3.0615,0.0,0.0,0.0,0.0,0.0,0.0,0.0,0.0,0.0,0.0,0.0,0.0,0.0,0.0,0.0,0.0,0.0,0.0,0.0,0.0,0.0,0.0,0.0,0.0,0.0,0.0,0.0,0.0,0.0,0.0,0.0,0.0,0.0,0.0,0.0,0.0,0.0,0.0,0.0,0.0,0.0,2.853,2.9283,2.9905,0.0,0.0,0.0,0.0,3.0904,3.0509,0.0,0.0,0.0,0.0,0.0,0.0,0.0,0.0,0.0,0.0,0.0,0.0,0.0,0.0,0.0,0.0,0.0,0.0,0.0,0.0,0.0,0.0,0.0,0.0,0.0,0.0,0.0,0.0,0.0,0.0,0.0,0.0,0.0,0.0,0.0,0.0,0.0,0.0,0.0,0.0,0.0,0.0,0.0,0.0,0.0,0.0,0.0,0.0,0.0,0.0,0.0,0.0,0.0,0.0,0.0,0.0,2.9461,3.2051,3.4004,3.5332,3.5801,3.5552,3.4707,3.3098,3.0752,0.0,0.0,0.0,0.0,0.0,0.0,0.0,0.0,0.0,0.0,0.0,0.0,0.0,0.0,0.0,0.0,0.0,0.0,0.0,0.0,0.0,0.0,0.0,0.0,0.0,0.0,0.0,0.0,0.0,0.0,0.0,0.0,0.0,0.0,0.0,0.0,0.0,0.0,0.0,0.0,0.0,2.9358,3.0884,3.1562,3.2177,0.0,0.0,0.0,3.3654,3.2875,0.0,0.0,0.0,0.0,0.0,0.0,0.0,0.0,0.0,0.0,0.0,0.0,0.0,0.0,0.0,0.0,0.0,0.0,0.0,0.0,0.0,0.0,0.0,0.0,0.0,0.0,0.0,0.0,0.0,0.0,0.0,0.0,0.0,0.0,0.0,0.0,0.0,0.0,0.0,0.0,0.0,0.0,0.0,0.0,0.0,0.0,0.0,0.0,0.0,0.0,0.0,0.0,0.0,0.0,0.0,2.6621,3.0263,3.2363,3.418,3.5684,3.5918,3.5605,3.4726,3.3301,3.1025,0.0,0.0,0.0,0.0,0.0,0.0,0.0,0.0,0.0,0.0,0.0,0.0,0.0,0.0,0.0,0.0,0.0,0.0,0.0,0.0,0.0,0.0,0.0,0.0,0.0,0.0,0.0,0.0,0.0,0.0,0.0,0.0,0.0,0.0,0.0,0.0,0.0,0.0,0.0,0.0,0.0,0.0,3.2306,3.3561,0.0,0.0,0.0,3.6314,3.6682,0.0,0.0,0.0,0.0,0.0,0.0,0.0,0.0,0.0,0.0,0.0,0.0,0.0,0.0,0.0,0.0,0.0,0.0,0.0,0.0,0.0,0.0,0.0,0.0,0.0,0.0,0.0,0.0,0.0,0.0,0.0,0.0,0.0,0.0,0.0,0.0,0.0,0.0,0.0,0.0,0.0,0.0,0.0,0.0,0.0,0.0,0.0,0.0,0.0,0.0,0.0,0.0,0.0,0.0,0.0,0.0,0.0,3.082,3.2651,3.4446,3.623,3.6293,3.5953,3.5284,3.3828,0.0,0.0,0.0,0.0,0.0,0.0,0.0,0.0,0.0,0.0,0.0,0.0,0.0,0.0,0.0,0.0,0.0,0.0,0.0,0.0,0.0,0.0,0.0,0.0,0.0,0.0,0.0,0.0,0.0,0.0,0.0,0.0,0.0,0.0,0.0,0.0,0.0,0.0,0.0,0.0,0.0,0.0,3.2405,3.4011,3.559,3.6842,0.0,0.0,3.907,3.9456,3.8831,3.7962,0.0,0.0,0.0,0.0,0.0,0.0,0.0,0.0,0.0,0.0,0.0,0.0,0.0,0.0,0.0,0.0,0.0,0.0,0.0,0.0,0.0,0.0,0.0,0.0,0.0,0.0,0.0,0.0,0.0,0.0,0.0,0.0,0.0,0.0,0.0,0.0,0.0,0.0,0.0,0.0,0.0,0.0,0.0,0.0,0.0,0.0,0.0,0.0,0.0,0.0,0.0,0.0,0.0,0.0,0.0,3.081,3.2916,3.4992,3.7034,3.7043,3.6991,3.6924,3.4874,3.2683,0.0,0.0,0.0,0.0,0.0,0.0,0.0,0.0,0.0,0.0,0.0,0.0,0.0,0.0,0.0,0.0,0.0,0.0,0.0,0.0,0.0,0.0,0.0,0.0,0.0,0.0,0.0,0.0,0.0,0.0,0.0,0.0,0.0,0.0,0.0,0.0,0.0,0.0,0.0,0.0,0.0,3.3775,3.6156,3.7502,3.8694,0.0,0.0,4.0877,4.159,4.0858,4.0073,3.9683,0.0,0.0,0.0,0.0,0.0,0.0,0.0,0.0,0.0,0.0,0.0,0.0,0.0,0.0,0.0,0.0,0.0,0.0,0.0,0.0,0.0,0.0,0.0,0.0,0.0,0.0,0.0,0.0,0.0,0.0,0.0,0.0,0.0,0.0,0.0,0.0,0.0,0.0,0.0,0.0,0.0,0.0,0.0,0.0,0.0,0.0,0.0,0.0,0.0,0.0,0.0,0.0,0.0,2.7969,3.1525,3.3911,3.602,3.7813,3.8132,3.8201,3.8063,3.671,3.4797,0.0,0.0,0.0,0.0,0.0,0.0,0.0,0.0,0.0,0.0,0.0,0.0,0.0,0.0,0.0,0.0,0.0,0.0,0.0,0.0,0.0,0.0,0.0,0.0,0.0,0.0,0.0,0.0,2.1167,2.1863,2.2201,0.0,0.0,0.0,0.0,0.0,0.0,0.0,0.0,0.0,0.0,3.5966,3.8655,4.0118,0.0,0.0,4.3516,4.4085,4.4424,4.3959,4.313,4.1994,4.0077,0.0,0.0,0.0,0.0,0.0,0.0,0.0,0.0,0.0,0.0,0.0,0.0,0.0,0.0,0.0,0.0,0.0,0.0,0.0,0.0,0.0,0.0,0.0,0.0,0.0,0.0,0.0,0.0,0.0,0.0,0.0,0.0,0.0,0.0,0.0,0.0,0.0,0.0,0.0,0.0,0.0,0.0,0.0,0.0,0.0,0.0,0.0,0.0,0.0,0.0,0.0,0.0,2.8893,3.2254,3.5001,3.7246,3.8944,3.9652,3.9977,3.9951,3.8905,3.7271,0.0,0.0,0.0,0.0,0.0,0.0,0.0,0.0,0.0,0.0,0.0,0.0,0.0,0.0,0.0,0.0,0.0,0.0,0.0,0.0,0.0,0.0,0.0,0.0,0.0,0.0,0.0,0.0,2.2892,2.3481,2.3823,0.0,0.0,0.0,0.0,0.0,0.0,0.0,0.0,0.0,0.0,3.8497,4.1089,4.265,4.3938,4.5059,4.5869,4.6364,4.6307,4.6044,4.5366,4.3998,0.0,0.0,0.0,0.0,0.0,0.0,0.0,0.0,0.0,0.0,0.0,0.0,0.0,0.0,0.0,0.0,0.0,0.0,0.0,0.0,0.0,0.0,0.0,0.0,0.0,0.0,0.0,0.0,0.0,0.0,0.0,0.0,0.0,0.0,0.0,0.0,0.0,0.0,0.0,0.0,0.0,0.0,0.0,0.0,0.0,0.0,0.0,0.0,0.0,0.0,0.0,0.0,0.0,0.0,3.298,3.6256,3.8732,4.0541,4.1655,4.2448,4.2836,4.142,3.9947,3.8372,0.0,0.0,0.0,0.0,0.0,0.0,0.0,0.0,0.0,0.0,0.0,0.0,0.0,0.0,0.0,0.0,0.0,0.0,0.0,0.0,0.0,0.0,0.0,0.0,0.0,0.0,2.3714,2.453,2.5108,0.0,0.0,0.0,0.0,0.0,0.0,0.0,0.0,0.0,0.0,3.8706,4.1356,4.3357,4.4924,4.6045,4.6615,4.7071,4.7245,4.69,4.6693,4.6351,0.0,0.0,0.0,0.0,0.0,0.0,0.0,0.0,0.0,0.0,0.0,0.0,0.0,0.0,0.0,0.0,0.0,0.0,0.0,0.0,0.0,0.0,0.0,0.0,0.0,0.0,0.0,2.0605,2.0527,0.0,0.0,0.0,0.0,0.0,0.0,0.0,0.0,0.0,0.0,0.0,2.9799,2.9974,0.0,0.0,0.0,0.0,0.0,0.0,0.0,0.0,0.0,0.0,0.0,0.0,3.1704,3.5631,3.8434,4.0836,4.2894,4.3838,4.4412,4.472,4.4142,4.2389,3.9378,0.0,0.0,0.0,0.0,0.0,0.0,0.0,0.0,0.0,0.0,0.0,0.0,0.0,0.0,0.0,0.0,0.0,0.0,0.0,0.0,0.0,0.0,0.0,0.0,0.0,2.5394,0.0,0.0,0.0,0.0,0.0,0.0,0.0,0.0,0.0,0.0,0.0,3.6116,3.9579,4.168,4.3776,4.6227,4.7241,4.8052,0.0,0.0,0.0,0.0,0.0,0.0,0.0,0.0,0.0,0.0,0.0,0.0,0.0,0.0,4.373,4.036,3.9733,3.9713,3.9584,0.0,0.0,0.0,0.0,0.0,0.0,0.0,0.0,0.0,0.0,0.0,0.0,0.0,0.0,0.0,0.0,2.26,0.0,0.0,0.0,0.0,0.0,0.0,0.0,0.0,3.0948,3.2799,3.4351,3.4592,3.4922,0.0,3.4782,3.2727,0.0,0.0,0.0,0.0,0.0,0.0,0.0,0.0,3.4001,3.78,4.0594,4.2854,4.4587,4.5722,4.6318,4.6418,4.6141,4.446,4.1306,3.8643,3.5645,0.0,0.0,0.0,0.0,0.0,0.0,0.0,0.0,0.0,0.0,0.0,0.0,0.0,0.0,0.0,0.0,0.0,0.0,0.0,0.0,0.0,0.0,0.0,2.7588,0.0,0.0,0.0,0.0,0.0,0.0,0.0,0.0,0.0,3.4173,3.6477,3.9339,4.2402,4.4254,4.6085,4.8091,0.0,0.0,0.0,0.0,0.0,0.0,0.0,5.0385,4.9441,4.9709,5.0004,4.9849,5.0037,5.027,5.0508,0.0,0.0,4.5508,4.4814,4.4938,4.4822,4.5629,4.6334,4.6334,4.7293,4.8384,0.0,0.0,0.0,0.0,0.0,0.0,0.0,0.0,2.6778,2.6798,0.0,2.5939,0.0,0.0,0.0,0.0,0.0,0.0,0.0,0.0,3.5724,3.7724,3.9229,4.0174,4.0578,4.0389,3.9863,3.9094,3.7937,3.3093,0.0,0.0,0.0,0.0,0.0,0.0,3.6477,3.9477,4.2622,4.4757,4.5795,4.7242,4.8026,4.8035,4.739,4.6129,4.4238,4.2214,3.9794,3.6899,3.4288,0.0,0.0,0.0,0.0,0.0,0.0,0.0,0.0,0.0,0.0,0.0,0.0,0.0,0.0,0.0,0.0,0.0,0.0,0.0,0.0,2.8908,0.0,0.0,0.0,0.0,0.0,0.0,0.0,0.0,0.0,0.0,3.7745,3.9876,4.2304,4.4228,0.0,0.0,0.0,0.0,5.1552,5.1581,5.2309,5.2605,5.201,5.2114,5.2097,5.1445,0.0,0.0,5.3288,5.3378,5.3623,5.4251,5.4855,5.4187,5.0656,5.0407,5.0703,5.0733,5.1211,5.166,5.1719,5.2191,5.3048,3.0489,0.0,0.0,0.0,0.0,2.9143,2.9527,3.0005,3.0574,3.0799,3.0765,3.0344,0.0,0.0,0.0,0.0,0.0,0.0,3.6379,3.7799,3.995,4.1539,4.2624,4.3115,4.3341,4.3289,4.3146,4.2741,4.2049,4.0595,3.7293,3.2412,0.0,0.0,0.0,0.0,3.9564,4.2574,4.4752,4.6456,4.775,4.8445,4.891,4.9137,4.8593,4.7732,4.6551,4.5217,4.3198,4.0421,3.8546,0.0,0.0,0.0,0.0,0.0,0.0,0.0,0.0,0.0,0.0,0.0,0.0,0.0,0.0,0.0,0.0,0.0,0.0,0.0,3.1543,3.2458,3.2717,0.0,0.0,0.0,0.0,0.0,0.0,0.0,0.0,0.0,4.4476,4.4812,4.5896,0.0,0.0,5.0413,5.1585,5.2302,5.2889,5.3342,0.0,0.0,0.0,5.4291,5.4281,5.4072,5.497,5.6077,5.7214,5.7393,5.7453,5.7663,5.8258,5.8294,5.7351,5.6016,5.53,5.527,5.5752,5.6199,5.6258,5.6735,5.7421,3.4728,3.3279,3.1689,3.1541,3.2341,3.2629,3.321,3.3978,3.4604,3.4879,3.4875,3.4812,3.4952,3.5213,3.5228,0.0,0.0,0.0,4.0809,4.1932,4.3919,4.5325,4.6149,4.6584,4.6745,4.6745,4.6558,4.6258,4.5942,4.5528,4.3241,3.9164,0.0,0.0,3.7635,3.987,4.2233,4.4618,4.636,4.7723,4.878,4.9137,4.9396,4.959,4.9264,4.8773,4.8033,4.7259,4.5677,4.3176,4.1885,3.9641,0.0,0.0,0.0,0.0,0.0,0.0,0.0,0.0,0.0,0.0,0.0,2.3644,0.0,0.0,0.0,0.0,3.132,3.3125,3.4911,3.5794,0.0,0.0,0.0,0.0,0.0,0.0,0.0,4.3267,4.5839,4.7961,4.9291,4.9435,4.9836,5.1012,5.1687,5.2445,5.3585,0.0,5.4635,5.5269,5.5543,5.5987,5.6645,5.6735,5.6825,5.712,5.7752,5.862,5.9668,6.0086,6.0296,6.0386,6.1014,6.1642,6.1642,6.0835,5.9937,5.9279,5.9608,6.0057,6.0086,6.0416,6.0864,3.8679,3.8714,3.5666,3.5167,3.6286,3.6381,3.7096,3.8263,3.8753,3.8965,3.8985,3.9295,3.9603,3.9893,4.0878,0.0,0.0,4.3545,4.4938,4.5729,4.754,4.8837,4.9569,5.0037,5.0308,5.0259,4.9791,4.9544,4.947,4.8534,4.7634,4.667,4.3808,4.1851,4.0974,4.2946,4.4627,4.5921,4.7608,4.8689,4.9187,4.9504,4.964,4.959,4.959,4.9364,4.8894,4.8582,4.7427,4.5331,4.4502,4.2573,3.9391,0.0,0.0,0.0,0.0,0.0,0.0,0.0,0.0,0.0,0.0,0.0,0.0,0.0,0.0,0.0,3.535,0.0,3.7944,3.9041,0.0,0.0,0.0,4.1734,4.2577,4.4198,4.5883,4.7487,0.0,0.0,0.0,0.0,5.3987,5.3451,5.3779,5.4364,5.5303,5.5987,5.6641,5.7244,5.7872,5.8504,5.9129,5.9368,5.9638,6.0206,6.0413,6.0685,6.1345,6.1912,6.2301,6.2331,6.3288,6.4036,6.4066,6.4425,6.4575,6.278,6.281,6.3197,6.3108,6.3169,6.3467,4.1241,4.1246,4.0771,3.9982,3.9125,3.9763,4.0423,4.1139,4.2435,4.2995,4.3052,4.3848,4.4258,4.4531,4.5444,4.5835,4.5939,4.745,4.8387,4.8854,4.971,5.0381,5.0839,5.0964,5.1039,5.1014,5.0914,5.0839,5.0839,5.0589,4.9999,4.9075,4.8164,4.6605,4.4559,4.5908,4.6965,4.7665,4.9142,4.9962,5.0087,5.0185,5.0017,4.9615,4.959,4.954,4.9389,4.9325,4.8666,4.7288,4.6645,4.5015,4.2168,3.9942,0.0,0.0,0.0,0.0,0.0,0.0,0.0,0.0,0.0,2.8912,3.0999,0.0,3.3147,0.0,3.838,4.0641,4.1424,4.2696,0.0,0.0,4.4955,4.6049,4.7283,4.9017,5.054,5.1575,5.3259,5.4738,5.5668,5.656,5.7408,5.8181,5.7165,5.6567,5.7307,5.7992,5.865,5.9249,5.9548,6.0027,6.1164,6.1822,6.2301,6.2959,6.3049,6.3318,6.3947,6.4187,6.4306,6.4306,6.4516,6.4755,6.4815,6.5712,6.6311,6.5862,6.5173,6.4545,6.4545,6.4964,6.5503,4.33,4.3852,4.4258,4.4216,4.3806,4.3212,4.3338,4.4033,4.5414,4.5989,4.6082,4.7346,4.803,4.8344,4.9222,4.9659,4.9708,5.0792,5.1401,5.1621,5.2145,5.2557,5.2788,5.2788,5.2788,5.2763,5.2763,5.2763,5.2763,5.2512,5.1974,5.1221,5.0871,4.9856,4.8251,4.8124,4.8332,4.8857,5.0145,5.067,5.0386,5.0386,5.0167,4.9615,4.959,4.959,4.959,4.9396,4.8837,4.7958,4.7375,4.6195,4.422,4.2261,4.0149,0.0,0.0,0.0,0.0,0.0,0.0,0.0,0.0,0.0,0.0,0.0,3.6954,0.0,4.2138,0.0,4.4994,4.6542,4.783,4.8514,4.9283,5.0392,5.1953,5.3275,5.4429,5.5476,5.6588,5.7511,5.8193,5.8689,5.9488,6.0805,6.0266,5.9668,5.9521,6.0027,6.0655,6.1311,6.1701,6.2181,6.3258,6.3707,6.4066,6.4366,6.4455,6.4575,6.4934,6.5503,6.5892,6.5891,6.637,6.6759,6.6789,6.7328,6.7867,6.7777,6.7328,6.6849,6.6789,6.7089,6.7478,4.5464,4.6519,4.6969,4.7854,4.8757,4.6894,4.6429,4.6981,4.8146,4.8671,4.8869,5.0298,5.1117,5.1511,5.2317,5.268,5.274,5.3468,5.3808,5.3858,5.4371,5.4597,5.4597,5.4597,5.4597,5.4597,5.4597,5.4597,5.4572,5.4059,5.3582,5.3096,5.2578,5.2076,5.1582,5.01,4.949,4.9916,5.0896,5.1147,5.0612,5.0619,5.0343,4.9741,4.9715,4.9665,4.959,4.917,4.8642,4.8058,4.7575,4.6853,4.5748,4.4195,4.261,0.0,3.8919,0.0,0.0,0.0,0.0,0.0,0.0,0.0,0.0,3.9171,4.143,4.3527,4.6043,4.7827,4.8598,5.0409,5.1959,5.2862,5.3543,5.4626,5.619,5.6936,5.7764,5.8867,5.9205,5.9638,6.0356,6.0503,6.0954,6.2271,6.2869,6.272,6.1942,6.2121,6.266,6.3258,6.3857,6.4366,6.5054,6.5353,6.5473,6.5503,6.5652,6.5503,6.5652,6.652,6.7238,6.7328,6.8106,6.8854,6.9004,6.9004,6.9093,6.9064,6.9093,6.9064,6.8854,6.8914,6.9153,4.8933,4.9211,4.9928,5.04,5.0664,5.1188,5.096,5.029,5.1453,5.2304,5.2875,5.3187,5.3555,5.3933,5.4104,5.419,5.419,5.4361,5.4446,5.4446,5.4547,5.4597,5.4597,5.4597,5.4597,5.4597,5.4597,5.4597,5.4597,5.4496,5.4396,5.427,5.3683,5.3356,5.3206,0.0,0.0,0.0,5.185,5.19,5.1774,5.1774,5.1297,5.0285,5.0268,0.0,4.9615,4.949,4.9188,4.8667,4.8542,0.0,0.0,0.0,0.0,0.0,0.0,0.0,0.0,0.0,0.0,0.0,4.2922,4.2517,4.0996,4.3312,4.546,4.6885,4.8983,5.0809,5.2154,5.3726,5.5193,5.6326,5.7434,5.8374,5.8942,5.9721,6.0422,6.0602,6.0717,6.1194,6.2299,6.2539,6.2989,6.4157,6.4545,6.4545,6.4306,6.4306,6.4486,6.4665,6.5263,6.5862,6.652,6.7029,6.7478,6.8046,6.8256,6.8166,6.8136,6.8315,6.8615,6.8615,6.8824,6.9034,6.9034,6.9423,6.9782,6.9782,7.0171,7.0231,6.9243,6.9453,6.9961,5.1066,0.0,5.2141,5.2506,0.0,5.3802,5.3876,5.3325,5.3386,5.3742,5.4302,5.4577,5.4784,5.4988,5.5265,5.539,5.5365,5.5365,5.539,5.5365,5.5365,5.5365,5.5401,5.5365,5.5365,5.539,5.539,5.539,5.539,5.539,5.5239,5.4999,5.4938,5.4813,5.4536,5.4536,5.4009,5.2904,5.3181,5.3181,5.2904,5.2653,5.2101,5.1297,0.0,0.0,0.0,0.0,0.0,0.0,0.0,0.0,0.0,0.0,0.0,4.6276,4.497,4.4375,4.48,4.4626,4.516,4.6781,4.8129,4.7983,4.5762,4.738,4.9128,5.0649,5.2568,5.422,5.5452,5.6823,5.7998,5.8887,5.9549,6.0273,6.1237,6.1767,6.2331,6.29,6.302,6.3289,6.3947,6.4036,6.4425,6.5293,6.5503,6.5742,6.6281,6.5891,6.5682,6.637,6.7059,6.7597,6.7926,6.8226,6.8586,6.8914,6.9004,6.9004,6.9004,6.9273,6.9482,6.9512,6.9722,6.9931,6.9961,7.0231,7.044,7.05,7.0949,7.1218,7.053,7.0679,7.1009,5.274,5.3469,5.3863,5.4254,5.4682,5.5386,5.5705,5.5631,0.0,0.0,0.0,5.534,5.5541,5.5566,5.6018,5.6219,5.6219,5.6219,5.6232,5.6344,5.6344,5.642,5.652,5.652,5.6445,5.6369,5.647,5.6445,5.6369,5.6445,5.6294,5.5917,5.6294,5.6294,5.5892,5.6294,5.5817,5.4536,5.4748,5.4622,5.4009,5.3582,5.302,5.2402,5.195,5.1674,5.1574,5.1122,5.0812,5.0812,5.0419,5.0167,5.0167,4.9698,4.9396,4.9346,4.8473,4.8277,4.9044,4.8793,4.9353,5.1064,5.2523,5.252,5.0546,5.1253,5.2517,5.4268,5.5929,5.7331,5.8465,5.9538,6.0497,6.1221,6.1336,6.1955,6.3229,6.3408,6.3797,6.4785,6.4874,6.5054,6.5114,6.5144,6.5473,6.6161,6.64,6.6759,6.7718,6.7238,6.6999,6.7898,6.8405,6.8944,6.9153,6.9153,6.9213,6.9423,6.9393,6.9333,6.9423,6.9782,7.0111,7.0173,7.059,7.0799,7.0889,7.0859,7.0949,7.1068,7.1487,7.1969,7.2056,7.2146,7.2235,5.4622,5.477,5.5176,5.5373,5.546,5.5926,5.6146,5.6109,5.5934,5.5931,5.5993,5.6068,5.6093,5.6093,5.6168,5.6219,5.6219,5.6219,5.647,0.0,5.6885,5.7173,5.765,5.7675,5.7399,5.696,5.7424,5.7399,5.6985,5.7424,5.7625,5.7549,5.7625,5.76,5.7549,5.7625,5.7549,5.7298,5.642,5.5717,5.5164,5.5089,5.4536,5.3532,5.3406,5.3155,5.2669,5.2594,5.2544,5.2544,5.2468,5.2452,5.2418,5.1925,5.1624,5.1599,5.1319,5.1187,5.1329,5.1839,5.2772,5.4141,5.5247,5.5309,5.4043,5.4479,5.5509,5.7079,5.8078,5.9215,6.091,6.1792,6.2646,6.3773,6.4189,6.4486,6.4695,6.4725,6.4845,6.5114,6.4994,6.5323,6.5892,6.5921,6.643,6.7388,6.7718,6.8017,6.8585,6.8704,6.8645,6.8824,6.8944,6.9243,6.9692,6.9842,7.0021,7.056,7.056,7.05,7.047,7.059,7.0709,7.0739,7.0829,7.0889,7.0919,7.0919,7.1158,7.1577,7.1846,7.2146,7.2654,7.3163,7.3552,5.5669,5.5669,5.5852,5.5926,5.5962,5.6146,5.6219,5.6219,5.6219,5.6219,5.6219,5.6219,5.6219,5.6219,5.6219,5.6369,5.6609,5.6609,5.6972,5.7474,5.7499,5.7625,5.7876,5.7901,5.775,5.7524,5.775,5.7775,5.7549,5.7775,5.7901,5.7926,5.8177,5.8478,5.8755,5.8755,5.8755,5.873,5.7675,5.6997,5.6771,5.6445,5.6018,5.5516,5.5239,5.4963,5.4677,5.4677,5.4712,5.4677,5.4436,5.426,5.4235,5.3733,5.3536,5.3718,5.3834,5.4193,5.4801,5.604,5.7287,5.844,5.913,5.9516,5.9513,5.8586,5.8799,6.0501,6.128,6.2083,6.3178,6.3654,6.4159,6.4755,6.4905,6.5144,6.5533,6.5892,6.6251,6.658,6.6969,6.7298,6.7597,6.7627,6.7777,6.8465,6.8794,6.9215,6.9482,6.9812,6.9871,6.9632,6.9812,7.0141,7.041,7.047,7.062,7.0859,7.0889,7.0919,7.0919,7.0919,7.0919,7.0919,7.0919,7.0919,7.0919,7.1218,7.1547,7.1849,7.2598,7.3073,7.3462,7.3971,7.439,5.6219,5.6219,5.6219,5.6257,5.6383,5.6545,5.6595,5.6595,5.6595,5.6595,5.657,5.6445,5.6358,5.6383,5.652,5.6784,5.7161,5.7186,5.7524,5.8052,5.8077,5.8127,5.8252,5.8252,5.8202,5.8127,5.8202,5.8202,5.8102,5.8202,5.8252,5.8303,5.8679,5.9106,5.9483,5.9508,5.9508,5.9458,5.8805,5.8328,5.8077,5.7612,5.7311,5.7161,5.6821,5.6595,5.6595,5.6595,5.6595,5.657,5.6194,5.5968,5.5942,5.5649,5.5577,5.5898,5.6476,5.7373,5.8552,5.9939,6.1114,6.1936,6.2294,6.2892,6.3722,6.2446,6.1911,6.3275,6.3763,6.4305,6.4784,6.5054,6.5323,6.5592,6.5652,6.6071,6.661,6.7148,6.7627,6.8197,6.8675,6.8944,6.9004,6.9004,6.9034,6.9213,6.9782,7.0171,7.026,7.062,7.0649,7.044,7.059,7.0829,7.0919,7.0889,7.0889,7.0919,7.0919,7.0919,7.0919,7.1009,7.1128,7.1188,7.1338,7.1457,7.1457,7.1757,7.2176,7.2475,7.3193,7.3851,7.4091,7.4582,7.4976,5.6244,5.6219,5.6269,5.6495,5.696,5.7499,5.77,5.77,5.7725,5.775,5.7625,5.7161,5.6935,5.701,5.7499,5.7725,5.7826,5.7826,5.8127,5.8604,5.8654,5.888,5.9257,5.9332,5.9106,5.8716,5.9081,5.9031,5.8641,5.9106,5.9332,5.9357,5.9408,5.9483,5.9508,5.9533,5.9508,5.9508,5.9885,5.9595,5.8666,5.8579,5.829,5.7826,5.7775,5.775,5.7826,5.775,5.775,5.775,5.77,5.7675,5.7687,5.7948,5.812,5.8206,5.9503,6.09,6.2144,6.2771,6.3188,6.3322,6.3518,6.4109,6.5224,6.5165,6.4809,6.4692,6.4574,6.5052,6.5741,6.5951,6.649,6.7418,6.7598,6.7956,6.8465,6.8764,6.8854,6.8884,6.9034,6.9004,6.9153,6.9153,6.9333,6.9842,7.035,7.0709,7.0739,7.0799,7.0889,7.0799,7.0919,7.0919,7.0919,7.0919,7.1009,7.0979,7.0949,7.1068,7.1218,7.1487,7.1787,7.1846,7.2235,7.2505,7.2565,7.2834,7.3013,7.3313,7.3762,7.4125,7.4668,7.5078,7.5278,5.7198,5.7223,5.7198,5.7323,5.7575,5.7801,5.7901,5.7901,5.7901,5.7901,5.7926,5.7976,5.7813,5.7575,5.7801,5.8077,5.8378,5.8378,5.8679,5.9156,5.9182,5.9307,5.9483,5.9508,5.9357,5.9207,5.9408,5.9382,5.9307,5.9734,6.0161,6.0462,6.0487,6.0487,6.0512,6.0487,6.0487,6.0512,6.0713,6.0613,6.0236,6.0186,6.0085,5.9885,5.9834,5.9834,5.9834,5.9834,5.9834,5.9809,5.9508,5.9448,5.9679,5.9237,5.927,6.0027,6.1549,6.3092,6.4454,6.5103,6.5759,6.6427,6.6479,6.6825,6.7468,6.7561,6.7441,6.7202,6.6844,6.6906,6.7596,6.7777,6.8016,6.8495,6.8585,6.8704,6.8944,6.9363,6.9572,6.9602,6.9901,7.0111,7.0141,7.0111,7.0231,7.05,7.0769,7.0889,7.0919,7.0919,7.0919,7.0981,7.1381,7.1473,7.1133,7.1248,7.146,7.158,7.1846,7.2086,7.2119,7.2235,7.2505,7.2538,7.2837,7.3017,7.2834,7.3283,7.3612,7.4005,7.4334,7.4638,7.5112,7.5312,7.5516,5.7901,5.7926,5.8052,5.8127,5.8127,5.8278,5.8328,5.8328,5.8353,5.8353,5.8378,5.8755,5.873,5.8378,5.8328,5.8554,5.8905,5.893,5.9131,5.9483,5.9508,5.9508,5.9508,5.9508,5.9508,5.9508,5.9483,5.9583,5.9759,6.0286,6.0763,6.114,6.119,6.119,6.119,6.119,6.119,6.119,6.1316,6.1416,6.1416,6.1567,6.1492,6.124,6.119,6.119,6.119,6.119,6.119,6.1165,6.0882,6.0877,6.1165,6.075,6.12,6.2741,6.4223,6.5696,6.703,6.758,6.8194,6.8877,6.8832,6.8752,6.8972,6.9004,6.9093,6.9183,6.8856,6.8675,6.8884,6.9004,6.9064,6.9213,6.9273,6.9363,6.9812,7.0293,7.053,7.0592,7.0889,7.1068,7.0949,7.0859,7.0829,7.0859,7.0889,7.0919,7.0949,7.1133,7.1381,7.1381,7.2312,7.2497,7.1658,7.2054,7.2382,7.2565,7.2929,7.3139,7.3253,7.3313,7.3494,7.3693,7.3647,7.3827,7.4138,7.4402,7.4425,7.4545,7.4816,7.5214,7.5516,7.5617,7.6011,5.7901,5.8001,5.8478,5.8679,5.873,5.9182,5.9382,5.9307,5.9357,5.9382,5.9332,5.9408,5.9433,5.9357,5.9307,5.9408,5.9433,5.9433,5.9433,5.9508,5.9508,5.9508,5.9508,5.9508,5.9508,5.9558,5.9583,5.9834,6.0272,6.0864,6.118,6.1215,6.1266,6.124,6.1266,6.1291,6.1255,6.1341,6.1743,6.1969,6.2019,6.243,6.2195,6.1366,6.1215,6.1266,6.124,6.1215,6.1215,6.1215,6.1587,6.1774,6.1906,6.291,6.4505,6.6643,6.7961,6.9173,7.0089,7.0204,7.0242,7.0254,6.9677,6.9062,6.9273,6.9303,6.9482,6.9871,6.9933,6.9722,6.9273,6.9273,6.9423,6.9931,6.9991,7.05,7.161,7.164,7.1787,7.1757,7.1787,7.1667,7.1068,7.0919,7.1071,7.1101,7.1011,7.1071,7.1351,7.1906,7.237,7.2716,7.3404,7.3999,7.2869,7.3172,7.3763,7.3915,7.3973,7.4069,7.4223,7.4405,7.4676,7.4979,7.5216,7.5459,7.5735,7.5829,7.5765,7.5732,7.557,7.5819,7.6021,7.6288,7.6737,5.893,5.893,5.9131,5.9207,5.9232,5.9433,5.9508,5.9508,5.9508,5.9508,5.9508,5.9508,5.9508,5.9508,5.9508,5.9508,5.9508,5.9508,5.9508,5.9508,5.9508,5.9508,5.9508,5.9508,5.9709,5.9985,6.0035,6.0512,6.1341,6.1617,6.1893,6.2195,6.2245,6.2245,6.222,6.222,6.2245,6.227,6.2446,6.248,6.2521,6.2681,6.2621,6.2295,6.2245,6.2245,6.2245,6.2245,6.2366,6.2689,6.2824,6.3239,6.4127,6.5423,6.6716,6.7915,6.911,7.0268,7.1214,7.1576,7.1807,7.1977,7.1721,7.1218,7.0949,7.0829,7.0799,7.0709,7.1009,7.1038,7.0859,7.047,7.047,7.1071,7.1218,7.1517,7.2265,7.2535,7.2535,7.2535,7.2535,7.2445,7.2206,7.2176,7.2275,7.2472,7.2475,7.2576,7.2897,7.3432,7.378,7.4001,7.5042,7.5955,7.5547,7.4995,7.4979,7.5101,7.5223,7.5564,7.5747,7.5951,7.6261,7.6264,7.6531,7.6592,7.6658,7.6592,7.662,7.6488,7.6391,7.6521,7.6554,7.7097,7.77,5.9508,5.9508,5.9508,5.9508,5.9508,5.9508,5.9508,5.9508,5.9508,5.9508,5.9508,5.9508,5.9508,5.9508,5.9508,5.9508,5.9508,5.9508,5.9508,5.9508,5.9508,5.9508,5.9533,5.9684,5.996,6.0297,6.0674,6.1291,6.1943,6.2195,6.2471,6.2756,6.2781,6.2781,6.2781,6.2781,6.2781,6.2781,6.2781,6.2781,6.2781,6.2781,6.2781,6.2822,6.2945,6.2945,6.2822,6.2945,6.3148,6.3473,6.3878,6.4815,6.6302,6.7724,6.878,6.9583,7.0697,7.1679,7.2473,7.2769,7.2988,7.3189,7.3013,7.2684,7.2265,7.2235,7.1996,7.1757,7.1906,7.2206,7.2146,7.1816,7.1757,7.2146,7.2235,7.2505,7.3133,7.3223,7.3223,7.3193,7.3013,7.2957,7.3057,7.306,7.3232,7.3658,7.3756,7.392,7.4245,7.4912,7.5292,7.545,7.6774,7.7591,7.7591,7.7275,7.6987,7.7048,7.6824,7.7126,7.7279,7.7508,7.7605,7.7573,7.7541,7.7508,7.7443,7.7378,7.7313,7.7248,7.731,7.7471,7.7719,7.8088,7.885,5.9508,5.9508,5.9508,5.9508,5.9508,5.9508,5.9508,5.9508,5.9508,5.9508,5.9508,5.9508,5.9508,5.9508,5.9508,5.9508,5.9508,5.9508,5.9508,5.9508,5.9508,5.9508,5.9533,6.001,6.0337,6.0537,6.1492,6.1969,6.2094,6.2521,6.2756,6.2781,6.2781,6.2781,6.2781,6.2781,6.2781,6.2781,6.2781,6.2781,6.2781,6.2781,6.2822,6.2863,6.323,6.327,6.2945,6.3311,6.3595,6.3797,6.4735,6.6355,6.8209,6.9495,7.0716,7.1784,7.2946,7.3742,7.4135,7.3972,7.3877,7.3851,7.3343,7.3103,7.2954,7.2894,7.2864,7.2714,7.2834,7.2894,7.2924,7.2924,7.2924,7.2924,7.2924,7.3193,7.3732,7.3911,7.3911,7.3855,7.3559,7.315,7.3356,7.3702,7.4089,7.4648,7.4812,7.5004,7.5515,7.6365,7.6899,7.7308,7.828,7.9217,7.9407,7.9503,7.9286,7.9067,7.8785,7.8723,7.8786,7.888,7.8974,7.8974,7.8974,7.8911,7.8754,7.8754,7.8754,7.8723,7.8628,7.8658,7.9193,7.9665,8.0193,5.9508,5.9508,5.9508,5.9508,5.9508,5.9508,5.9508,5.9508,5.9508,5.9508,5.9508,5.9508,5.9508,5.9508,5.9508,5.9508,5.9508,5.9508,5.9508,5.9508,5.9508,5.9508,5.9608,6.006,6.0713,6.1492,6.222,6.2531,6.2596,6.2706,6.2781,6.2781,6.2781,6.2781,6.2781,6.2781,6.2781,6.2781,6.2781,6.2781,6.2781,6.2781,6.2945,6.327,6.3433,6.3676,6.4094,6.4254,6.4615,6.5173,6.5858,6.7272,6.9364,7.0772,7.1964,7.3034,7.3731,7.4318,7.4663,7.4651,7.454,7.4574,7.436,7.4031,7.3672,7.3582,7.3402,7.3103,7.3313,7.3582,7.3642,7.4031,7.4031,7.3642,7.3612,7.3851,7.4394,7.4574,7.4706,7.4876,7.4729,7.4912,7.5352,7.5518,7.5883,7.6759,7.6951,7.7113,7.7684,7.825,7.8813,7.9125,8.0055,8.0541,8.0571,8.0661,8.0691,8.0421,8.0178,7.9965,8.0026,8.0208,8.0269,8.036,8.036,8.0299,8.0148,8.0117,8.0116,7.9994,7.9781,8.0164,8.0799,8.1281,8.1666,5.9508,5.9508,5.9508,5.9508,5.9508,5.9508,5.9508,5.9508,5.9508,5.9508,5.9508,5.9508,5.9508,5.9508,5.9508,5.9508,5.9508,5.9508,5.9508,5.9508,5.9508,5.9583,5.9885,6.0613,6.1391,6.222,6.2631,6.2781,6.2781,6.2781,6.2781,6.2781,6.2781,6.2781,6.2781,6.2781,6.2781,6.2781,6.2781,6.2781,6.2822,6.2985,6.3189,6.3514,6.3958,6.4495,6.5173,6.5766,6.6132,6.6406,6.7145,6.8762,7.0699,7.1892,7.2892,7.3766,7.4318,7.4628,7.4869,7.4869,7.4903,7.4903,7.4903,7.4753,7.4364,7.427,7.4031,7.3821,7.4001,7.427,7.433,7.4599,7.4693,7.4364,7.427,7.445,7.4843,7.5006,7.5142,7.535,7.559,7.6276,7.6962,7.742,7.8003,7.9,7.9478,7.9511,8.0012,8.0348,8.059,8.0732,8.0993,8.1319,8.1584,8.1792,8.1996,8.1701,8.1346,8.1142,8.1052,8.1257,8.1434,8.161,8.1639,8.1639,8.1489,8.146,8.146,8.1195,8.105,8.1531,8.2048,8.2458,8.2889,5.9508,5.9508,5.9508,5.9508,5.9508,5.9508,5.9508,5.9508,5.9508,5.9508,5.9508,5.9508,5.9508,5.9508,5.9508,5.9533,5.9558,5.9608,5.9709,5.9734,5.9759,6.001,6.0588,6.1416,6.2119,6.2631,6.2756,6.2781,6.2781,6.2781,6.2781,6.2781,6.2781,6.2781,6.2781,6.2781,6.2781,6.2781,6.2781,6.2822,6.2863,6.323,6.3595,6.3757,6.4761,6.5608,6.6276,6.7557,6.798,6.7299,6.8902,7.0506,7.1855,7.2815,7.3621,7.4283,7.4697,7.4834,7.4869,7.4903,7.4903,7.4903,7.4903,7.4903,7.4779,7.4749,7.4719,7.4659,7.4749,7.4873,7.4933,7.5023,7.5023,7.5057,7.4971,7.4941,7.5031,7.5365,7.5825,7.596,7.6307,7.7222,7.8628,7.9051,8.0044,8.1126,8.1821,8.1813,8.1831,8.1999,8.2159,8.2168,8.2086,8.2036,8.2272,8.2338,8.2543,8.2543,8.2338,8.228,8.2108,8.2309,8.2481,8.2652,8.2732,8.2761,8.2732,8.2619,8.259,8.2477,8.2584,8.2877,8.3231,8.3657,8.4108,5.9508,5.9508,5.9508,5.9508,5.9508,5.9508,5.9508,5.9508,5.9508,5.9558,5.9533,5.9508,5.9558,5.9508,5.9533,5.9709,6.001,6.0111,6.0387,6.0688,6.0738,6.104,6.1492,6.1843,6.2295,6.2772,6.2781,6.2781,6.2781,6.2781,6.2781,6.2781,6.2781,6.2781,6.2781,6.2822,6.2781,6.2781,6.2781,6.2985,6.3311,6.3473,6.3999,6.4894,6.5529,6.6394,6.7403,6.8968,6.9895,6.9905,7.102,7.21,7.2851,7.3556,7.4179,7.4628,7.48,7.4903,7.4903,7.4903,7.4903,7.4903,7.4903,7.4903,7.4903,7.4903,7.4903,7.4903,7.4903,7.5142,7.5497,7.5681,7.5965,7.6507,7.6009,7.5617,7.6017,7.6581,7.7236,7.8032,7.8665,7.9486,8.0293,8.1062,8.1727,8.2639,8.3168,8.3376,8.3423,8.3471,8.3572,8.3224,8.3074,8.2889,8.2859,8.2921,8.3052,8.3165,8.322,8.3388,8.3243,8.3271,8.3382,8.3493,8.3465,8.3465,8.3493,8.3471,8.3526,8.3493,8.3538,8.3593,8.4321,8.4879,8.5343,5.9508,5.9508,5.9508,5.9508,5.9508,5.9508,5.9633,5.9809,5.9834,5.9985,6.0161,6.0211,6.0211,6.0211,6.0211,6.0362,6.0638,6.0688,6.0864,6.114,6.1391,6.1692,6.1994,6.2195,6.2521,6.2772,6.2807,6.2781,6.2781,6.2781,6.2781,6.2781,6.2781,6.2781,6.2822,6.3026,6.3133,6.3148,6.323,6.3554,6.3999,6.424,6.4854,6.5845,6.6472,6.748,6.9081,7.0535,7.1377,7.1667,7.2244,7.2922,7.3591,7.404,7.449,7.4834,7.4903,7.4903,7.4903,7.4903,7.4903,7.4903,7.4903,7.4903,7.4903,7.4869,7.4929,7.5288,7.5288,7.5647,7.616,7.6445,7.6942,7.7577,7.7327,7.7057,7.7316,7.7961,7.8683,7.9495,8.0377,8.1313,8.2111,8.2838,8.3591,8.4311,8.4905,8.4888,8.4803,8.4886,8.4774,8.4361,8.3916,8.3696,8.3442,8.3436,8.3504,8.3643,8.3802,8.4021,8.3993,8.3966,8.4021,8.4048,8.4102,8.4129,8.4075,8.4075,8.4129,8.4129,8.4156,8.4297,8.4842,8.5376,8.594,5.9583,5.9583,5.9633,5.9684,5.9709,5.9684,6.0035,6.0337,6.0412,6.0663,6.1014,6.114,6.1014,6.119,6.0964,6.1205,6.1266,6.1266,6.1341,6.1617,6.1969,6.232,6.2395,6.2772,6.2907,6.3023,6.2932,6.3099,6.3174,6.3124,6.3048,6.3174,6.3165,6.313,6.3395,6.3595,6.3737,6.3884,6.413,6.4521,6.4934,6.5331,6.5963,6.699,6.7941,6.9194,7.0682,7.192,7.253,7.2744,7.278,7.3346,7.4179,7.4318,7.4525,7.48,7.4903,7.4903,7.4903,7.4903,7.4903,7.4903,7.4903,7.4903,7.4933,7.5053,7.5288,7.5736,7.5946,7.634,7.6989,7.7414,7.8192,7.8903,7.9192,7.9229,7.9269,7.9573,8.0008,8.0532,8.1761,8.2872,8.3727,8.4514,8.5231,8.5514,8.6012,8.6058,8.5947,8.597,8.5692,8.5218,8.4805,8.4385,8.4157,8.3954,8.4009,8.4109,8.4265,8.4399,8.4292,8.4292,8.4372,8.4426,8.4372,8.4366,8.4419,8.4507,8.4533,8.4533,8.4399,8.4446,8.4695,8.5256,8.5805,6.0136,6.0186,6.0638,6.0814,6.0814,6.0814,6.0864,6.0989,6.0989,6.109,6.119,6.1215,6.1215,6.1215,6.1316,6.1391,6.1818,6.1893,6.2044,6.2546,6.3073,6.3299,6.3324,6.35,6.35,6.3601,6.3927,6.4078,6.4078,6.4019,6.4145,6.4136,6.4434,6.4668,6.4691,6.5021,6.5165,6.5169,6.5194,6.5581,6.6146,6.6367,6.7106,6.8437,6.9606,7.0829,7.1949,7.2488,7.3028,7.3691,7.3935,7.404,7.4318,7.4594,7.4766,7.4834,7.4903,7.4903,7.4903,7.4903,7.4903,7.4903,7.4903,7.4869,7.4929,7.5407,7.5677,7.6006,7.6335,7.7079,7.8031,7.9167,7.9954,8.0607,8.1147,8.1782,8.251,8.2131,8.2133,8.3066,8.3962,8.4784,8.5289,8.5842,8.6371,8.6717,8.6897,8.7041,8.7031,8.6928,8.6586,8.6081,8.5824,8.5464,8.5095,8.4757,8.4512,8.442,8.4507,8.458,8.4473,8.4446,8.4533,8.456,8.4553,8.458,8.458,8.458,8.4553,8.458,8.458,8.458,8.4722,8.525,8.5662,6.0738,6.0763,6.1065,6.119,6.119,6.119,6.1341,6.1517,6.1567,6.1718,6.1918,6.1969,6.1943,6.1943,6.1969,6.2144,6.2395,6.2697,6.2948,6.3299,6.3776,6.4053,6.4153,6.432,6.4354,6.422,6.4346,6.4496,6.4521,6.4714,6.4805,6.4898,6.5531,6.5734,6.5976,6.6539,6.6881,6.6977,6.6965,6.7301,6.7781,6.7858,6.841,6.983,7.104,7.2057,7.2524,7.3134,7.3691,7.4179,7.449,7.4559,7.4594,7.4766,7.4869,7.4903,7.4903,7.4903,7.4903,7.4903,7.4903,7.4903,7.4903,7.5078,7.5288,7.5736,7.6245,7.6729,7.7354,7.8092,7.9498,8.0295,8.1361,8.2177,8.278,8.3571,8.4315,8.3931,8.3739,8.4793,8.5484,8.5919,8.6383,8.6749,8.693,8.705,8.705,8.7226,8.7282,8.7242,8.7264,8.6983,8.6849,8.655,8.6108,8.5654,8.5081,8.4811,8.456,8.458,8.4553,8.4553,8.458,8.458,8.458,8.458,8.458,8.458,8.458,8.458,8.458,8.458,8.4681,8.4932,8.5371,6.1316,6.1316,6.1391,6.1441,6.1441,6.1466,6.1743,6.2094,6.2144,6.2345,6.2747,6.2781,6.2672,6.2731,6.2706,6.2781,6.3099,6.35,6.3776,6.3852,6.4354,6.4622,6.4748,6.5007,6.5157,6.4798,6.4873,6.4873,6.5084,6.5301,6.5797,6.5853,6.6697,6.7279,6.7436,6.8158,6.8905,6.8984,6.9116,6.9439,6.9846,6.984,7.0361,7.1313,7.205,7.2738,7.3128,7.3726,7.4318,7.4387,7.4697,7.4869,7.4903,7.4903,7.4903,7.4903,7.4903,7.4903,7.4903,7.4903,7.4903,7.4903,7.5018,7.5288,7.5736,7.6185,7.6854,7.77,7.8463,7.9468,8.0986,8.1703,8.2412,8.3243,8.4025,8.4699,8.5268,8.5204,8.5392,8.5766,8.6199,8.6537,8.681,8.708,8.72,8.7319,8.7319,8.7349,8.7438,8.7523,8.7574,8.7712,8.7606,8.7394,8.7015,8.6392,8.5844,8.5324,8.4884,8.4783,8.4715,8.458,8.458,8.458,8.458,8.458,8.458,8.458,8.458,8.458,8.458,8.458,8.458,8.458,8.5114,6.1868,6.1918,6.237,6.2505,6.2546,6.2546,6.2546,6.2631,6.2606,6.2681,6.2781,6.2781,6.2781,6.2832,6.2807,6.3032,6.3576,6.4078,6.4371,6.4471,6.4923,6.5157,6.5258,6.5609,6.5835,6.5886,6.5845,6.5983,6.6374,6.6857,6.72,6.7763,6.8816,6.9391,6.964,7.03,7.0915,7.1109,7.1186,7.1457,7.1896,7.2029,7.2251,7.2944,7.3245,7.3545,7.3949,7.4204,7.4456,7.4766,7.4834,7.4929,7.5018,7.5018,7.4988,7.4903,7.4903,7.4903,7.4903,7.4929,7.4899,7.5023,7.5407,7.5736,7.6155,7.6849,7.766,7.8544,7.9725,8.0856,8.1464,8.258,8.3571,8.4379,8.5047,8.5704,8.6261,8.6383,8.6289,8.6535,8.678,8.69,8.708,8.72,8.7259,8.7349,8.7378,8.7467,8.7552,8.7699,8.7841,8.8074,8.8295,8.8109,8.785,8.7141,8.6507,8.5993,8.5554,8.5215,8.508,8.4715,8.458,8.4614,8.4614,8.458,8.458,8.458,8.458,8.458,8.458,8.458,8.458,8.4614,8.4884,6.238,6.2471,6.2681,6.2781,6.2781,6.2781,6.2781,6.2781,6.2781,6.2781,6.2781,6.2807,6.3023,6.3199,6.3274,6.3576,6.4103,6.4697,6.4898,6.5049,6.5434,6.571,6.5685,6.6011,6.6258,6.6429,6.6686,6.6924,6.7265,6.8125,6.8711,6.935,7.0486,7.1217,7.1566,7.2225,7.2796,7.3096,7.3099,7.3141,7.3529,7.3517,7.3764,7.4198,7.4506,7.4793,7.5222,7.5538,7.5677,7.5881,7.5916,7.5886,7.5856,7.5796,7.5557,7.5078,7.4929,7.4899,7.4988,7.5138,7.5407,7.5497,7.6006,7.6544,7.6974,7.7654,7.8624,7.9725,8.0468,8.1734,8.2646,8.3637,8.4475,8.5205,8.5892,8.6383,8.6749,8.696,8.702,8.702,8.711,8.717,8.72,8.7289,8.7319,8.7378,8.7404,8.7582,8.7758,8.7962,8.8165,8.8362,8.8586,8.8453,8.83,8.7826,8.7211,8.6636,8.6264,8.596,8.5587,8.5317,8.4884,8.4647,8.4614,8.4715,8.458,8.458,8.458,8.458,8.458,8.458,8.458,8.4681,8.4918,6.2781,6.2781,6.2781,6.2781,6.2781,6.2781,6.2781,6.2781,6.2781,6.2781,6.2807,6.2932,6.3274,6.3651,6.3952,6.4254,6.4722,6.5208,6.5434,6.5534,6.5835,6.6086,6.624,6.6326,6.6515,6.7154,6.7704,6.7899,6.8235,6.9154,6.9995,7.0853,7.1929,7.2687,7.3146,7.3706,7.4412,7.4656,7.4678,7.462,7.4674,7.458,7.4721,7.5319,7.5694,7.594,7.6241,7.6423,7.6594,7.6659,7.6724,7.6754,7.6814,7.6814,7.6335,7.5467,7.5288,7.5258,7.5437,7.5736,7.6066,7.6096,7.6664,7.7268,7.797,7.8634,7.9629,8.0925,8.187,8.2546,8.3637,8.4571,8.5267,8.5859,8.6474,8.693,8.6957,8.711,8.723,8.7259,8.7349,8.7345,8.7378,8.7467,8.7464,8.7585,8.764,8.79,8.8074,8.8276,8.8477,8.8677,8.8779,8.8689,8.8598,8.8463,8.7854,8.7313,8.7042,8.6805,8.6399,8.6027,8.5587,8.5182,8.5012,8.508,8.485,8.4614,8.458,8.458,8.458,8.458,8.458,8.458,8.4715,6.2781,6.2781,6.2781,6.2781,6.2781,6.2781,6.2781,6.2781,6.2832,6.2781,6.2948,6.3375,6.3651,6.3952,6.4756,6.5082,6.5358,6.566,6.5936,6.5936,6.6079,6.6369,6.6669,6.6711,6.7281,6.7999,6.8836,6.9237,6.9624,7.0363,7.1258,7.2302,7.3162,7.3974,7.4296,7.4721,7.5259,7.5573,7.5601,7.5799,7.6051,7.5901,7.6073,7.6335,7.6437,7.6527,7.6871,7.7012,7.6988,7.6993,7.6868,7.6874,7.6844,7.6844,7.6749,7.6599,7.6569,7.6569,7.6479,7.6599,7.6724,7.6844,7.7358,7.7859,7.869,7.9794,8.0794,8.1433,8.2613,8.3701,8.4571,8.5485,8.6167,8.6565,8.6897,8.717,8.723,8.7137,8.7289,8.7404,8.7464,8.7434,8.7434,8.7552,8.767,8.7787,8.7933,8.8161,8.8391,8.8591,8.8733,8.8903,8.8959,8.8875,8.8835,8.8734,8.8463,8.7922,8.7786,8.7617,8.7144,8.6704,8.6332,8.5993,8.579,8.5486,8.5256,8.5019,8.4749,8.458,8.458,8.458,8.458,8.458,8.4614,6.2781,6.2781,6.2781,6.2781,6.2781,6.2781,6.2781,6.2857,6.3133,6.3324,6.3425,6.3902,6.432,6.4705,6.5434,6.5735,6.581,6.6011,6.6112,6.6197,6.6369,6.6626,6.6882,6.7324,6.7999,6.8961,6.9871,7.0934,7.1419,7.1982,7.2699,7.3437,7.4218,7.4837,7.5221,7.545,7.5754,7.6057,7.6208,7.6425,7.6704,7.676,7.6946,7.7502,7.7394,7.7563,7.7784,7.7921,7.7951,7.7951,7.7921,7.7921,7.7951,7.7951,7.7921,7.7951,7.7951,7.7592,7.6993,7.7167,7.7352,7.7603,7.817,7.9082,7.9847,8.0764,8.1904,8.2746,8.3669,8.4603,8.5423,8.6167,8.6626,8.702,8.72,8.7259,8.7319,8.7319,8.7349,8.7464,8.764,8.7699,8.7758,8.7933,8.8049,8.8049,8.8194,8.842,8.862,8.879,8.8903,8.9016,8.9072,8.9066,8.9032,8.8998,8.8965,8.8592,8.8592,8.8328,8.7786,8.738,8.7076,8.6771,8.6501,8.6169,8.5797,8.5324,8.4918,8.4749,8.458,8.4783,8.4952,8.4715,8.4918,6.2781,6.2781,6.2781,6.2781,6.2781,6.2781,6.2882,6.3124,6.3475,6.3751,6.4002,6.4454,6.4982,6.5459,6.586,6.6061,6.6086,6.6112,6.6197,6.6369,6.6626,6.701,6.7536,6.8167,6.9003,7.0021,7.1096,7.2062,7.3055,7.3762,7.4113,7.4479,7.4991,7.5526,7.5868,7.5981,7.6132,7.6387,7.6575,7.6762,7.7023,7.7283,7.763,7.8033,7.8318,7.8499,7.8753,7.8729,7.8729,7.8699,7.8669,7.8609,7.8609,7.8579,7.8579,7.8609,7.8579,7.828,7.7831,7.7831,7.8082,7.8506,7.9153,8.0226,8.1124,8.1802,8.2546,8.3767,8.4667,8.5485,8.6197,8.6686,8.699,8.717,8.7289,8.7319,8.7349,8.7408,8.7464,8.764,8.7846,8.8103,8.8223,8.8367,8.8425,8.8367,8.8477,8.8677,8.8818,8.8959,8.9016,8.91,8.91,8.9134,8.9134,8.9134,8.9134,8.9134,8.9134,8.8965,8.8395,8.8125,8.7922,8.7617,8.7245,8.6812,8.644,8.5763,8.5189,8.5459,8.5628,8.5425,8.5324,8.5121,8.5425,6.2781,6.2781,6.2781,6.2781,6.2781,6.2781,6.3149,6.355,6.3701,6.4053,6.4597,6.4982,6.5534,6.5911,6.6036,6.6112,6.6112,6.6112,6.6369,6.6626,6.6882,6.7578,6.8377,6.9252,7.0159,7.1366,7.2409,7.328,7.4063,7.4914,7.5374,7.5716,7.5716,7.6019,7.6245,7.635,7.6387,7.6575,7.6762,7.7015,7.7312,7.7652,7.8099,7.8245,7.8536,7.8789,7.8789,7.8789,7.8789,7.8789,7.8789,7.8789,7.8789,7.8789,7.8789,7.8789,7.8789,7.8645,7.8531,7.8573,7.8926,7.948,8.0256,8.1224,8.2143,8.3013,8.3832,8.4603,8.5485,8.6167,8.6686,8.705,8.723,8.7259,8.7319,8.7378,8.7438,8.7552,8.767,8.7816,8.8049,8.8334,8.8563,8.8677,8.8677,8.8648,8.8739,8.8903,8.8931,8.9044,8.9072,8.91,8.91,8.9134,8.9134,8.9134,8.9134,8.9134,8.9134,8.9134,8.8965,8.8795,8.8531,8.8294,8.7888,8.7516,8.7211,8.6907,8.6738,8.6738,8.6636,8.6203,8.6135,8.6102,8.6602,6.2781,6.2781,6.2781,6.2781,6.2807,6.3199,6.3475,6.3802,6.4379,6.4982,6.5459,6.571,6.5911,6.6061,6.6112,6.6112,6.6155,6.6412,6.6626,6.7095,6.762,6.8461,6.9418,7.0527,7.1661,7.2647,7.3633,7.449,7.5182,7.564,7.5944,7.6161,7.617,7.6312,7.6462,7.65,7.65,7.6612,7.6911,7.7164,7.7505,7.788,7.8318,7.8608,7.8644,7.8789,7.8789,7.8789,7.8789,7.8789,7.8789,7.8789,7.8789,7.8789,7.8789,7.8825,7.8825,7.8933,7.9148,7.9255,7.9612,8.0701,8.1395,8.2177,8.3145,8.3994,8.4794,8.5516,8.6197,8.6717,8.708,8.723,8.7289,8.7319,8.7349,8.7408,8.7552,8.7728,8.7929,8.8103,8.8362,8.862,8.8818,8.8988,8.8959,8.8931,8.9044,8.9134,8.9134,8.9134,8.9134,8.9134,8.9134,8.9134,8.9134,8.9134,8.9134,8.9134,8.9134,8.9134,8.9134,8.91,8.8863,8.87,8.8598,8.8328,8.8192,8.826,8.7989,8.7482,8.711,8.6778,8.6812,8.7015,8.7482,6.2781,6.2807,6.2998,6.3073,6.3149,6.3525,6.3902,6.4279,6.4931,6.5584,6.6112,6.6112,6.6112,6.6112,6.6112,6.624,6.6369,6.6669,6.7027,6.7662,6.8461,6.9459,7.0527,7.1621,7.2779,7.3684,7.45,7.5335,7.5678,7.5906,7.617,7.6387,7.65,7.65,7.65,7.65,7.6538,7.6725,7.706,7.7431,7.777,7.8172,7.8463,7.8753,7.8789,7.8789,7.8789,7.8789,7.8789,7.8789,7.8789,7.8789,7.8789,7.8789,7.8789,7.8825,7.8933,7.9112,7.9363,8.0001,8.0566,8.1635,8.2479,8.3341,8.4251,8.492,8.561,8.6228,8.6717,8.705,8.7319,8.7319,8.7408,8.7438,8.7464,8.7552,8.7816,8.8016,8.8247,8.8477,8.8677,8.8875,8.8931,8.9072,8.9044,8.9016,8.9044,8.9134,8.9134,8.9134,8.9134,8.9134,8.9134,8.9134,8.9134,8.9134,8.9134,8.9134,8.9134,8.9134,8.9134,8.9134,8.9134,8.8965,8.8965,8.9066,8.8965,8.8761,8.8328,8.7854,8.7685,8.7651,8.782,8.8023,8.8057,6.2807,6.2857,6.3425,6.3651,6.3726,6.3701,6.4279,6.5032,6.5283,6.5634,6.6086,6.6112,6.6155,6.6197,6.6283,6.654,6.6856,6.6984,6.7536,6.8628,6.95,7.0568,7.1782,7.2897,7.3801,7.4577,7.5297,7.5754,7.5906,7.617,7.6425,7.6462,7.65,7.65,7.65,7.65,7.6687,7.7052,7.7394,7.777,7.8099,7.8499,7.8717,7.8789,7.8789,7.8789,7.8789,7.8789,7.8789,7.8789,7.8789,7.8789,7.8789,7.8789,7.8825,7.8861,7.9184,7.9363,7.9541,8.0806,8.1873,8.2646,8.344,8.4379,8.5205,8.5828,8.6258,8.6747,8.7017,8.723,8.7319,8.7349,8.7464,8.7582,8.7611,8.7816,8.8074,8.8247,8.8477,8.8705,8.8903,8.9072,8.9072,8.91,8.91,8.9072,8.9134,8.9134,8.9134,8.9134,8.9134,8.9134,8.9134,8.9134,8.9134,8.9134,8.9134,8.9134,8.9134,8.9134,8.9134,8.9134,8.9134,8.9134,8.9134,8.9134,8.9134,8.9066,8.8694,8.8395,8.8694,8.8761,8.8931,8.8897,8.8761,6.3007,6.3425,6.3626,6.4103,6.4705,6.4756,6.4982,6.5308,6.566,6.5936,6.6129,6.6412,6.6583,6.6626,6.6967,6.7239,6.7662,6.8083,6.8753,6.9707,7.0649,7.1782,7.2937,7.3957,7.4809,7.5412,7.5981,7.6208,7.6283,7.6462,7.65,7.65,7.6538,7.65,7.6575,7.6687,7.7015,7.7201,7.7652,7.8099,7.8245,7.8572,7.8789,7.8789,7.8789,7.8789,7.8789,7.8789,7.8789,7.8789,7.8789,7.8789,7.8789,7.8789,7.8933,7.9112,7.9464,8.0072,8.1086,8.2446,8.3341,8.3896,8.4443,8.533,8.6169,8.6444,8.6777,8.705,8.72,8.7319,8.7319,8.7493,8.764,8.7728,8.7846,8.8103,8.8362,8.8477,8.8648,8.8875,8.9072,8.91,8.9134,8.9134,8.9134,8.9134,8.9134,8.9134,8.9134,8.9134,8.9134,8.9134,8.9134,8.9134,8.9134,8.9134,8.9134,8.9134,8.9134,8.9134,8.9134,8.9134,8.9134,8.9134,8.9134,8.9134,8.9134,8.9134,8.9134,8.91,8.9134,8.9134,8.9066,8.9032,8.8998,6.335,6.3726,6.4103,6.463,6.5233,6.5283,6.5383,6.5652,6.6132,6.6326,6.6498,6.6967,6.7281,6.7409,6.7747,6.8335,6.8769,6.9086,7.005,7.0947,7.1982,7.3016,7.4007,7.4885,7.5459,7.6019,7.6283,7.65,7.6462,7.65,7.65,7.6538,7.6612,7.6725,7.6829,7.6978,7.7275,7.7505,7.799,7.8282,7.8463,7.8644,7.8789,7.8789,7.8789,7.8789,7.8789,7.8789,7.8789,7.8789,7.8789,7.8789,7.8789,7.8861,7.9005,7.9321,8.0072,8.0948,8.2479,8.3539,8.4315,8.4952,8.5518,8.6107,8.6719,8.6837,8.705,8.723,8.7319,8.7378,8.7467,8.767,8.7816,8.7904,8.8161,8.8477,8.8648,8.8762,8.8818,8.9016,8.9072,8.91,8.9134,8.9134,8.9134,8.9134,8.9134,8.9134,8.9134,8.9134,8.9134,8.9134,8.9134,8.9134,8.9134,8.9134,8.9134,8.9134,8.9134,8.9134,8.9134,8.9134,8.9134,8.9134,8.9134,8.9134,8.9134,8.9134,8.9134,8.9134,8.9134,8.9134,8.9134,8.9134,8.9134,6.3726,6.3902,6.4856,6.5283,6.5333,6.5468,6.572,6.6172,6.6643,6.6882,6.6924,6.7831,6.8225,6.8335,6.8711,6.9418,7.0077,7.0214,7.1231,7.2381,7.3174,7.4151,7.4885,7.5573,7.6019,7.635,7.65,7.65,7.65,7.65,7.65,7.6612,7.6866,7.7015,7.709,7.7283,7.7579,7.7946,7.8209,7.8463,7.868,7.8753,7.8789,7.8789,7.8789,7.8789,7.8789,7.8789,7.8789,7.8789,7.8789,7.8789,7.8789,7.8825,7.9076,7.9754,8.091,8.2244,8.3473,8.4379,8.5204,8.589,8.6444,8.6749,8.69,8.708,8.723,8.7319,8.7378,8.7493,8.764,8.7875,8.8045,8.8247,8.8534,8.8762,8.8959,8.9044,8.9044,8.91,8.91,8.9134,8.9134,8.9134,8.9134,8.9134,8.9134,8.9134,8.9134,8.9134,8.9134,8.9134,8.9134,8.9134,8.9134,8.9134,8.9134,8.9134,8.9134,8.9134,8.9134,8.9134,8.9134,8.9134,8.9134,8.9134,8.9134,8.9134,8.9134,8.9134,8.9134,8.9134,8.9134,8.9134,8.9134,6.4479,6.4856,6.5157,6.5509,6.5903,6.6202,6.6474,6.6711,6.7366,6.7747,6.7763,6.8977,6.9515,6.9624,7.0323,7.0934,7.1419,7.1902,7.262,7.3516,7.4229,7.4962,7.5535,7.6057,7.635,7.6462,7.65,7.65,7.65,7.65,7.65,7.6575,7.6978,7.7201,7.7468,7.7763,7.799,7.8209,7.8463,7.8644,7.8753,7.8789,7.8789,7.8789,7.8789,7.8789,7.8789,7.8789,7.8789,7.8789,7.8789,7.8789,7.8789,7.9112,7.9576,8.0948,8.2076,8.321,8.4251,8.5078,8.583,8.6504,8.696,8.711,8.72,8.723,8.7319,8.7378,8.7464,8.764,8.7841,8.8103,8.8305,8.8534,8.8762,8.8931,8.9134,8.9134,8.9134,8.9134,8.9134,8.9134,8.9134,8.9134,8.9134,8.9134,8.9134,8.9134,8.9134,8.9134,8.9134,8.9134,8.9134,8.9134,8.9134,8.9134,8.9134,8.9134,8.9134,8.9134,8.9134,8.9134,8.9134,8.9134,8.9134,8.9134,8.9134,8.9134,8.9134,8.9134,8.9134,8.9134,8.9134,8.9134,8.9134,6.5024,6.5308,6.5534,6.5896,6.6447,6.7239,6.7662,6.7957,6.8419,6.8711,6.9044,7.0282,7.0974,7.1231,7.1862,7.2528,7.3122,7.3331,7.3918,7.4655,7.5192,7.564,7.6057,7.635,7.6462,7.65,7.65,7.65,7.65,7.65,7.65,7.6575,7.6986,7.7357,7.766,7.8063,7.8391,7.8536,7.8644,7.8753,7.8789,7.8789,7.8789,7.8789,7.8789,7.8789,7.8789,7.8789,7.8789,7.8789,7.8789,7.8897,7.9148,7.9683,8.0427,8.1737,8.2912,8.3993,8.5015,8.5766,8.6413,8.687,8.72,8.7259,8.7289,8.7289,8.7408,8.7464,8.7611,8.7816,8.8074,8.8362,8.8591,8.879,8.8931,8.9072,8.9134,8.9134,8.9134,8.9134,8.9134,8.9134,8.9134,8.9134,8.9134,8.9134,8.9134,8.9134,8.9134,8.9134,8.9134,8.9134,8.9134,8.9134,8.9134,8.9134,8.9134,8.9134,8.9134,8.9134,8.9134,8.9134,8.9134,8.9134,8.9134,8.9134,8.9134,8.9134,8.9134,8.9134,8.9134,8.9134,8.9134,8.9134,8.9134,6.5358,6.5409,6.5928,6.6515,6.7137,6.8293,6.9128,6.9692,6.9871,6.9995,7.0568,7.1648,7.2449,7.2779,7.3319,7.3829,7.4257,7.4528,7.4847,7.5792,7.5792,7.6057,7.6312,7.65,7.65,7.65,7.65,7.65,7.65,7.6538,7.6538,7.6575,7.7217,7.7623,7.7843,7.8391,7.868,7.8717,7.8753,7.8789,7.8789,7.8789,7.8789,7.8789,7.8789,7.8789,7.8789,7.8789,7.8789,7.8789,7.8897,7.9076,7.9789,8.0527,8.1426,8.2446,8.3668,8.4699,8.5642,8.6352,8.6747,8.711,8.7319,8.7319,8.7319,8.7319,8.7408,8.7611,8.7758,8.8016,8.8334,8.8591,8.8818,8.8931,8.9044,8.9134,8.9134,8.9134,8.9134,8.9134,8.9134,8.9134,8.9134,8.9134,8.9134,8.9134,8.9134,8.9134,8.9134,8.9134,8.9134,8.9134,8.9134,8.9134,8.9134,8.9134,8.9134,8.9134,8.9134,8.9134,8.9134,8.9134,8.9134,8.9134,8.9134,8.9134,8.9134,8.9134,8.9134,8.9134,8.9134,8.9134,8.9134,8.9134,8.9134,6.5911,6.5979,6.6447,6.7239,6.8335,6.9044,7.02,7.15,7.2142,7.2262,7.2302,7.3083,7.3712,7.4141,7.449,7.4904,7.5067,7.5374,7.5602,7.5906,7.6095,7.6274,7.6462,7.65,7.65,7.65,7.65,7.65,7.65,7.6538,7.6687,7.6949,7.7439,7.777,7.8026,7.8608,7.8789,7.8789,7.8789,7.8789,7.8789,7.8789,7.8789,7.8789,7.8789,7.8789,7.8789,7.8789,7.8789,7.8825,7.9112,7.9718,8.0662,8.1461,8.2446,8.3571,8.4475,8.5455,8.6169,8.6686,8.699,8.72,8.7319,8.7319,8.7319,8.7319,8.7438,8.7703,8.7962,8.8247,8.8534,8.879,8.8959,8.9044,8.9134,8.9134,8.9134,8.9134,8.9134,8.9134,8.9134,8.9134,8.9134,8.9134,8.9134,8.9134,8.9134,8.9134,8.9134,8.9134,8.9134,8.9134,8.9134,8.9134,8.9134,8.9134,8.9134,8.9134,8.9134,8.9134,8.9134,8.9134,8.9134,8.9134,8.9134,8.9134,8.9134,8.9134,8.9134,8.9134,8.9134,8.9134,8.9134,8.9134,8.9134,6.624,6.6498,6.7324,6.8209,6.9169,7.02,7.1419,7.262,7.3527,7.3957,7.4074,7.4412,7.476,7.5106,7.5374,7.5631,7.5716,7.5981,7.6095,7.6208,7.6312,7.6425,7.65,7.65,7.65,7.65,7.65,7.65,7.65,7.6725,7.6941,7.7201,7.7512,7.799,7.8245,7.8572,7.8789,7.8789,7.8789,7.8789,7.8789,7.8789,7.8789,7.8789,7.8789,7.8789,7.8789,7.8825,7.8933,7.9255,7.9789,8.0422,8.1358,8.2278,8.3277,8.4251,8.5172,8.6013,8.6595,8.696,8.708,8.7259,8.7319,8.7319,8.7349,8.7408,8.767,8.7933,8.8219,8.8534,8.8762,8.9016,8.9044,8.9072,8.9134,8.9134,8.9134,8.9134,8.9134,8.9134,8.9134,8.9134,8.9134,8.9134,8.9134,8.9134,8.9134,8.9134,8.9134,8.9134,8.9134,8.9134,8.9134,8.9134,8.9134,8.9134,8.9134,8.9134,8.9134,8.9134,8.9134,8.9134,8.9134,8.9134,8.9134,8.9134,8.9134,8.9134,8.9134,8.9134,8.9134,8.9134,8.9134,8.9134,8.9134,6.654,6.7197,6.8377,6.9252,7.0036,7.154,7.2739,7.3605,7.4412,7.5182,7.564,7.545,7.5602,7.5792,7.5906,7.617,7.635,7.635,7.6462,7.6462,7.65,7.65,7.65,7.65,7.65,7.65,7.65,7.65,7.65,7.6799,7.709,7.7312,7.7726,7.8209,7.8354,7.8572,7.8789,7.8789,7.8789,7.8789,7.8789,7.8789,7.8789,7.8789,7.8789,7.8789,7.8789,7.8897,7.9076,7.9647,8.0422,8.1358,8.2177,8.3144,8.4058,8.5047,8.5797,8.6444,8.6837,8.714,8.723,8.7319,8.7319,8.7349,8.7375,8.7611,8.7904,8.8161,8.8477,8.8705,8.8931,8.9072,8.91,8.9134,8.9134,8.9134,8.9134,8.9134,8.9134,8.9134,8.9134,8.9134,8.9134,8.9134,8.9134,8.9134,8.9134,8.9134,8.9134,8.9134,8.9134,8.9134,8.9134,8.9134,8.9134,8.9134,8.9134,8.9134,8.9134,8.9134,8.9134,8.9134,8.9134,8.9134,8.9134,8.9134,8.9134,8.9134,8.9134,8.9134,8.9134,8.9134,8.9134,8.9134,8.9134,6.7324,6.8461,6.9154,7.02,7.1621,7.266,7.3762,7.4809,7.5307,7.5868,7.6208,7.6312,7.6312,7.6387,7.6387,7.6462,7.6462,7.65,7.65,7.65,7.65,7.65,7.65,7.65,7.65,7.65,7.65,7.65,7.6612,7.6941,7.7275,7.7542,7.7917,7.8354,7.868,7.8789,7.8789,7.8789,7.8789,7.8789,7.8789,7.8789,7.8789,7.8789,7.8789,7.8789,7.8861,7.9112,7.9255,7.9789,8.0775,8.2042,8.3079,8.4026,8.4952,8.5641,8.6444,8.6747,8.711,8.723,8.7319,8.7319,8.7349,8.7438,8.7552,8.7875,8.8165,8.8391,8.8648,8.879,8.8988,8.9072,8.9134,8.9134,8.9134,8.9134,8.9134,8.9134,8.9134,8.9134,8.9134,8.9134,8.9134,8.9134,8.9134,8.9134,8.9134,8.9134,8.9134,8.9134,8.9134,8.9134,8.9134,8.9134,8.9134,8.9134,8.9134,8.9134,8.9134,8.9134,8.9134,8.9134,8.9134,8.9134,8.9134,8.9134,8.9134,8.9134,8.9134,8.9134,8.9134,8.9134,8.9134,8.9134,8.9134]}]]